GFSWCAN_prec_precacc24_123.txt.gz
Total_Precipitation_Accumulation
0.33 0.26 0.19 0.17 0.19 0.12 0.09 0.11 0.09 0.04 0.02 0.00 0.00 0.00 0.00 0.01 0.05 0.06 0.05 0.00 0.02 0.03 0.01 0.00 0.00 0.00 0.00 0.00 0.00 0.00 0.00 0.01 0.00 0.01 0.01 0.01 0.02 0.03 0.14 0.06 0.04 0.02 0.11 0.07 0.09 0.06 0.08 0.02 0.03 0.07 0.14 0.10 0.06 0.04
0.34 0.24 0.22 0.17 0.19 0.12 0.08 0.12 0.09 0.05 0.03 0.01 0.00 0.00 0.00 0.01 0.03 0.13 0.10 0.03 0.01 0.02 0.01 0.00 0.00 0.00 0.00 0.00 0.00 0.00 0.01 0.03 0.02 0.03 0.02 0.02 0.05 0.03 0.03 0.32 0.02 0.08 0.04 0.03 0.08 0.11 0.17 0.08 0.08 0.08 0.02 0.06 0.06 0.03
0.38 0.26 0.20 0.16 0.18 0.12 0.10 0.12 0.09 0.06 0.04 0.02 0.00 0.01 0.00 0.00 0.03 0.10 0.13 0.03 0.03 0.02 0.01 0.00 0.02 0.00 0.00 0.00 0.00 0.01 0.04 0.03 0.05 0.03 0.02 0.02 0.08 0.04 0.04 0.09 0.04 0.02 0.00 0.03 0.11 0.14 0.07 0.05 0.04 0.03 0.02 0.03 0.03 0.03
0.39 0.33 0.23 0.15 0.14 0.09 0.11 0.14 0.08 0.05 0.04 0.03 0.01 0.01 0.01 0.01 0.02 0.12 0.09 0.04 0.07 0.07 0.02 0.04 0.01 0.00 0.00 0.00 0.00 0.00 0.01 0.01 0.03 0.01 0.03 0.02 0.07 0.03 0.02 0.07 0.02 0.01 0.00 0.01 0.09 0.11 0.07 0.04 0.03 0.03 0.02 0.02 0.01 0.00
0.32 0.35 0.29 0.16 0.12 0.07 0.10 0.14 0.08 0.05 0.04 0.04 0.02 0.02 0.01 0.03 0.06 0.17 0.11 0.03 0.03 0.10 0.10 0.06 0.04 0.01 0.00 0.00 0.00 0.00 0.00 0.00 0.00 0.01 0.04 0.08 0.07 0.02 0.04 0.09 0.03 0.00 0.00 0.02 0.08 0.05 0.06 0.07 0.03 0.01 0.01 0.02 0.01 0.00
0.24 0.29 0.29 0.16 0.14 0.10 0.12 0.15 0.07 0.07 0.05 0.04 0.03 0.02 0.03 0.10 0.17 0.24 0.25 0.07 0.05 0.17 0.14 0.06 0.10 0.05 0.00 0.00 0.00 0.00 0.00 0.00 0.01 0.03 0.03 0.06 0.05 0.01 0.04 0.12 0.04 0.00 0.00 0.00 0.02 0.01 0.01 0.03 0.03 0.03 0.03 0.02 0.00 0.00
0.18 0.22 0.27 0.16 0.12 0.11 0.12 0.11 0.07 0.07 0.06 0.05 0.02 0.02 0.08 0.24 0.28 0.19 0.16 0.12 0.04 0.07 0.12 0.02 0.08 0.01 0.00 0.00 0.00 0.00 0.00 0.01 0.05 0.05 0.03 0.04 0.07 0.03 0.03 0.03 0.01 0.00 0.00 0.02 0.03 0.04 0.05 0.03 0.02 0.01 0.00 0.00 0.00 0.00
0.14 0.18 0.22 0.16 0.11 0.09 0.10 0.06 0.06 0.06 0.07 0.04 0.02 0.03 0.13 0.36 0.48 0.24 0.10 0.07 0.04 0.07 0.09 0.04 0.06 0.01 0.00 0.01 0.01 0.00 0.01 0.00 0.02 0.04 0.03 0.03 0.04 0.02 0.01 0.00 0.00 0.00 0.00 0.01 0.03 0.03 0.05 0.04 0.01 0.00 0.00 0.00 0.00 0.00
0.16 0.19 0.13 0.11 0.11 0.11 0.08 0.04 0.06 0.08 0.06 0.03 0.04 0.17 0.32 0.45 0.50 0.18 0.10 0.09 0.06 0.16 0.13 0.02 0.03 0.08 0.01 0.02 0.02 0.01 0.02 0.03 0.02 0.02 0.02 0.04 0.04 0.04 0.01 0.00 0.00 0.00 0.00 0.00 0.01 0.01 0.03 0.03 0.01 0.00 0.00 0.00 0.00 0.00
0.22 0.19 0.06 0.08 0.09 0.11 0.07 0.05 0.06 0.08 0.08 0.05 0.24 0.37 0.32 0.13 0.18 0.29 0.55 0.34 0.21 0.16 0.06 0.02 0.03 0.06 0.02 0.02 0.03 0.01 0.03 0.06 0.08 0.03 0.01 0.02 0.02 0.01 0.00 0.00 0.00 0.00 0.00 0.00 0.00 0.00 0.00 0.00 0.00 0.00 0.00 0.00 0.00 0.00
0.26 0.13 0.06 0.06 0.09 0.07 0.04 0.06 0.08 0.11 0.17 0.27 0.33 0.19 0.12 0.22 0.25 0.35 0.37 0.34 0.17 0.05 0.02 0.00 0.01 0.04 0.02 0.03 0.05 0.05 0.05 0.05 0.03 0.06 0.04 0.03 0.03 0.01 0.00 0.00 0.00 0.00 0.00 0.00 0.00 0.00 0.00 0.00 0.00 0.00 0.00 0.00 0.00 0.00
0.23 0.09 0.07 0.06 0.07 0.04 0.04 0.07 0.07 0.15 0.25 0.15 0.15 0.33 0.84 0.57 0.32 0.41 0.27 0.16 0.03 0.00 0.00 0.00 0.00 0.05 0.06 0.08 0.13 0.07 0.04 0.02 0.04 0.09 0.06 0.02 0.03 0.00 0.00 0.00 0.00 0.00 0.00 0.00 0.00 0.00 0.00 0.00 0.00 0.00 0.00 0.00 0.00 0.00
0.18 0.08 0.06 0.08 0.08 0.05 0.04 0.05 0.06 0.17 0.32 0.43 0.58 0.62 0.86 0.41 0.25 0.16 0.13 0.04 0.00 0.01 0.00 0.00 0.02 0.04 0.04 0.05 0.06 0.04 0.01 0.03 0.08 0.09 0.06 0.01 0.00 0.00 0.00 0.00 0.00 0.00 0.00 0.00 0.00 0.00 0.00 0.00 0.00 0.00 0.00 0.00 0.00 0.00
0.16 0.07 0.07 0.09 0.12 0.11 0.08 0.18 0.22 0.28 0.54 0.47 0.55 0.46 0.29 0.23 0.03 0.01 0.01 0.01 0.01 0.00 0.00 0.01 0.01 0.01 0.02 0.01 0.03 0.11 0.05 0.04 0.05 0.04 0.03 0.01 0.00 0.00 0.00 0.00 0.00 0.00 0.00 0.00 0.00 0.00 0.00 0.00 0.00 0.00 0.00 0.00 0.00 0.00
0.13 0.06 0.09 0.14 0.18 0.18 0.23 0.35 0.35 0.38 0.44 0.40 0.40 0.26 0.05 0.04 0.02 0.03 0.04 0.03 0.01 0.00 0.01 0.01 0.01 0.01 0.01 0.01 0.02 0.03 0.04 0.04 0.02 0.03 0.02 0.00 0.00 0.00 0.00 0.00 0.00 0.00 0.00 0.00 0.00 0.00 0.00 0.00 0.00 0.00 0.00 0.00 0.00 0.00
0.18 0.25 0.18 0.22 0.31 0.30 0.34 0.40 0.43 0.38 0.22 0.17 0.14 0.15 0.11 0.03 0.02 0.01 0.04 0.09 0.05 0.04 0.03 0.03 0.02 0.02 0.01 0.04 0.03 0.01 0.03 0.05 0.05 0.00 0.00 0.00 0.00 0.00 0.00 0.00 0.00 0.00 0.00 0.00 0.00 0.00 0.00 0.00 0.00 0.00 0.00 0.00 0.00 0.00
0.31 0.31 0.22 0.28 0.31 0.29 0.25 0.25 0.26 0.27 0.18 0.09 0.06 0.07 0.08 0.06 0.04 0.03 0.02 0.10 0.16 0.08 0.02 0.05 0.03 0.01 0.02 0.02 0.00 0.01 0.01 0.01 0.00 0.00 0.00 0.00 0.00 0.00 0.00 0.00 0.00 0.00 0.00 0.00 0.00 0.00 0.00 0.00 0.00 0.00 0.01 0.00 0.00 0.00
0.29 0.22 0.17 0.23 0.26 0.28 0.26 0.18 0.13 0.12 0.08 0.03 0.02 0.04 0.05 0.04 0.03 0.02 0.05 0.05 0.12 0.07 0.06 0.06 0.08 0.02 0.01 0.01 0.03 0.01 0.01 0.01 0.01 0.01 0.00 0.00 0.00 0.00 0.00 0.00 0.00 0.00 0.00 0.00 0.00 0.00 0.00 0.00 0.01 0.01 0.00 0.00 0.00 0.00
0.28 0.20 0.17 0.16 0.08 0.10 0.17 0.10 0.06 0.08 0.03 0.01 0.02 0.02 0.03 0.02 0.02 0.02 0.01 0.02 0.07 0.07 0.03 0.00 0.02 0.03 0.02 0.01 0.01 0.00 0.01 0.01 0.02 0.01 0.01 0.00 0.00 0.00 0.00 0.00 0.00 0.00 0.00 0.00 0.00 0.00 0.00 0.00 0.01 0.01 0.00 0.00 0.01 0.01
0.25 0.11 0.10 0.11 0.13 0.13 0.14 0.06 0.00 0.03 0.02 0.01 0.01 0.01 0.02 0.02 0.02 0.02 0.01 0.02 0.06 0.18 0.19 0.03 0.00 0.00 0.00 0.00 0.00 0.00 0.00 0.00 0.00 0.01 0.02 0.01 0.00 0.00 0.00 0.00 0.00 0.00 0.00 0.00 0.00 0.01 0.00 0.00 0.00 0.00 0.00 0.00 0.00 0.01
0.34 0.27 0.27 0.20 0.14 0.20 0.18 0.03 0.00 0.00 0.00 0.01 0.01 0.01 0.01 0.02 0.04 0.04 0.02 0.01 0.04 0.06 0.09 0.02 0.00 0.00 0.00 0.00 0.00 0.00 0.00 0.00 0.00 0.00 0.00 0.01 0.01 0.00 0.00 0.00 0.00 0.00 0.00 0.00 0.00 0.00 0.00 0.00 0.00 0.00 0.00 0.00 0.01 0.01
0.34 0.39 0.45 0.21 0.15 0.11 0.16 0.03 0.01 0.00 0.01 0.01 0.02 0.01 0.03 0.05 0.04 0.03 0.01 0.04 0.04 0.01 0.00 0.00 0.00 0.00 0.00 0.00 0.00 0.00 0.00 0.00 0.00 0.00 0.00 0.00 0.00 0.00 0.00 0.00 0.00 0.00 0.00 0.01 0.00 0.01 0.01 0.00 0.00 0.00 0.00 0.00 0.00 0.01
0.09 0.11 0.16 0.12 0.09 0.07 0.15 0.08 0.05 0.01 0.01 0.03 0.03 0.02 0.02 0.02 0.01 0.00 0.02 0.03 0.02 0.00 0.00 0.00 0.00 0.00 0.00 0.00 0.00 0.00 0.00 0.00 0.00 0.00 0.00 0.00 0.00 0.00 0.00 0.00 0.00 0.00 0.00 0.00 0.00 0.00 0.00 0.00 0.00 0.00 0.00 0.00 0.01 0.01
0.04 0.15 0.18 0.12 0.06 0.04 0.09 0.19 0.12 0.05 0.04 0.04 0.04 0.02 0.01 0.01 0.02 0.02 0.03 0.01 0.00 0.00 0.00 0.00 0.00 0.00 0.00 0.00 0.00 0.00 0.00 0.00 0.00 0.00 0.00 0.00 0.00 0.00 0.00 0.00 0.00 0.00 0.00 0.00 0.00 0.00 0.00 0.00 0.00 0.00 0.01 0.01 0.01 0.01
0.13 0.14 0.16 0.11 0.05 0.03 0.03 0.09 0.13 0.04 0.03 0.02 0.04 0.01 0.02 0.01 0.02 0.02 0.01 0.01 0.01 0.01 0.00 0.00 0.00 0.00 0.00 0.00 0.00 0.00 0.00 0.00 0.00 0.00 0.00 0.00 0.00 0.00 0.00 0.00 0.00 0.00 0.00 0.00 0.00 0.00 0.00 0.00 0.00 0.00 0.00 0.01 0.01 0.01
0.19 0.12 0.07 0.06 0.02 0.02 0.01 0.01 0.01 0.00 0.01 0.02 0.03 0.03 0.01 0.01 0.02 0.02 0.04 0.05 0.02 0.02 0.01 0.01 0.01 0.01 0.01 0.00 0.00 0.00 0.00 0.00 0.00 0.00 0.00 0.00 0.00 0.00 0.00 0.00 0.00 0.00 0.00 0.00 0.00 0.00 0.01 0.01 0.01 0.01 0.01 0.00 0.00 0.00
0.14 0.11 0.04 0.02 0.03 0.04 0.02 0.01 0.00 0.00 0.00 0.00 0.02 0.02 0.02 0.02 0.01 0.03 0.04 0.06 0.08 0.03 0.02 0.02 0.01 0.01 0.00 0.00 0.00 0.01 0.01 0.00 0.00 0.00 0.00 0.00 0.00 0.00 0.00 0.00 0.00 0.00 0.00 0.00 0.00 0.00 0.00 0.00 0.00 0.00 0.01 0.01 0.01 0.01
0.07 0.07 0.08 0.12 0.13 0.09 0.09 0.07 0.03 0.02 0.01 0.01 0.02 0.03 0.02 0.01 0.04 0.05 0.04 0.06 0.16 0.08 0.07 0.05 0.02 0.01 0.00 0.00 0.01 0.02 0.02 0.01 0.00 0.00 0.00 0.00 0.00 0.00 0.00 0.00 0.00 0.00 0.00 0.00 0.00 0.00 0.00 0.00 0.00 0.00 0.01 0.01 0.00 0.00
0.08 0.09 0.11 0.15 0.17 0.16 0.12 0.09 0.07 0.04 0.03 0.07 0.07 0.04 0.03 0.02 0.06 0.05 0.04 0.13 0.12 0.04 0.04 0.04 0.08 0.02 0.02 0.02 0.03 0.03 0.03 0.02 0.01 0.01 0.01 0.01 0.01 0.02 0.00 0.00 0.00 0.00 0.00 0.00 0.00 0.00 0.00 0.00 0.00 0.00 0.00 0.00 0.00 0.00
0.09 0.11 0.13 0.11 0.11 0.08 0.06 0.06 0.05 0.04 0.04 0.06 0.04 0.03 0.03 0.04 0.08 0.09 0.09 0.11 0.10 0.06 0.03 0.03 0.06 0.04 0.05 0.04 0.05 0.06 0.05 0.03 0.02 0.02 0.01 0.01 0.01 0.01 0.00 0.00 0.00 0.00 0.00 0.00 0.00 0.00 0.00 0.00 0.00 0.00 0.00 0.00 0.00 0.00
0.16 0.19 0.16 0.13 0.12 0.08 0.09 0.09 0.07 0.05 0.05 0.05 0.05 0.04 0.05 0.07 0.09 0.08 0.09 0.17 0.16 0.04 0.03 0.06 0.09 0.09 0.07 0.06 0.04 0.03 0.03 0.02 0.00 0.00 0.00 0.00 0.00 0.00 0.00 0.00 0.00 0.00 0.00 0.00 0.00 0.00 0.00 0.00 0.00 0.00 0.00 0.00 0.00 0.00
0.16 0.16 0.12 0.10 0.10 0.10 0.10 0.11 0.08 0.06 0.06 0.05 0.06 0.06 0.08 0.08 0.08 0.09 0.12 0.15 0.16 0.09 0.09 0.06 0.05 0.09 0.06 0.03 0.02 0.01 0.00 0.00 0.00 0.00 0.00 0.00 0.00 0.00 0.00 0.00 0.00 0.00 0.00 0.00 0.00 0.00 0.00 0.00 0.00 0.00 0.00 0.00 0.00 0.00
0.06 0.06 0.06 0.05 0.05 0.06 0.06 0.07 0.05 0.06 0.05 0.05 0.06 0.07 0.06 0.04 0.04 0.07 0.09 0.15 0.17 0.10 0.07 0.06 0.05 0.05 0.04 0.01 0.01 0.00 0.00 0.01 0.00 0.00 0.00 0.00 0.00 0.00 0.00 0.00 0.00 0.00 0.00 0.00 0.00 0.00 0.00 0.00 0.00 0.00 0.00 0.00 0.00 0.00

GFSWCAN_prec_precacc24_126.txt.gz
Total_Precipitation_Accumulation
0.37 0.28 0.22 0.21 0.22 0.17 0.11 0.10 0.08 0.04 0.01 0.00 0.00 0.00 0.00 0.00 0.01 0.04 0.04 0.00 0.02 0.03 0.01 0.00 0.00 0.00 0.00 0.00 0.00 0.00 0.00 0.00 0.00 0.01 0.01 0.01 0.02 0.02 0.13 0.05 0.02 0.02 0.11 0.06 0.09 0.06 0.07 0.02 0.03 0.07 0.13 0.10 0.06 0.04
0.39 0.26 0.22 0.20 0.23 0.15 0.10 0.12 0.09 0.04 0.02 0.01 0.00 0.00 0.00 0.00 0.01 0.06 0.08 0.03 0.01 0.02 0.00 0.00 0.00 0.00 0.00 0.00 0.00 0.00 0.01 0.03 0.02 0.03 0.02 0.01 0.03 0.03 0.03 0.31 0.01 0.04 0.02 0.02 0.06 0.07 0.10 0.06 0.07 0.07 0.02 0.03 0.03 0.02
0.42 0.27 0.21 0.17 0.22 0.14 0.11 0.16 0.09 0.05 0.03 0.01 0.00 0.00 0.00 0.00 0.01 0.04 0.07 0.02 0.01 0.01 0.00 0.00 0.02 0.00 0.00 0.00 0.00 0.01 0.04 0.03 0.04 0.02 0.02 0.02 0.06 0.04 0.04 0.08 0.03 0.01 0.00 0.02 0.07 0.11 0.05 0.03 0.01 0.01 0.01 0.01 0.00 0.00
0.43 0.32 0.24 0.16 0.19 0.10 0.13 0.18 0.08 0.04 0.03 0.03 0.01 0.01 0.00 0.00 0.01 0.04 0.03 0.02 0.04 0.05 0.02 0.04 0.01 0.00 0.00 0.00 0.00 0.00 0.01 0.01 0.02 0.01 0.02 0.02 0.07 0.03 0.02 0.06 0.02 0.01 0.00 0.01 0.07 0.09 0.04 0.03 0.01 0.01 0.00 0.00 0.00 0.00
0.36 0.31 0.27 0.16 0.13 0.07 0.12 0.16 0.07 0.05 0.04 0.04 0.02 0.01 0.00 0.00 0.01 0.05 0.06 0.01 0.01 0.05 0.09 0.06 0.04 0.01 0.00 0.00 0.00 0.00 0.00 0.00 0.00 0.00 0.04 0.07 0.07 0.01 0.03 0.08 0.03 0.00 0.00 0.02 0.06 0.03 0.04 0.04 0.01 0.00 0.00 0.00 0.00 0.00
0.31 0.26 0.27 0.15 0.14 0.10 0.13 0.16 0.06 0.06 0.06 0.05 0.03 0.01 0.00 0.03 0.05 0.10 0.12 0.03 0.02 0.09 0.11 0.06 0.10 0.05 0.00 0.00 0.00 0.00 0.00 0.00 0.00 0.01 0.03 0.05 0.05 0.01 0.03 0.11 0.03 0.00 0.00 0.00 0.01 0.00 0.00 0.01 0.01 0.00 0.00 0.00 0.00 0.00
0.23 0.22 0.25 0.14 0.12 0.13 0.15 0.11 0.06 0.08 0.08 0.06 0.02 0.00 0.01 0.10 0.17 0.11 0.12 0.12 0.03 0.04 0.07 0.02 0.08 0.02 0.00 0.00 0.00 0.00 0.00 0.01 0.03 0.04 0.03 0.04 0.06 0.03 0.02 0.03 0.01 0.00 0.00 0.00 0.00 0.01 0.03 0.02 0.01 0.00 0.00 0.00 0.00 0.00
0.16 0.20 0.22 0.14 0.11 0.12 0.11 0.05 0.05 0.09 0.09 0.05 0.01 0.00 0.05 0.16 0.32 0.15 0.09 0.07 0.03 0.02 0.02 0.03 0.07 0.02 0.00 0.01 0.01 0.00 0.01 0.00 0.01 0.03 0.03 0.01 0.04 0.02 0.00 0.00 0.00 0.00 0.00 0.00 0.00 0.00 0.02 0.02 0.01 0.00 0.00 0.00 0.00 0.00
0.17 0.21 0.15 0.12 0.14 0.14 0.08 0.03 0.06 0.10 0.07 0.03 0.00 0.06 0.18 0.24 0.31 0.13 0.09 0.08 0.05 0.07 0.06 0.01 0.04 0.08 0.01 0.02 0.02 0.01 0.01 0.03 0.02 0.02 0.01 0.03 0.03 0.04 0.01 0.00 0.00 0.00 0.00 0.00 0.00 0.00 0.00 0.01 0.01 0.00 0.00 0.00 0.00 0.00
0.23 0.21 0.09 0.11 0.13 0.13 0.07 0.03 0.06 0.09 0.07 0.02 0.08 0.21 0.19 0.07 0.16 0.26 0.41 0.26 0.18 0.13 0.03 0.02 0.03 0.06 0.01 0.01 0.02 0.01 0.03 0.06 0.08 0.02 0.01 0.02 0.02 0.01 0.00 0.00 0.00 0.00 0.00 0.00 0.00 0.00 0.00 0.00 0.00 0.00 0.00 0.00 0.00 0.00
0.28 0.15 0.08 0.10 0.13 0.08 0.04 0.05 0.08 0.11 0.09 0.09 0.15 0.11 0.09 0.17 0.23 0.30 0.25 0.25 0.14 0.04 0.01 0.00 0.01 0.04 0.02 0.03 0.05 0.05 0.05 0.04 0.02 0.05 0.03 0.02 0.03 0.00 0.00 0.00 0.00 0.00 0.00 0.00 0.00 0.00 0.00 0.00 0.00 0.00 0.00 0.00 0.00 0.00
0.24 0.10 0.08 0.09 0.11 0.05 0.04 0.06 0.06 0.06 0.09 0.07 0.10 0.30 0.66 0.43 0.23 0.31 0.20 0.12 0.02 0.00 0.00 0.00 0.00 0.05 0.05 0.07 0.12 0.06 0.04 0.02 0.03 0.08 0.04 0.02 0.02 0.00 0.00 0.00 0.00 0.00 0.00 0.00 0.00 0.00 0.00 0.00 0.00 0.00 0.00 0.00 0.00 0.00
0.18 0.08 0.07 0.10 0.10 0.07 0.05 0.03 0.02 0.08 0.12 0.15 0.36 0.50 0.60 0.24 0.15 0.10 0.11 0.04 0.00 0.01 0.00 0.00 0.01 0.04 0.04 0.04 0.05 0.02 0.01 0.03 0.05 0.05 0.04 0.01 0.00 0.00 0.00 0.00 0.00 0.00 0.00 0.00 0.00 0.00 0.00 0.00 0.00 0.00 0.00 0.00 0.00 0.00
0.16 0.07 0.08 0.11 0.13 0.10 0.05 0.05 0.07 0.11 0.19 0.18 0.36 0.35 0.19 0.13 0.02 0.01 0.01 0.01 0.01 0.00 0.00 0.00 0.01 0.01 0.02 0.01 0.01 0.05 0.04 0.03 0.03 0.03 0.03 0.01 0.00 0.00 0.00 0.00 0.00 0.00 0.00 0.00 0.00 0.00 0.00 0.00 0.00 0.00 0.00 0.00 0.00 0.00
0.13 0.07 0.10 0.15 0.15 0.11 0.08 0.07 0.09 0.21 0.22 0.24 0.34 0.23 0.04 0.04 0.02 0.03 0.04 0.03 0.01 0.00 0.01 0.01 0.01 0.01 0.00 0.00 0.00 0.02 0.03 0.03 0.01 0.03 0.02 0.00 0.00 0.00 0.00 0.00 0.00 0.00 0.00 0.00 0.00 0.00 0.00 0.00 0.00 0.00 0.00 0.00 0.00 0.00
0.15 0.16 0.11 0.15 0.19 0.16 0.14 0.22 0.32 0.32 0.16 0.13 0.14 0.15 0.11 0.04 0.02 0.02 0.04 0.09 0.05 0.04 0.02 0.03 0.02 0.01 0.00 0.01 0.01 0.01 0.03 0.05 0.05 0.00 0.00 0.00 0.00 0.00 0.00 0.00 0.00 0.00 0.00 0.00 0.00 0.00 0.00 0.00 0.00 0.00 0.00 0.00 0.00 0.00
0.12 0.11 0.14 0.17 0.19 0.22 0.20 0.23 0.25 0.26 0.16 0.08 0.06 0.06 0.09 0.07 0.05 0.03 0.02 0.09 0.15 0.08 0.02 0.05 0.03 0.01 0.02 0.02 0.00 0.01 0.01 0.01 0.00 0.00 0.00 0.00 0.00 0.00 0.00 0.00 0.00 0.00 0.00 0.00 0.00 0.00 0.00 0.00 0.00 0.00 0.01 0.00 0.00 0.00
0.08 0.10 0.11 0.20 0.24 0.27 0.25 0.18 0.13 0.12 0.08 0.03 0.02 0.05 0.06 0.05 0.05 0.02 0.03 0.05 0.12 0.07 0.06 0.06 0.08 0.02 0.01 0.01 0.03 0.01 0.00 0.00 0.00 0.00 0.00 0.00 0.00 0.00 0.00 0.00 0.00 0.00 0.00 0.00 0.00 0.00 0.00 0.00 0.01 0.01 0.00 0.00 0.00 0.00
0.15 0.12 0.15 0.15 0.08 0.10 0.16 0.10 0.06 0.08 0.02 0.01 0.01 0.02 0.02 0.01 0.02 0.03 0.02 0.02 0.07 0.07 0.03 0.00 0.02 0.03 0.02 0.01 0.01 0.00 0.00 0.01 0.01 0.01 0.01 0.00 0.00 0.00 0.00 0.00 0.00 0.00 0.00 0.00 0.00 0.00 0.00 0.00 0.01 0.01 0.00 0.00 0.00 0.00
0.20 0.10 0.10 0.11 0.13 0.13 0.14 0.06 0.00 0.03 0.02 0.01 0.01 0.01 0.01 0.01 0.01 0.02 0.02 0.03 0.07 0.18 0.19 0.03 0.00 0.00 0.00 0.00 0.00 0.00 0.00 0.00 0.00 0.01 0.02 0.01 0.00 0.00 0.00 0.00 0.00 0.00 0.00 0.00 0.00 0.01 0.00 0.00 0.00 0.00 0.00 0.00 0.00 0.00
0.34 0.27 0.27 0.20 0.14 0.20 0.18 0.03 0.00 0.00 0.00 0.01 0.00 0.00 0.01 0.02 0.03 0.04 0.02 0.01 0.07 0.07 0.10 0.02 0.00 0.00 0.00 0.00 0.00 0.00 0.00 0.00 0.00 0.00 0.00 0.01 0.00 0.00 0.00 0.00 0.00 0.00 0.00 0.00 0.00 0.00 0.00 0.00 0.00 0.00 0.00 0.00 0.00 0.00
0.33 0.39 0.45 0.21 0.15 0.11 0.16 0.03 0.01 0.00 0.01 0.01 0.01 0.01 0.03 0.04 0.04 0.03 0.01 0.04 0.05 0.01 0.00 0.00 0.00 0.00 0.00 0.00 0.00 0.00 0.00 0.00 0.00 0.00 0.00 0.00 0.00 0.00 0.00 0.00 0.00 0.00 0.00 0.00 0.00 0.00 0.00 0.00 0.00 0.00 0.00 0.00 0.00 0.00
0.09 0.10 0.16 0.12 0.09 0.07 0.15 0.08 0.05 0.01 0.01 0.03 0.03 0.02 0.02 0.03 0.01 0.00 0.02 0.03 0.02 0.00 0.00 0.00 0.00 0.00 0.00 0.00 0.00 0.00 0.00 0.00 0.00 0.00 0.00 0.00 0.00 0.00 0.00 0.00 0.00 0.00 0.00 0.00 0.00 0.00 0.00 0.00 0.00 0.00 0.00 0.00 0.00 0.01
0.04 0.15 0.18 0.12 0.06 0.05 0.09 0.19 0.12 0.05 0.04 0.04 0.04 0.02 0.02 0.01 0.02 0.02 0.03 0.01 0.00 0.00 0.00 0.00 0.00 0.00 0.00 0.00 0.00 0.00 0.00 0.00 0.00 0.00 0.00 0.00 0.00 0.00 0.00 0.00 0.00 0.00 0.00 0.00 0.00 0.00 0.00 0.00 0.00 0.00 0.00 0.00 0.00 0.01
0.13 0.14 0.16 0.11 0.05 0.03 0.03 0.09 0.14 0.04 0.03 0.02 0.04 0.01 0.02 0.01 0.02 0.02 0.02 0.01 0.00 0.00 0.00 0.00 0.00 0.00 0.00 0.00 0.00 0.00 0.00 0.00 0.00 0.00 0.00 0.00 0.00 0.00 0.00 0.00 0.00 0.00 0.00 0.00 0.00 0.00 0.00 0.00 0.00 0.00 0.01 0.01 0.01 0.00
0.19 0.12 0.07 0.05 0.02 0.02 0.01 0.01 0.02 0.01 0.01 0.02 0.03 0.03 0.02 0.02 0.02 0.02 0.04 0.05 0.02 0.02 0.01 0.02 0.02 0.01 0.01 0.00 0.01 0.01 0.00 0.00 0.00 0.00 0.00 0.00 0.00 0.00 0.00 0.00 0.00 0.00 0.00 0.00 0.00 0.00 0.00 0.01 0.01 0.01 0.01 0.01 0.00 0.00
0.14 0.11 0.04 0.02 0.02 0.04 0.02 0.01 0.01 0.00 0.00 0.00 0.02 0.03 0.03 0.02 0.02 0.03 0.03 0.07 0.08 0.04 0.03 0.03 0.02 0.02 0.01 0.01 0.01 0.01 0.02 0.01 0.00 0.00 0.00 0.00 0.00 0.00 0.00 0.00 0.00 0.00 0.00 0.00 0.00 0.00 0.00 0.00 0.01 0.01 0.01 0.01 0.02 0.01
0.07 0.07 0.08 0.12 0.13 0.09 0.09 0.07 0.03 0.02 0.01 0.01 0.03 0.03 0.02 0.01 0.04 0.06 0.05 0.06 0.16 0.09 0.07 0.05 0.02 0.01 0.00 0.00 0.01 0.03 0.03 0.02 0.01 0.01 0.00 0.00 0.01 0.01 0.00 0.00 0.00 0.00 0.00 0.00 0.00 0.00 0.00 0.00 0.00 0.00 0.01 0.01 0.00 0.00
0.08 0.09 0.11 0.15 0.18 0.16 0.13 0.10 0.07 0.04 0.03 0.08 0.08 0.05 0.03 0.02 0.06 0.06 0.04 0.12 0.11 0.05 0.04 0.05 0.09 0.03 0.02 0.02 0.04 0.04 0.04 0.03 0.02 0.02 0.02 0.02 0.03 0.04 0.02 0.00 0.00 0.00 0.00 0.00 0.00 0.00 0.00 0.00 0.00 0.00 0.00 0.00 0.00 0.00
0.09 0.11 0.13 0.11 0.12 0.09 0.06 0.06 0.05 0.04 0.04 0.06 0.05 0.03 0.03 0.04 0.08 0.08 0.08 0.10 0.09 0.06 0.04 0.04 0.06 0.05 0.06 0.05 0.06 0.07 0.06 0.04 0.03 0.03 0.02 0.02 0.02 0.02 0.01 0.00 0.00 0.00 0.00 0.00 0.00 0.00 0.00 0.00 0.00 0.00 0.00 0.00 0.00 0.00
0.18 0.20 0.17 0.13 0.12 0.08 0.09 0.09 0.08 0.05 0.06 0.06 0.06 0.06 0.06 0.07 0.09 0.07 0.08 0.16 0.16 0.04 0.03 0.07 0.10 0.10 0.09 0.08 0.06 0.04 0.04 0.02 0.00 0.00 0.00 0.01 0.01 0.00 0.00 0.00 0.00 0.00 0.00 0.00 0.00 0.00 0.00 0.00 0.00 0.00 0.00 0.00 0.00 0.00
0.19 0.19 0.15 0.12 0.11 0.10 0.12 0.12 0.09 0.06 0.06 0.05 0.06 0.06 0.08 0.09 0.08 0.09 0.11 0.15 0.17 0.10 0.10 0.08 0.08 0.11 0.09 0.06 0.03 0.01 0.00 0.00 0.00 0.00 0.00 0.00 0.00 0.00 0.00 0.00 0.00 0.00 0.00 0.00 0.00 0.00 0.00 0.00 0.00 0.00 0.00 0.00 0.00 0.00
0.09 0.08 0.08 0.07 0.07 0.08 0.08 0.09 0.07 0.07 0.06 0.06 0.07 0.08 0.08 0.06 0.06 0.09 0.11 0.17 0.20 0.12 0.10 0.09 0.08 0.08 0.06 0.02 0.01 0.01 0.01 0.01 0.00 0.00 0.00 0.00 0.00 0.00 0.00 0.00 0.00 0.00 0.00 0.00 0.00 0.00 0.00 0.00 0.00 0.00 0.00 0.00 0.00 0.00

GFSWCAN_prec_precacc24_132.txt.gz
Total_Precipitation_Accumulation
0.34 0.37 0.37 0.39 0.25 0.20 0.14 0.12 0.08 0.02 0.01 0.05 0.07 0.06 0.02 0.01 0.00 0.00 0.02 0.02 0.03 0.03 0.01 0.00 0.00 0.00 0.00 0.00 0.00 0.00 0.00 0.00 0.00 0.00 0.00 0.00 0.00 0.02 0.09 0.02 0.01 0.01 0.05 0.05 0.09 0.07 0.09 0.02 0.03 0.06 0.10 0.07 0.04 0.03
0.40 0.36 0.35 0.42 0.27 0.20 0.14 0.14 0.08 0.01 0.01 0.02 0.03 0.02 0.01 0.00 0.00 0.00 0.04 0.04 0.01 0.00 0.01 0.00 0.00 0.00 0.00 0.00 0.00 0.00 0.00 0.01 0.00 0.00 0.00 0.00 0.00 0.01 0.01 0.11 0.00 0.01 0.00 0.03 0.05 0.07 0.08 0.05 0.06 0.05 0.01 0.02 0.01 0.00
0.52 0.41 0.32 0.38 0.26 0.18 0.16 0.17 0.08 0.03 0.02 0.02 0.01 0.01 0.00 0.00 0.00 0.00 0.02 0.00 0.00 0.00 0.00 0.00 0.00 0.00 0.00 0.00 0.00 0.00 0.01 0.00 0.01 0.00 0.00 0.01 0.01 0.01 0.01 0.03 0.02 0.01 0.00 0.01 0.03 0.08 0.04 0.02 0.01 0.00 0.00 0.00 0.00 0.00
0.56 0.50 0.32 0.28 0.23 0.13 0.17 0.19 0.07 0.03 0.02 0.02 0.01 0.01 0.00 0.00 0.00 0.02 0.01 0.00 0.00 0.00 0.00 0.01 0.00 0.00 0.00 0.00 0.00 0.00 0.00 0.00 0.00 0.00 0.00 0.00 0.01 0.01 0.01 0.02 0.01 0.01 0.00 0.00 0.04 0.06 0.03 0.02 0.01 0.00 0.00 0.00 0.00 0.00
0.59 0.49 0.30 0.18 0.19 0.11 0.18 0.17 0.06 0.04 0.03 0.03 0.02 0.01 0.00 0.00 0.00 0.00 0.00 0.00 0.00 0.01 0.02 0.02 0.01 0.00 0.00 0.00 0.00 0.00 0.00 0.00 0.00 0.00 0.01 0.00 0.01 0.00 0.00 0.03 0.02 0.00 0.00 0.01 0.02 0.01 0.01 0.02 0.00 0.00 0.00 0.00 0.00 0.00
0.61 0.45 0.27 0.16 0.17 0.12 0.16 0.15 0.05 0.04 0.04 0.04 0.03 0.01 0.00 0.00 0.00 0.01 0.01 0.00 0.00 0.01 0.01 0.02 0.03 0.03 0.00 0.00 0.00 0.00 0.00 0.00 0.00 0.00 0.00 0.00 0.01 0.00 0.01 0.03 0.02 0.00 0.00 0.00 0.00 0.00 0.00 0.00 0.00 0.00 0.00 0.00 0.00 0.00
0.60 0.35 0.24 0.17 0.16 0.11 0.15 0.10 0.05 0.06 0.06 0.05 0.02 0.00 0.00 0.01 0.01 0.01 0.04 0.09 0.02 0.00 0.00 0.01 0.03 0.02 0.00 0.00 0.00 0.00 0.00 0.00 0.00 0.00 0.00 0.00 0.01 0.01 0.01 0.01 0.00 0.00 0.00 0.00 0.00 0.00 0.01 0.00 0.00 0.00 0.00 0.00 0.00 0.00
0.48 0.23 0.20 0.14 0.13 0.12 0.11 0.05 0.05 0.09 0.08 0.04 0.01 0.00 0.02 0.03 0.01 0.00 0.04 0.06 0.02 0.00 0.00 0.01 0.04 0.02 0.00 0.00 0.00 0.00 0.00 0.00 0.00 0.00 0.00 0.00 0.00 0.00 0.00 0.00 0.00 0.00 0.00 0.00 0.00 0.00 0.00 0.00 0.00 0.00 0.00 0.00 0.00 0.00
0.32 0.21 0.14 0.10 0.11 0.11 0.06 0.03 0.09 0.10 0.07 0.03 0.00 0.02 0.03 0.02 0.03 0.01 0.04 0.05 0.03 0.03 0.02 0.01 0.02 0.03 0.00 0.01 0.00 0.00 0.00 0.00 0.00 0.00 0.00 0.00 0.01 0.01 0.00 0.00 0.00 0.00 0.00 0.00 0.00 0.00 0.00 0.00 0.00 0.00 0.00 0.00 0.00 0.00
0.25 0.20 0.09 0.08 0.09 0.09 0.04 0.07 0.12 0.07 0.06 0.02 0.02 0.03 0.04 0.01 0.05 0.13 0.09 0.09 0.09 0.06 0.01 0.01 0.01 0.02 0.00 0.00 0.00 0.00 0.00 0.00 0.01 0.01 0.00 0.00 0.01 0.00 0.00 0.00 0.00 0.00 0.00 0.00 0.00 0.00 0.00 0.00 0.00 0.00 0.00 0.00 0.00 0.00
0.29 0.16 0.08 0.08 0.09 0.05 0.05 0.13 0.08 0.08 0.05 0.02 0.02 0.03 0.03 0.06 0.09 0.13 0.10 0.11 0.08 0.02 0.00 0.00 0.00 0.01 0.00 0.00 0.00 0.00 0.01 0.01 0.01 0.01 0.01 0.00 0.01 0.00 0.00 0.00 0.00 0.00 0.00 0.00 0.00 0.00 0.00 0.00 0.00 0.00 0.00 0.00 0.00 0.00
0.27 0.12 0.09 0.08 0.06 0.03 0.06 0.07 0.04 0.02 0.02 0.01 0.04 0.14 0.28 0.16 0.11 0.19 0.10 0.05 0.01 0.00 0.00 0.00 0.00 0.02 0.02 0.02 0.03 0.01 0.01 0.00 0.01 0.02 0.01 0.00 0.01 0.00 0.00 0.00 0.00 0.00 0.00 0.00 0.00 0.00 0.00 0.00 0.00 0.00 0.00 0.00 0.00 0.00
0.21 0.10 0.08 0.07 0.06 0.04 0.04 0.02 0.00 0.04 0.05 0.05 0.12 0.20 0.22 0.08 0.08 0.06 0.08 0.02 0.00 0.00 0.00 0.00 0.01 0.02 0.01 0.01 0.01 0.00 0.00 0.00 0.01 0.01 0.01 0.00 0.00 0.00 0.00 0.00 0.00 0.00 0.00 0.00 0.00 0.00 0.00 0.00 0.00 0.00 0.00 0.00 0.00 0.00
0.19 0.09 0.08 0.08 0.07 0.05 0.04 0.04 0.05 0.05 0.02 0.03 0.12 0.14 0.05 0.03 0.01 0.01 0.01 0.00 0.00 0.00 0.00 0.01 0.00 0.00 0.01 0.00 0.00 0.00 0.00 0.01 0.01 0.00 0.01 0.00 0.00 0.00 0.00 0.00 0.00 0.00 0.00 0.00 0.00 0.00 0.00 0.00 0.00 0.00 0.00 0.00 0.00 0.00
0.16 0.08 0.09 0.10 0.09 0.07 0.06 0.04 0.01 0.04 0.03 0.04 0.12 0.09 0.02 0.03 0.01 0.02 0.03 0.01 0.00 0.01 0.01 0.00 0.00 0.00 0.00 0.00 0.00 0.00 0.01 0.01 0.00 0.01 0.02 0.00 0.00 0.00 0.00 0.00 0.00 0.00 0.00 0.00 0.00 0.00 0.00 0.00 0.00 0.00 0.00 0.00 0.00 0.00
0.16 0.14 0.08 0.10 0.14 0.11 0.06 0.04 0.02 0.06 0.02 0.02 0.03 0.10 0.09 0.04 0.03 0.02 0.05 0.09 0.04 0.02 0.02 0.01 0.00 0.00 0.00 0.00 0.00 0.00 0.00 0.00 0.01 0.01 0.00 0.00 0.00 0.00 0.00 0.00 0.00 0.00 0.00 0.00 0.00 0.00 0.00 0.00 0.00 0.00 0.00 0.00 0.00 0.00
0.09 0.13 0.14 0.15 0.13 0.09 0.04 0.00 0.02 0.04 0.01 0.01 0.03 0.07 0.10 0.08 0.05 0.03 0.02 0.09 0.13 0.06 0.01 0.01 0.01 0.00 0.00 0.01 0.00 0.00 0.01 0.01 0.00 0.00 0.00 0.00 0.00 0.00 0.00 0.00 0.00 0.00 0.00 0.00 0.00 0.00 0.00 0.00 0.00 0.00 0.00 0.00 0.00 0.00
0.02 0.07 0.09 0.13 0.09 0.04 0.01 0.00 0.02 0.01 0.01 0.02 0.04 0.06 0.06 0.05 0.05 0.02 0.03 0.05 0.12 0.06 0.03 0.02 0.05 0.02 0.01 0.00 0.01 0.00 0.00 0.00 0.00 0.00 0.00 0.00 0.00 0.00 0.00 0.00 0.00 0.00 0.00 0.00 0.00 0.00 0.00 0.00 0.00 0.00 0.00 0.00 0.00 0.00
0.05 0.08 0.11 0.10 0.03 0.01 0.01 0.00 0.02 0.04 0.01 0.01 0.03 0.03 0.03 0.02 0.02 0.02 0.01 0.02 0.12 0.08 0.03 0.01 0.02 0.02 0.02 0.02 0.02 0.01 0.00 0.00 0.01 0.01 0.00 0.00 0.00 0.00 0.00 0.00 0.00 0.00 0.00 0.00 0.00 0.00 0.00 0.00 0.00 0.00 0.00 0.00 0.00 0.00
0.10 0.05 0.02 0.01 0.03 0.04 0.02 0.01 0.00 0.03 0.02 0.01 0.01 0.01 0.01 0.01 0.02 0.02 0.01 0.02 0.07 0.22 0.20 0.05 0.03 0.02 0.01 0.00 0.01 0.00 0.00 0.00 0.00 0.01 0.01 0.01 0.00 0.00 0.00 0.00 0.00 0.00 0.00 0.00 0.00 0.00 0.00 0.00 0.00 0.00 0.00 0.00 0.00 0.00
0.21 0.16 0.10 0.03 0.04 0.11 0.05 0.01 0.00 0.00 0.00 0.00 0.00 0.00 0.00 0.01 0.03 0.02 0.01 0.01 0.09 0.11 0.14 0.04 0.00 0.00 0.00 0.00 0.00 0.00 0.00 0.00 0.00 0.00 0.00 0.01 0.00 0.00 0.00 0.00 0.00 0.00 0.00 0.00 0.00 0.00 0.00 0.00 0.00 0.00 0.00 0.00 0.00 0.00
0.23 0.29 0.24 0.04 0.09 0.06 0.06 0.02 0.01 0.00 0.00 0.00 0.01 0.01 0.01 0.02 0.01 0.01 0.00 0.03 0.06 0.02 0.00 0.00 0.00 0.00 0.00 0.00 0.00 0.00 0.00 0.00 0.00 0.00 0.00 0.00 0.00 0.00 0.00 0.00 0.00 0.00 0.00 0.00 0.00 0.00 0.00 0.00 0.00 0.00 0.00 0.00 0.00 0.01
0.07 0.06 0.05 0.03 0.08 0.05 0.10 0.07 0.05 0.01 0.00 0.01 0.03 0.02 0.02 0.02 0.00 0.00 0.01 0.02 0.01 0.00 0.00 0.00 0.00 0.00 0.00 0.00 0.00 0.00 0.00 0.00 0.00 0.00 0.00 0.00 0.00 0.00 0.00 0.00 0.00 0.00 0.00 0.00 0.00 0.01 0.00 0.00 0.00 0.00 0.01 0.01 0.01 0.02
0.03 0.12 0.12 0.08 0.06 0.04 0.09 0.19 0.12 0.05 0.04 0.03 0.04 0.02 0.02 0.01 0.02 0.01 0.02 0.01 0.00 0.00 0.00 0.00 0.00 0.00 0.00 0.00 0.00 0.00 0.00 0.00 0.00 0.00 0.00 0.00 0.00 0.00 0.00 0.00 0.00 0.00 0.00 0.00 0.00 0.01 0.01 0.01 0.00 0.01 0.01 0.01 0.02 0.02
0.11 0.12 0.16 0.11 0.05 0.04 0.04 0.09 0.15 0.04 0.03 0.02 0.04 0.01 0.02 0.02 0.02 0.02 0.01 0.01 0.00 0.01 0.00 0.00 0.00 0.00 0.00 0.00 0.00 0.00 0.00 0.00 0.00 0.00 0.00 0.00 0.00 0.00 0.00 0.00 0.00 0.00 0.00 0.01 0.02 0.02 0.02 0.01 0.01 0.02 0.01 0.02 0.02 0.03
0.16 0.10 0.07 0.05 0.02 0.01 0.01 0.02 0.03 0.01 0.01 0.03 0.03 0.03 0.02 0.02 0.02 0.02 0.04 0.05 0.03 0.02 0.02 0.02 0.02 0.02 0.02 0.01 0.01 0.01 0.01 0.00 0.00 0.00 0.00 0.00 0.00 0.01 0.01 0.01 0.01 0.01 0.01 0.02 0.01 0.01 0.01 0.01 0.02 0.02 0.03 0.03 0.01 0.01
0.13 0.10 0.04 0.02 0.02 0.04 0.02 0.02 0.02 0.01 0.01 0.02 0.03 0.03 0.03 0.02 0.02 0.03 0.03 0.05 0.07 0.04 0.03 0.03 0.02 0.02 0.02 0.01 0.01 0.02 0.02 0.01 0.01 0.01 0.00 0.00 0.00 0.00 0.02 0.03 0.03 0.01 0.00 0.01 0.02 0.01 0.01 0.02 0.03 0.03 0.02 0.03 0.03 0.02
0.07 0.06 0.08 0.12 0.14 0.09 0.09 0.07 0.04 0.03 0.04 0.04 0.05 0.04 0.04 0.03 0.05 0.06 0.05 0.06 0.12 0.07 0.06 0.05 0.03 0.01 0.01 0.01 0.02 0.03 0.03 0.03 0.02 0.01 0.00 0.01 0.01 0.01 0.01 0.01 0.01 0.01 0.01 0.02 0.03 0.03 0.03 0.02 0.02 0.01 0.01 0.01 0.01 0.01
0.08 0.09 0.11 0.15 0.18 0.17 0.13 0.11 0.10 0.05 0.03 0.07 0.11 0.10 0.04 0.02 0.06 0.06 0.04 0.09 0.09 0.05 0.05 0.05 0.08 0.04 0.03 0.03 0.04 0.06 0.05 0.05 0.05 0.05 0.05 0.04 0.05 0.07 0.05 0.03 0.02 0.01 0.01 0.01 0.01 0.01 0.00 0.00 0.00 0.00 0.00 0.00 0.00 0.00
0.10 0.11 0.13 0.11 0.12 0.09 0.07 0.05 0.04 0.04 0.04 0.07 0.05 0.03 0.03 0.04 0.07 0.06 0.06 0.06 0.06 0.05 0.04 0.05 0.07 0.06 0.08 0.07 0.08 0.08 0.07 0.04 0.04 0.06 0.06 0.04 0.04 0.05 0.04 0.03 0.01 0.00 0.00 0.00 0.00 0.00 0.00 0.00 0.00 0.00 0.00 0.00 0.00 0.00
0.18 0.21 0.18 0.14 0.12 0.08 0.08 0.08 0.07 0.05 0.06 0.06 0.06 0.07 0.08 0.07 0.08 0.07 0.07 0.10 0.10 0.03 0.04 0.07 0.10 0.12 0.12 0.12 0.10 0.07 0.06 0.04 0.02 0.02 0.02 0.02 0.03 0.03 0.01 0.00 0.00 0.00 0.00 0.00 0.00 0.00 0.00 0.00 0.00 0.00 0.00 0.00 0.00 0.00
0.22 0.22 0.18 0.14 0.12 0.10 0.11 0.12 0.09 0.06 0.06 0.06 0.07 0.07 0.09 0.09 0.10 0.08 0.10 0.11 0.13 0.08 0.09 0.09 0.09 0.13 0.12 0.09 0.07 0.05 0.03 0.03 0.03 0.03 0.02 0.02 0.01 0.00 0.00 0.00 0.00 0.00 0.00 0.00 0.00 0.00 0.00 0.00 0.00 0.00 0.00 0.00 0.00 0.00
0.12 0.11 0.11 0.10 0.09 0.09 0.09 0.11 0.09 0.08 0.06 0.06 0.08 0.08 0.08 0.07 0.08 0.08 0.11 0.17 0.17 0.11 0.10 0.11 0.12 0.12 0.10 0.06 0.05 0.04 0.03 0.03 0.02 0.01 0.01 0.00 0.00 0.00 0.00 0.00 0.00 0.00 0.00 0.00 0.00 0.00 0.00 0.00 0.00 0.00 0.00 0.00 0.00 0.00

GFSWCAN_prec_precacc24_135.txt.gz
Total_Precipitation_Accumulation
0.28 0.36 0.37 0.40 0.37 0.29 0.14 0.12 0.06 0.01 0.02 0.09 0.13 0.12 0.06 0.08 0.04 0.02 0.04 0.05 0.09 0.06 0.03 0.00 0.00 0.01 0.01 0.01 0.01 0.00 0.00 0.00 0.00 0.00 0.00 0.00 0.00 0.01 0.04 0.02 0.01 0.01 0.02 0.06 0.09 0.07 0.10 0.02 0.03 0.05 0.08 0.05 0.03 0.02
0.29 0.33 0.35 0.44 0.39 0.30 0.14 0.14 0.08 0.01 0.01 0.04 0.07 0.06 0.05 0.03 0.01 0.02 0.12 0.13 0.08 0.02 0.06 0.01 0.01 0.00 0.00 0.00 0.00 0.00 0.00 0.00 0.00 0.00 0.00 0.00 0.00 0.01 0.01 0.02 0.00 0.00 0.00 0.03 0.05 0.06 0.06 0.04 0.05 0.04 0.00 0.01 0.01 0.00
0.39 0.35 0.31 0.45 0.39 0.21 0.16 0.17 0.08 0.02 0.01 0.03 0.04 0.03 0.01 0.00 0.00 0.06 0.15 0.10 0.01 0.00 0.02 0.01 0.00 0.00 0.00 0.00 0.00 0.00 0.00 0.00 0.00 0.00 0.00 0.00 0.01 0.00 0.01 0.02 0.01 0.00 0.00 0.00 0.02 0.07 0.03 0.02 0.01 0.00 0.00 0.00 0.00 0.00
0.48 0.44 0.33 0.43 0.38 0.15 0.18 0.19 0.07 0.03 0.02 0.03 0.04 0.02 0.00 0.00 0.01 0.04 0.07 0.03 0.00 0.00 0.02 0.02 0.00 0.00 0.00 0.00 0.00 0.00 0.00 0.00 0.00 0.00 0.00 0.00 0.00 0.00 0.01 0.01 0.01 0.01 0.00 0.00 0.03 0.05 0.02 0.02 0.01 0.00 0.00 0.00 0.00 0.00
0.56 0.48 0.38 0.36 0.32 0.13 0.19 0.18 0.06 0.04 0.04 0.02 0.03 0.01 0.00 0.00 0.05 0.05 0.01 0.00 0.00 0.00 0.01 0.01 0.00 0.00 0.00 0.00 0.00 0.00 0.00 0.00 0.00 0.00 0.00 0.00 0.00 0.00 0.00 0.00 0.01 0.00 0.00 0.00 0.01 0.00 0.00 0.02 0.00 0.00 0.00 0.00 0.00 0.00
0.61 0.49 0.41 0.31 0.25 0.13 0.17 0.15 0.05 0.04 0.04 0.03 0.02 0.01 0.00 0.00 0.03 0.02 0.01 0.00 0.00 0.00 0.00 0.01 0.01 0.01 0.00 0.00 0.00 0.00 0.00 0.00 0.00 0.00 0.00 0.00 0.00 0.00 0.00 0.01 0.00 0.00 0.00 0.00 0.00 0.00 0.00 0.00 0.00 0.00 0.00 0.00 0.00 0.00
0.61 0.47 0.39 0.24 0.20 0.11 0.15 0.09 0.05 0.05 0.06 0.04 0.01 0.00 0.00 0.00 0.00 0.00 0.02 0.04 0.00 0.00 0.00 0.01 0.02 0.01 0.00 0.00 0.00 0.00 0.00 0.00 0.00 0.00 0.00 0.00 0.00 0.00 0.00 0.01 0.00 0.00 0.00 0.00 0.00 0.00 0.00 0.00 0.00 0.00 0.00 0.00 0.00 0.00
0.56 0.41 0.28 0.20 0.14 0.11 0.11 0.04 0.05 0.09 0.06 0.03 0.01 0.00 0.01 0.01 0.00 0.00 0.03 0.03 0.01 0.01 0.00 0.01 0.04 0.02 0.00 0.00 0.00 0.00 0.00 0.00 0.00 0.00 0.00 0.00 0.00 0.00 0.00 0.00 0.00 0.00 0.00 0.00 0.00 0.00 0.00 0.00 0.00 0.00 0.00 0.00 0.00 0.00
0.50 0.31 0.18 0.15 0.12 0.11 0.06 0.03 0.09 0.09 0.05 0.02 0.00 0.01 0.00 0.00 0.00 0.00 0.04 0.04 0.01 0.01 0.01 0.01 0.01 0.02 0.00 0.00 0.00 0.00 0.00 0.00 0.00 0.00 0.00 0.00 0.00 0.00 0.00 0.00 0.00 0.00 0.00 0.00 0.00 0.00 0.00 0.00 0.00 0.00 0.00 0.00 0.00 0.00
0.35 0.20 0.10 0.11 0.11 0.09 0.04 0.07 0.11 0.06 0.04 0.01 0.00 0.00 0.01 0.00 0.01 0.04 0.03 0.01 0.01 0.03 0.01 0.01 0.00 0.01 0.00 0.00 0.00 0.00 0.00 0.00 0.00 0.00 0.00 0.00 0.00 0.00 0.00 0.00 0.00 0.00 0.00 0.00 0.00 0.00 0.00 0.00 0.00 0.00 0.00 0.00 0.00 0.00
0.28 0.14 0.08 0.09 0.09 0.05 0.05 0.13 0.07 0.06 0.03 0.00 0.00 0.02 0.02 0.04 0.07 0.06 0.03 0.03 0.02 0.01 0.00 0.01 0.00 0.00 0.00 0.00 0.00 0.00 0.00 0.00 0.00 0.00 0.00 0.00 0.01 0.00 0.00 0.00 0.00 0.00 0.00 0.00 0.00 0.00 0.00 0.00 0.00 0.00 0.00 0.00 0.00 0.00
0.27 0.11 0.07 0.06 0.05 0.04 0.08 0.07 0.03 0.01 0.00 0.00 0.03 0.10 0.15 0.10 0.06 0.07 0.04 0.02 0.00 0.00 0.00 0.01 0.00 0.00 0.00 0.00 0.00 0.00 0.00 0.00 0.01 0.00 0.01 0.00 0.00 0.00 0.00 0.00 0.00 0.00 0.00 0.00 0.00 0.00 0.00 0.00 0.00 0.00 0.00 0.00 0.00 0.00
0.22 0.10 0.07 0.06 0.06 0.06 0.05 0.03 0.00 0.02 0.01 0.04 0.10 0.11 0.10 0.05 0.04 0.03 0.04 0.01 0.00 0.00 0.00 0.00 0.00 0.00 0.00 0.00 0.00 0.00 0.00 0.00 0.00 0.00 0.00 0.00 0.00 0.00 0.00 0.00 0.00 0.00 0.00 0.00 0.00 0.00 0.00 0.00 0.00 0.00 0.00 0.00 0.00 0.00
0.19 0.09 0.08 0.07 0.05 0.04 0.04 0.04 0.04 0.02 0.01 0.02 0.03 0.06 0.03 0.01 0.01 0.01 0.01 0.00 0.00 0.00 0.00 0.01 0.01 0.00 0.00 0.00 0.00 0.00 0.00 0.00 0.00 0.00 0.00 0.00 0.00 0.00 0.00 0.00 0.00 0.00 0.00 0.00 0.00 0.00 0.00 0.00 0.00 0.00 0.00 0.00 0.00 0.00
0.16 0.08 0.09 0.08 0.06 0.04 0.06 0.03 0.01 0.00 0.01 0.02 0.05 0.02 0.01 0.01 0.01 0.00 0.01 0.01 0.00 0.01 0.01 0.01 0.00 0.00 0.00 0.00 0.00 0.00 0.01 0.01 0.00 0.01 0.02 0.00 0.00 0.00 0.00 0.00 0.00 0.00 0.00 0.00 0.00 0.00 0.00 0.00 0.00 0.00 0.00 0.00 0.00 0.00
0.17 0.14 0.07 0.08 0.10 0.08 0.03 0.01 0.00 0.02 0.00 0.01 0.02 0.08 0.06 0.04 0.03 0.02 0.03 0.04 0.03 0.03 0.02 0.01 0.00 0.00 0.00 0.00 0.00 0.00 0.00 0.00 0.00 0.01 0.00 0.00 0.00 0.00 0.00 0.00 0.00 0.00 0.00 0.00 0.00 0.00 0.00 0.00 0.00 0.00 0.00 0.00 0.00 0.00
0.09 0.13 0.13 0.12 0.09 0.04 0.01 0.00 0.00 0.01 0.00 0.01 0.03 0.07 0.10 0.07 0.05 0.03 0.02 0.04 0.07 0.06 0.02 0.00 0.00 0.00 0.00 0.00 0.00 0.00 0.01 0.01 0.00 0.00 0.00 0.00 0.00 0.00 0.00 0.00 0.00 0.00 0.00 0.00 0.00 0.00 0.00 0.00 0.00 0.00 0.00 0.00 0.00 0.00
0.01 0.05 0.08 0.10 0.05 0.01 0.00 0.00 0.00 0.00 0.01 0.03 0.05 0.06 0.07 0.04 0.04 0.02 0.03 0.04 0.07 0.06 0.01 0.01 0.00 0.00 0.00 0.00 0.00 0.00 0.00 0.00 0.00 0.00 0.00 0.00 0.00 0.00 0.00 0.00 0.00 0.00 0.00 0.00 0.00 0.00 0.00 0.00 0.00 0.00 0.00 0.00 0.00 0.00
0.01 0.04 0.09 0.07 0.01 0.00 0.00 0.00 0.01 0.02 0.02 0.02 0.04 0.03 0.04 0.02 0.02 0.02 0.01 0.02 0.11 0.07 0.03 0.01 0.01 0.01 0.01 0.03 0.01 0.01 0.00 0.00 0.00 0.00 0.00 0.00 0.00 0.00 0.00 0.00 0.00 0.00 0.00 0.00 0.00 0.00 0.00 0.00 0.00 0.00 0.00 0.00 0.00 0.00
0.06 0.03 0.01 0.01 0.01 0.01 0.01 0.00 0.00 0.02 0.03 0.02 0.02 0.01 0.01 0.02 0.02 0.02 0.01 0.02 0.08 0.25 0.24 0.05 0.04 0.03 0.01 0.00 0.01 0.00 0.00 0.00 0.00 0.00 0.01 0.00 0.00 0.00 0.00 0.00 0.00 0.00 0.00 0.00 0.00 0.00 0.00 0.00 0.00 0.00 0.00 0.00 0.00 0.00
0.16 0.11 0.08 0.02 0.01 0.01 0.01 0.00 0.00 0.00 0.00 0.00 0.00 0.00 0.01 0.02 0.04 0.03 0.01 0.01 0.09 0.15 0.16 0.05 0.01 0.00 0.00 0.00 0.00 0.00 0.00 0.00 0.00 0.00 0.00 0.01 0.00 0.00 0.00 0.00 0.00 0.00 0.00 0.00 0.00 0.00 0.00 0.00 0.00 0.00 0.00 0.00 0.00 0.00
0.20 0.26 0.19 0.02 0.04 0.03 0.03 0.01 0.01 0.00 0.00 0.00 0.00 0.00 0.01 0.02 0.01 0.01 0.00 0.02 0.08 0.04 0.01 0.00 0.00 0.00 0.00 0.00 0.00 0.00 0.00 0.00 0.00 0.00 0.00 0.00 0.00 0.00 0.00 0.00 0.00 0.00 0.00 0.00 0.00 0.00 0.00 0.00 0.00 0.00 0.00 0.00 0.01 0.01
0.05 0.03 0.00 0.00 0.01 0.02 0.02 0.05 0.04 0.00 0.00 0.00 0.02 0.01 0.01 0.01 0.00 0.00 0.01 0.02 0.02 0.01 0.00 0.00 0.00 0.00 0.00 0.00 0.00 0.00 0.00 0.00 0.00 0.00 0.00 0.00 0.00 0.00 0.00 0.00 0.00 0.00 0.00 0.00 0.00 0.01 0.01 0.00 0.00 0.00 0.01 0.01 0.03 0.03
0.00 0.02 0.00 0.00 0.01 0.02 0.04 0.11 0.08 0.03 0.02 0.01 0.01 0.01 0.01 0.01 0.02 0.01 0.01 0.01 0.00 0.00 0.00 0.00 0.00 0.00 0.00 0.00 0.00 0.00 0.00 0.00 0.00 0.00 0.00 0.00 0.00 0.00 0.00 0.00 0.00 0.00 0.01 0.01 0.01 0.03 0.02 0.01 0.01 0.02 0.02 0.02 0.04 0.03
0.02 0.02 0.02 0.01 0.01 0.01 0.02 0.07 0.12 0.04 0.02 0.01 0.03 0.01 0.02 0.02 0.02 0.01 0.01 0.02 0.01 0.01 0.00 0.00 0.00 0.00 0.00 0.01 0.01 0.00 0.00 0.00 0.00 0.00 0.00 0.00 0.00 0.00 0.00 0.00 0.00 0.00 0.01 0.02 0.03 0.03 0.03 0.02 0.03 0.04 0.03 0.04 0.04 0.05
0.04 0.03 0.02 0.02 0.01 0.00 0.01 0.03 0.03 0.01 0.01 0.03 0.03 0.03 0.02 0.02 0.02 0.01 0.03 0.04 0.03 0.03 0.02 0.02 0.02 0.02 0.02 0.01 0.02 0.02 0.01 0.00 0.01 0.00 0.00 0.00 0.00 0.02 0.02 0.01 0.01 0.01 0.02 0.03 0.02 0.02 0.01 0.02 0.04 0.03 0.06 0.06 0.03 0.02
0.09 0.07 0.04 0.02 0.02 0.03 0.02 0.02 0.02 0.02 0.01 0.03 0.03 0.03 0.03 0.02 0.02 0.03 0.03 0.04 0.05 0.04 0.03 0.03 0.03 0.03 0.03 0.01 0.01 0.02 0.02 0.01 0.02 0.01 0.00 0.00 0.00 0.01 0.03 0.05 0.04 0.02 0.01 0.01 0.02 0.02 0.02 0.04 0.04 0.04 0.04 0.06 0.05 0.02
0.05 0.05 0.05 0.11 0.13 0.09 0.08 0.07 0.04 0.03 0.05 0.08 0.06 0.04 0.04 0.03 0.06 0.05 0.06 0.05 0.08 0.06 0.05 0.04 0.02 0.02 0.01 0.01 0.02 0.03 0.04 0.03 0.02 0.01 0.00 0.01 0.02 0.02 0.02 0.02 0.02 0.01 0.01 0.03 0.05 0.05 0.04 0.03 0.02 0.02 0.02 0.02 0.02 0.01
0.05 0.07 0.10 0.14 0.18 0.17 0.13 0.11 0.11 0.05 0.03 0.07 0.10 0.12 0.04 0.02 0.05 0.06 0.04 0.05 0.06 0.04 0.05 0.05 0.07 0.04 0.03 0.03 0.05 0.07 0.07 0.07 0.07 0.06 0.05 0.05 0.06 0.09 0.06 0.03 0.02 0.02 0.01 0.01 0.01 0.01 0.01 0.00 0.00 0.00 0.00 0.00 0.00 0.00
0.09 0.10 0.13 0.11 0.12 0.09 0.07 0.05 0.04 0.03 0.04 0.07 0.05 0.03 0.03 0.04 0.06 0.05 0.05 0.05 0.05 0.05 0.04 0.05 0.07 0.08 0.09 0.07 0.08 0.07 0.07 0.05 0.04 0.08 0.08 0.04 0.05 0.06 0.05 0.03 0.02 0.01 0.00 0.00 0.00 0.00 0.00 0.00 0.00 0.00 0.00 0.00 0.00 0.00
0.18 0.21 0.18 0.14 0.13 0.08 0.08 0.08 0.07 0.05 0.06 0.06 0.05 0.08 0.09 0.07 0.09 0.07 0.06 0.07 0.06 0.04 0.06 0.08 0.09 0.12 0.13 0.14 0.11 0.08 0.06 0.06 0.03 0.03 0.02 0.02 0.03 0.03 0.02 0.00 0.00 0.00 0.00 0.00 0.00 0.00 0.00 0.00 0.00 0.00 0.00 0.00 0.00 0.00
0.23 0.24 0.20 0.16 0.14 0.10 0.10 0.10 0.08 0.06 0.06 0.06 0.07 0.07 0.08 0.09 0.11 0.08 0.09 0.11 0.12 0.06 0.08 0.09 0.08 0.12 0.13 0.11 0.08 0.05 0.04 0.05 0.04 0.04 0.03 0.02 0.02 0.01 0.00 0.00 0.00 0.00 0.00 0.00 0.00 0.00 0.00 0.00 0.00 0.00 0.00 0.00 0.00 0.00
0.13 0.12 0.13 0.12 0.10 0.10 0.10 0.11 0.09 0.08 0.06 0.07 0.09 0.08 0.08 0.08 0.09 0.08 0.10 0.15 0.13 0.11 0.10 0.11 0.11 0.12 0.11 0.08 0.06 0.05 0.05 0.05 0.04 0.02 0.01 0.00 0.00 0.00 0.00 0.00 0.00 0.00 0.00 0.00 0.00 0.00 0.00 0.00 0.00 0.00 0.00 0.00 0.00 0.00

GFSWCAN_prec_precacc24_138.txt.gz
Total_Precipitation_Accumulation
0.26 0.31 0.32 0.38 0.34 0.32 0.19 0.16 0.07 0.01 0.04 0.10 0.14 0.14 0.07 0.12 0.12 0.04 0.04 0.06 0.12 0.09 0.04 0.03 0.01 0.02 0.03 0.02 0.01 0.01 0.03 0.03 0.00 0.00 0.01 0.00 0.00 0.01 0.03 0.01 0.01 0.01 0.02 0.06 0.09 0.07 0.09 0.02 0.03 0.03 0.04 0.02 0.01 0.01
0.27 0.32 0.33 0.42 0.38 0.35 0.23 0.17 0.08 0.01 0.02 0.05 0.08 0.07 0.09 0.09 0.08 0.06 0.15 0.16 0.15 0.06 0.07 0.02 0.01 0.01 0.01 0.00 0.00 0.01 0.01 0.00 0.00 0.00 0.00 0.00 0.00 0.01 0.02 0.01 0.01 0.00 0.00 0.03 0.04 0.05 0.04 0.03 0.03 0.01 0.00 0.00 0.00 0.00
0.33 0.33 0.31 0.45 0.39 0.29 0.25 0.21 0.09 0.02 0.01 0.04 0.05 0.04 0.07 0.07 0.06 0.16 0.29 0.26 0.10 0.02 0.09 0.08 0.04 0.00 0.00 0.00 0.01 0.01 0.01 0.00 0.00 0.00 0.00 0.00 0.00 0.00 0.01 0.01 0.01 0.00 0.00 0.00 0.01 0.04 0.02 0.01 0.00 0.00 0.00 0.00 0.00 0.00
0.40 0.38 0.31 0.43 0.38 0.20 0.22 0.22 0.07 0.02 0.02 0.03 0.07 0.06 0.04 0.07 0.10 0.17 0.22 0.10 0.01 0.00 0.11 0.11 0.00 0.00 0.00 0.00 0.00 0.00 0.00 0.00 0.00 0.00 0.00 0.00 0.00 0.00 0.01 0.01 0.01 0.00 0.00 0.00 0.02 0.04 0.02 0.02 0.01 0.00 0.00 0.00 0.00 0.00
0.49 0.37 0.34 0.35 0.36 0.19 0.21 0.18 0.06 0.03 0.03 0.03 0.09 0.02 0.06 0.08 0.13 0.16 0.09 0.01 0.00 0.00 0.03 0.03 0.00 0.00 0.00 0.00 0.00 0.00 0.00 0.00 0.00 0.00 0.00 0.00 0.00 0.00 0.00 0.00 0.00 0.00 0.00 0.00 0.00 0.00 0.00 0.01 0.00 0.00 0.00 0.00 0.00 0.00
0.56 0.36 0.33 0.33 0.36 0.19 0.18 0.15 0.05 0.04 0.04 0.06 0.04 0.06 0.08 0.11 0.14 0.11 0.03 0.01 0.00 0.00 0.00 0.01 0.01 0.00 0.00 0.00 0.00 0.00 0.00 0.00 0.00 0.00 0.00 0.00 0.00 0.00 0.00 0.01 0.00 0.00 0.00 0.00 0.00 0.00 0.00 0.00 0.00 0.00 0.00 0.00 0.00 0.00
0.58 0.38 0.32 0.33 0.33 0.14 0.16 0.09 0.05 0.05 0.08 0.05 0.02 0.03 0.04 0.03 0.01 0.00 0.01 0.01 0.00 0.00 0.00 0.01 0.02 0.01 0.00 0.00 0.00 0.00 0.00 0.00 0.00 0.00 0.00 0.00 0.00 0.00 0.00 0.01 0.00 0.00 0.00 0.00 0.00 0.00 0.00 0.00 0.00 0.00 0.00 0.00 0.00 0.00
0.55 0.42 0.32 0.31 0.21 0.11 0.10 0.04 0.05 0.10 0.12 0.02 0.00 0.01 0.01 0.00 0.00 0.00 0.01 0.00 0.00 0.01 0.00 0.01 0.04 0.02 0.00 0.00 0.00 0.00 0.00 0.00 0.00 0.00 0.00 0.00 0.00 0.00 0.00 0.00 0.00 0.00 0.00 0.00 0.00 0.00 0.00 0.00 0.00 0.00 0.00 0.00 0.00 0.00
0.51 0.44 0.31 0.21 0.14 0.10 0.06 0.03 0.09 0.15 0.07 0.01 0.00 0.00 0.00 0.00 0.00 0.00 0.03 0.02 0.00 0.01 0.00 0.01 0.01 0.02 0.00 0.00 0.00 0.00 0.00 0.00 0.00 0.00 0.00 0.00 0.00 0.00 0.00 0.00 0.00 0.00 0.00 0.00 0.00 0.00 0.00 0.00 0.00 0.00 0.00 0.00 0.00 0.00
0.48 0.35 0.19 0.14 0.10 0.09 0.04 0.07 0.13 0.09 0.02 0.00 0.00 0.00 0.01 0.00 0.00 0.01 0.01 0.00 0.00 0.00 0.00 0.01 0.00 0.01 0.00 0.00 0.00 0.00 0.00 0.00 0.00 0.00 0.00 0.00 0.00 0.00 0.00 0.00 0.00 0.00 0.00 0.00 0.00 0.00 0.00 0.00 0.00 0.00 0.00 0.00 0.00 0.00
0.38 0.18 0.11 0.10 0.09 0.05 0.05 0.13 0.08 0.04 0.01 0.00 0.00 0.02 0.01 0.02 0.01 0.01 0.01 0.01 0.00 0.00 0.00 0.01 0.00 0.00 0.00 0.00 0.00 0.00 0.00 0.00 0.00 0.00 0.00 0.00 0.00 0.00 0.00 0.00 0.00 0.00 0.00 0.00 0.00 0.00 0.00 0.00 0.00 0.00 0.00 0.00 0.00 0.00
0.28 0.13 0.09 0.07 0.05 0.04 0.08 0.07 0.02 0.00 0.00 0.00 0.02 0.05 0.07 0.06 0.04 0.01 0.01 0.00 0.00 0.00 0.00 0.01 0.00 0.00 0.00 0.00 0.00 0.00 0.00 0.00 0.01 0.00 0.01 0.00 0.00 0.00 0.00 0.00 0.00 0.00 0.00 0.00 0.00 0.00 0.00 0.00 0.00 0.00 0.00 0.00 0.00 0.00
0.21 0.09 0.07 0.05 0.05 0.06 0.05 0.03 0.00 0.00 0.00 0.04 0.05 0.06 0.06 0.04 0.02 0.01 0.01 0.00 0.00 0.00 0.00 0.00 0.00 0.00 0.00 0.00 0.00 0.00 0.00 0.00 0.00 0.00 0.00 0.00 0.00 0.00 0.00 0.00 0.00 0.00 0.00 0.00 0.00 0.00 0.00 0.00 0.00 0.00 0.00 0.00 0.00 0.00
0.18 0.08 0.06 0.05 0.04 0.04 0.04 0.03 0.02 0.01 0.01 0.02 0.02 0.03 0.01 0.01 0.01 0.01 0.01 0.00 0.00 0.00 0.00 0.01 0.01 0.00 0.00 0.00 0.00 0.00 0.00 0.00 0.00 0.00 0.00 0.00 0.00 0.00 0.00 0.00 0.00 0.00 0.00 0.00 0.00 0.00 0.00 0.00 0.00 0.00 0.00 0.00 0.00 0.00
0.16 0.07 0.07 0.06 0.04 0.04 0.05 0.02 0.00 0.00 0.00 0.01 0.02 0.01 0.01 0.01 0.01 0.00 0.00 0.00 0.00 0.01 0.01 0.01 0.00 0.00 0.00 0.00 0.00 0.00 0.00 0.00 0.00 0.01 0.02 0.00 0.00 0.00 0.00 0.00 0.00 0.00 0.00 0.00 0.00 0.00 0.00 0.00 0.00 0.00 0.00 0.00 0.00 0.00
0.17 0.15 0.08 0.07 0.07 0.05 0.01 0.00 0.00 0.00 0.00 0.00 0.01 0.04 0.04 0.04 0.03 0.02 0.02 0.01 0.00 0.02 0.02 0.01 0.00 0.00 0.00 0.00 0.00 0.00 0.00 0.00 0.00 0.01 0.00 0.00 0.00 0.00 0.00 0.00 0.00 0.00 0.00 0.00 0.00 0.00 0.00 0.00 0.00 0.00 0.00 0.00 0.00 0.00
0.09 0.13 0.13 0.09 0.05 0.02 0.01 0.00 0.00 0.00 0.00 0.01 0.03 0.04 0.06 0.07 0.05 0.03 0.02 0.01 0.01 0.03 0.02 0.00 0.00 0.00 0.00 0.00 0.00 0.00 0.01 0.01 0.00 0.00 0.00 0.00 0.00 0.00 0.00 0.00 0.00 0.00 0.00 0.00 0.00 0.00 0.00 0.00 0.00 0.00 0.00 0.00 0.00 0.00
0.01 0.05 0.06 0.04 0.01 0.00 0.00 0.00 0.00 0.00 0.02 0.04 0.05 0.07 0.06 0.04 0.04 0.02 0.03 0.01 0.04 0.05 0.01 0.00 0.00 0.00 0.00 0.00 0.00 0.00 0.00 0.00 0.00 0.00 0.00 0.00 0.00 0.00 0.00 0.00 0.00 0.00 0.00 0.00 0.00 0.00 0.00 0.00 0.00 0.00 0.00 0.00 0.00 0.00
0.01 0.03 0.04 0.01 0.01 0.00 0.00 0.00 0.00 0.01 0.04 0.03 0.04 0.04 0.04 0.02 0.02 0.02 0.01 0.02 0.08 0.05 0.02 0.01 0.01 0.01 0.02 0.03 0.01 0.01 0.00 0.00 0.00 0.00 0.00 0.00 0.00 0.00 0.00 0.00 0.00 0.00 0.00 0.00 0.00 0.00 0.00 0.00 0.00 0.00 0.00 0.00 0.00 0.00
0.02 0.01 0.01 0.01 0.00 0.00 0.00 0.00 0.00 0.01 0.05 0.04 0.02 0.01 0.01 0.02 0.02 0.02 0.01 0.02 0.08 0.24 0.23 0.05 0.05 0.04 0.03 0.01 0.01 0.00 0.00 0.00 0.00 0.00 0.00 0.00 0.00 0.00 0.00 0.00 0.00 0.00 0.00 0.00 0.00 0.00 0.00 0.00 0.00 0.00 0.00 0.00 0.00 0.00
0.12 0.09 0.06 0.01 0.00 0.00 0.00 0.00 0.00 0.00 0.00 0.01 0.01 0.00 0.02 0.02 0.06 0.06 0.02 0.01 0.08 0.14 0.17 0.08 0.04 0.05 0.01 0.00 0.00 0.00 0.00 0.00 0.00 0.00 0.00 0.00 0.00 0.00 0.00 0.00 0.00 0.00 0.00 0.00 0.00 0.00 0.00 0.00 0.00 0.00 0.00 0.00 0.00 0.00
0.18 0.20 0.10 0.00 0.00 0.00 0.00 0.00 0.00 0.00 0.00 0.00 0.00 0.00 0.01 0.03 0.03 0.04 0.01 0.02 0.08 0.07 0.03 0.02 0.02 0.01 0.00 0.00 0.00 0.00 0.00 0.00 0.00 0.00 0.00 0.00 0.00 0.00 0.00 0.00 0.00 0.00 0.00 0.00 0.00 0.00 0.00 0.00 0.00 0.00 0.00 0.00 0.01 0.01
0.05 0.02 0.00 0.00 0.00 0.01 0.02 0.03 0.02 0.00 0.00 0.00 0.01 0.01 0.01 0.01 0.00 0.01 0.02 0.03 0.04 0.05 0.01 0.00 0.00 0.00 0.00 0.00 0.00 0.00 0.00 0.00 0.00 0.00 0.00 0.00 0.00 0.00 0.00 0.00 0.00 0.00 0.00 0.00 0.00 0.02 0.01 0.00 0.00 0.00 0.01 0.01 0.03 0.04
0.00 0.00 0.00 0.00 0.00 0.01 0.03 0.09 0.07 0.01 0.01 0.01 0.01 0.00 0.01 0.01 0.02 0.01 0.02 0.02 0.02 0.01 0.00 0.00 0.00 0.00 0.00 0.00 0.00 0.00 0.00 0.00 0.00 0.00 0.00 0.00 0.00 0.00 0.00 0.00 0.00 0.01 0.02 0.03 0.02 0.03 0.02 0.02 0.02 0.03 0.04 0.04 0.06 0.05
0.00 0.00 0.00 0.00 0.00 0.01 0.02 0.06 0.10 0.03 0.01 0.01 0.01 0.01 0.01 0.01 0.01 0.01 0.01 0.03 0.02 0.01 0.00 0.00 0.00 0.00 0.00 0.01 0.01 0.00 0.00 0.00 0.00 0.00 0.00 0.00 0.00 0.01 0.00 0.00 0.00 0.00 0.02 0.03 0.04 0.04 0.05 0.04 0.05 0.06 0.04 0.05 0.06 0.07
0.00 0.00 0.00 0.00 0.00 0.00 0.01 0.03 0.03 0.01 0.01 0.02 0.02 0.02 0.02 0.01 0.01 0.01 0.03 0.05 0.03 0.03 0.02 0.02 0.02 0.03 0.03 0.01 0.02 0.02 0.01 0.01 0.02 0.00 0.00 0.00 0.01 0.03 0.02 0.01 0.01 0.01 0.02 0.04 0.02 0.02 0.02 0.04 0.07 0.05 0.09 0.09 0.04 0.03
0.01 0.02 0.02 0.01 0.01 0.02 0.01 0.02 0.02 0.02 0.01 0.03 0.03 0.03 0.03 0.02 0.02 0.03 0.03 0.02 0.03 0.03 0.03 0.03 0.03 0.03 0.03 0.02 0.01 0.02 0.02 0.01 0.02 0.01 0.00 0.00 0.01 0.02 0.04 0.05 0.04 0.02 0.01 0.02 0.02 0.02 0.02 0.05 0.05 0.04 0.06 0.08 0.08 0.05
0.01 0.02 0.03 0.06 0.09 0.06 0.08 0.06 0.04 0.03 0.08 0.12 0.06 0.04 0.04 0.03 0.06 0.05 0.06 0.03 0.04 0.05 0.05 0.04 0.02 0.02 0.01 0.01 0.02 0.04 0.04 0.03 0.02 0.01 0.00 0.01 0.02 0.03 0.03 0.03 0.02 0.01 0.01 0.04 0.05 0.05 0.04 0.03 0.03 0.03 0.03 0.03 0.04 0.03
0.01 0.02 0.05 0.08 0.11 0.12 0.11 0.10 0.11 0.05 0.03 0.07 0.10 0.12 0.03 0.02 0.05 0.06 0.03 0.02 0.03 0.05 0.06 0.04 0.05 0.04 0.03 0.04 0.06 0.07 0.08 0.07 0.07 0.07 0.05 0.05 0.06 0.09 0.06 0.04 0.03 0.02 0.02 0.03 0.04 0.03 0.02 0.01 0.01 0.01 0.01 0.01 0.01 0.00
0.02 0.03 0.08 0.07 0.09 0.07 0.06 0.04 0.04 0.03 0.04 0.07 0.05 0.03 0.03 0.04 0.05 0.05 0.04 0.04 0.05 0.06 0.05 0.05 0.06 0.09 0.09 0.07 0.07 0.07 0.07 0.05 0.05 0.09 0.08 0.04 0.05 0.07 0.05 0.03 0.02 0.01 0.01 0.00 0.01 0.02 0.00 0.00 0.00 0.00 0.00 0.00 0.00 0.00
0.16 0.16 0.16 0.12 0.11 0.07 0.07 0.08 0.07 0.05 0.05 0.06 0.05 0.08 0.10 0.07 0.08 0.06 0.06 0.06 0.06 0.05 0.06 0.07 0.07 0.11 0.14 0.15 0.11 0.07 0.06 0.06 0.04 0.04 0.03 0.03 0.04 0.03 0.02 0.01 0.00 0.00 0.00 0.00 0.00 0.00 0.00 0.00 0.00 0.00 0.00 0.00 0.00 0.00
0.23 0.24 0.20 0.18 0.15 0.10 0.10 0.09 0.08 0.06 0.06 0.06 0.08 0.07 0.08 0.10 0.11 0.08 0.08 0.09 0.11 0.06 0.08 0.09 0.08 0.12 0.13 0.12 0.09 0.06 0.04 0.06 0.06 0.05 0.04 0.03 0.02 0.01 0.00 0.00 0.00 0.00 0.00 0.00 0.00 0.00 0.00 0.00 0.00 0.00 0.00 0.00 0.00 0.00
0.13 0.13 0.13 0.13 0.11 0.11 0.10 0.10 0.09 0.08 0.06 0.07 0.10 0.08 0.08 0.09 0.09 0.07 0.09 0.12 0.12 0.10 0.09 0.11 0.11 0.12 0.11 0.09 0.08 0.07 0.06 0.06 0.05 0.04 0.02 0.01 0.00 0.00 0.00 0.00 0.00 0.00 0.00 0.00 0.00 0.00 0.00 0.00 0.00 0.00 0.00 0.00 0.00 0.00

GFSWCAN_prec_precacc24_141.txt.gz
Total_Precipitation_Accumulation
0.19 0.22 0.26 0.36 0.31 0.30 0.17 0.16 0.11 0.05 0.06 0.11 0.16 0.15 0.09 0.14 0.13 0.07 0.05 0.08 0.20 0.14 0.04 0.03 0.01 0.02 0.03 0.02 0.02 0.02 0.05 0.06 0.01 0.01 0.02 0.01 0.00 0.01 0.02 0.01 0.01 0.02 0.06 0.12 0.11 0.08 0.09 0.01 0.03 0.02 0.03 0.01 0.00 0.00
0.23 0.24 0.22 0.37 0.35 0.32 0.21 0.16 0.09 0.03 0.03 0.06 0.09 0.09 0.11 0.11 0.11 0.10 0.15 0.16 0.16 0.14 0.09 0.02 0.02 0.02 0.01 0.00 0.00 0.01 0.01 0.01 0.00 0.00 0.00 0.00 0.00 0.01 0.02 0.02 0.01 0.00 0.00 0.03 0.04 0.04 0.02 0.02 0.02 0.01 0.00 0.00 0.00 0.00
0.31 0.29 0.24 0.40 0.37 0.26 0.24 0.21 0.09 0.03 0.02 0.05 0.06 0.05 0.10 0.10 0.09 0.19 0.30 0.31 0.19 0.12 0.11 0.09 0.04 0.00 0.01 0.01 0.01 0.02 0.02 0.00 0.00 0.00 0.00 0.00 0.01 0.00 0.01 0.01 0.01 0.00 0.00 0.00 0.01 0.02 0.01 0.00 0.00 0.00 0.00 0.00 0.00 0.00
0.38 0.36 0.30 0.42 0.37 0.19 0.21 0.21 0.08 0.02 0.03 0.04 0.09 0.08 0.05 0.11 0.14 0.21 0.26 0.18 0.19 0.04 0.13 0.16 0.01 0.00 0.00 0.00 0.01 0.01 0.03 0.03 0.01 0.01 0.01 0.01 0.00 0.00 0.01 0.01 0.01 0.00 0.00 0.00 0.02 0.03 0.01 0.01 0.00 0.00 0.00 0.00 0.00 0.00
0.45 0.36 0.34 0.36 0.35 0.18 0.19 0.16 0.06 0.03 0.03 0.03 0.11 0.04 0.09 0.19 0.26 0.26 0.23 0.12 0.10 0.02 0.06 0.08 0.01 0.00 0.00 0.00 0.00 0.00 0.01 0.01 0.00 0.00 0.00 0.00 0.00 0.00 0.00 0.00 0.00 0.00 0.00 0.00 0.00 0.00 0.00 0.00 0.00 0.00 0.00 0.00 0.00 0.00
0.50 0.34 0.33 0.34 0.35 0.18 0.17 0.13 0.04 0.04 0.03 0.07 0.05 0.11 0.24 0.38 0.45 0.40 0.36 0.15 0.04 0.00 0.00 0.04 0.04 0.00 0.00 0.00 0.00 0.00 0.00 0.00 0.00 0.00 0.00 0.00 0.00 0.01 0.00 0.01 0.00 0.00 0.00 0.00 0.00 0.00 0.00 0.00 0.00 0.00 0.00 0.00 0.00 0.00
0.53 0.34 0.31 0.33 0.33 0.15 0.16 0.09 0.04 0.05 0.10 0.07 0.06 0.15 0.31 0.31 0.22 0.11 0.06 0.03 0.00 0.00 0.00 0.01 0.03 0.01 0.00 0.00 0.00 0.00 0.00 0.00 0.00 0.00 0.00 0.00 0.00 0.00 0.00 0.01 0.00 0.00 0.00 0.00 0.00 0.00 0.00 0.00 0.00 0.00 0.00 0.00 0.00 0.00
0.52 0.35 0.28 0.32 0.27 0.14 0.11 0.04 0.04 0.11 0.15 0.06 0.12 0.28 0.24 0.09 0.05 0.01 0.00 0.00 0.00 0.01 0.00 0.01 0.04 0.02 0.00 0.00 0.00 0.00 0.00 0.00 0.00 0.00 0.00 0.00 0.00 0.00 0.00 0.00 0.00 0.00 0.00 0.00 0.00 0.00 0.00 0.00 0.00 0.00 0.00 0.00 0.00 0.00
0.47 0.33 0.27 0.27 0.20 0.13 0.07 0.03 0.09 0.21 0.10 0.11 0.15 0.12 0.04 0.02 0.01 0.00 0.01 0.00 0.00 0.01 0.00 0.01 0.01 0.02 0.00 0.00 0.00 0.00 0.00 0.00 0.00 0.00 0.00 0.00 0.00 0.00 0.00 0.00 0.00 0.00 0.00 0.00 0.00 0.00 0.00 0.00 0.00 0.00 0.00 0.00 0.00 0.00
0.38 0.27 0.26 0.23 0.14 0.10 0.05 0.07 0.16 0.17 0.10 0.06 0.05 0.01 0.04 0.01 0.00 0.01 0.00 0.00 0.00 0.00 0.00 0.01 0.00 0.01 0.00 0.00 0.00 0.00 0.00 0.00 0.00 0.00 0.00 0.00 0.00 0.00 0.00 0.00 0.00 0.00 0.00 0.00 0.00 0.00 0.00 0.00 0.00 0.00 0.00 0.00 0.00 0.00
0.33 0.24 0.20 0.14 0.10 0.05 0.05 0.14 0.18 0.13 0.03 0.01 0.01 0.01 0.01 0.01 0.00 0.00 0.00 0.00 0.00 0.00 0.00 0.01 0.00 0.00 0.00 0.00 0.00 0.00 0.00 0.00 0.00 0.00 0.00 0.00 0.00 0.00 0.00 0.00 0.00 0.00 0.00 0.00 0.00 0.00 0.00 0.00 0.00 0.00 0.00 0.00 0.00 0.00
0.35 0.19 0.11 0.07 0.05 0.04 0.09 0.12 0.12 0.03 0.00 0.00 0.01 0.03 0.03 0.00 0.00 0.00 0.00 0.00 0.00 0.00 0.00 0.01 0.00 0.00 0.00 0.00 0.00 0.00 0.00 0.00 0.01 0.00 0.01 0.00 0.00 0.00 0.00 0.00 0.00 0.00 0.00 0.00 0.00 0.00 0.00 0.00 0.00 0.00 0.00 0.00 0.00 0.00
0.24 0.09 0.06 0.04 0.05 0.07 0.07 0.07 0.01 0.00 0.00 0.01 0.01 0.02 0.01 0.01 0.00 0.00 0.00 0.00 0.00 0.00 0.00 0.00 0.00 0.00 0.00 0.00 0.00 0.00 0.00 0.00 0.00 0.00 0.00 0.00 0.00 0.00 0.00 0.00 0.00 0.00 0.00 0.00 0.00 0.00 0.00 0.00 0.00 0.00 0.00 0.00 0.00 0.00
0.13 0.07 0.05 0.04 0.04 0.04 0.04 0.03 0.01 0.00 0.01 0.01 0.01 0.02 0.01 0.00 0.00 0.01 0.01 0.00 0.00 0.00 0.00 0.01 0.01 0.00 0.00 0.00 0.00 0.00 0.00 0.00 0.00 0.00 0.00 0.00 0.00 0.00 0.00 0.00 0.00 0.00 0.00 0.00 0.00 0.00 0.00 0.00 0.00 0.00 0.00 0.00 0.00 0.00
0.11 0.06 0.05 0.05 0.04 0.03 0.04 0.01 0.00 0.00 0.00 0.00 0.01 0.00 0.00 0.01 0.01 0.00 0.00 0.00 0.00 0.01 0.01 0.01 0.00 0.00 0.00 0.00 0.00 0.00 0.00 0.00 0.00 0.01 0.02 0.00 0.00 0.00 0.00 0.00 0.00 0.00 0.00 0.00 0.00 0.00 0.00 0.00 0.00 0.00 0.00 0.00 0.00 0.00
0.12 0.10 0.08 0.06 0.04 0.03 0.01 0.00 0.00 0.00 0.00 0.00 0.01 0.03 0.03 0.03 0.03 0.02 0.02 0.01 0.00 0.02 0.02 0.01 0.00 0.00 0.00 0.00 0.00 0.00 0.00 0.00 0.00 0.01 0.00 0.00 0.00 0.00 0.00 0.00 0.00 0.00 0.00 0.00 0.00 0.00 0.00 0.00 0.00 0.00 0.00 0.00 0.00 0.00
0.06 0.15 0.12 0.04 0.02 0.01 0.01 0.00 0.00 0.00 0.00 0.01 0.03 0.04 0.05 0.06 0.05 0.03 0.02 0.01 0.00 0.03 0.02 0.00 0.00 0.00 0.00 0.00 0.00 0.00 0.01 0.01 0.00 0.00 0.00 0.00 0.00 0.00 0.00 0.00 0.00 0.00 0.00 0.00 0.00 0.00 0.00 0.00 0.00 0.00 0.00 0.00 0.00 0.00
0.01 0.04 0.03 0.01 0.00 0.00 0.00 0.00 0.00 0.00 0.02 0.05 0.07 0.06 0.03 0.04 0.04 0.02 0.03 0.01 0.03 0.04 0.01 0.00 0.00 0.00 0.00 0.00 0.00 0.00 0.00 0.00 0.00 0.00 0.00 0.00 0.00 0.00 0.00 0.00 0.00 0.00 0.00 0.00 0.00 0.00 0.00 0.00 0.00 0.00 0.00 0.00 0.00 0.00
0.01 0.01 0.00 0.00 0.01 0.00 0.00 0.00 0.00 0.01 0.04 0.04 0.04 0.03 0.03 0.02 0.02 0.03 0.02 0.02 0.06 0.03 0.02 0.01 0.01 0.01 0.02 0.03 0.01 0.01 0.00 0.00 0.00 0.00 0.00 0.00 0.00 0.00 0.00 0.00 0.00 0.00 0.00 0.00 0.00 0.00 0.00 0.00 0.00 0.00 0.00 0.00 0.00 0.00
0.01 0.00 0.00 0.00 0.00 0.00 0.00 0.00 0.00 0.01 0.05 0.04 0.03 0.01 0.01 0.02 0.03 0.02 0.02 0.03 0.07 0.13 0.14 0.05 0.05 0.06 0.04 0.01 0.01 0.00 0.00 0.00 0.00 0.00 0.00 0.00 0.00 0.00 0.00 0.00 0.00 0.00 0.00 0.00 0.00 0.00 0.00 0.00 0.00 0.00 0.00 0.00 0.00 0.00
0.08 0.05 0.03 0.00 0.00 0.00 0.00 0.00 0.00 0.00 0.01 0.02 0.02 0.01 0.03 0.04 0.08 0.07 0.05 0.02 0.08 0.14 0.15 0.09 0.06 0.09 0.03 0.00 0.00 0.00 0.00 0.00 0.00 0.00 0.00 0.00 0.00 0.00 0.00 0.00 0.00 0.00 0.00 0.00 0.00 0.00 0.00 0.00 0.00 0.00 0.00 0.00 0.00 0.00
0.13 0.06 0.02 0.00 0.00 0.00 0.00 0.00 0.00 0.00 0.00 0.00 0.00 0.00 0.03 0.05 0.08 0.06 0.03 0.02 0.09 0.09 0.05 0.04 0.05 0.03 0.00 0.00 0.00 0.00 0.00 0.00 0.00 0.00 0.00 0.00 0.00 0.00 0.00 0.00 0.00 0.00 0.00 0.00 0.00 0.00 0.00 0.00 0.00 0.00 0.00 0.00 0.01 0.01
0.03 0.01 0.00 0.00 0.00 0.00 0.00 0.00 0.00 0.00 0.00 0.00 0.00 0.01 0.01 0.01 0.04 0.02 0.03 0.03 0.05 0.07 0.02 0.01 0.01 0.00 0.00 0.00 0.00 0.00 0.00 0.00 0.00 0.00 0.00 0.00 0.00 0.00 0.00 0.00 0.00 0.00 0.00 0.00 0.01 0.02 0.01 0.00 0.00 0.00 0.01 0.01 0.04 0.05
0.00 0.00 0.00 0.00 0.00 0.01 0.02 0.05 0.03 0.01 0.00 0.01 0.00 0.00 0.01 0.01 0.02 0.02 0.02 0.02 0.04 0.03 0.01 0.00 0.00 0.00 0.00 0.00 0.00 0.00 0.00 0.00 0.00 0.00 0.00 0.00 0.00 0.00 0.00 0.00 0.00 0.01 0.02 0.03 0.03 0.05 0.03 0.03 0.02 0.04 0.05 0.05 0.08 0.07
0.00 0.00 0.00 0.00 0.00 0.00 0.01 0.05 0.09 0.02 0.01 0.01 0.01 0.00 0.01 0.01 0.01 0.01 0.01 0.04 0.03 0.03 0.02 0.01 0.00 0.00 0.00 0.01 0.01 0.00 0.00 0.00 0.00 0.00 0.00 0.00 0.00 0.01 0.00 0.00 0.00 0.00 0.02 0.04 0.05 0.04 0.05 0.05 0.07 0.08 0.06 0.07 0.08 0.10
0.00 0.00 0.00 0.00 0.00 0.00 0.01 0.03 0.02 0.01 0.01 0.01 0.01 0.02 0.02 0.01 0.01 0.01 0.03 0.05 0.04 0.03 0.02 0.02 0.03 0.03 0.03 0.01 0.02 0.02 0.01 0.01 0.02 0.00 0.01 0.00 0.01 0.03 0.02 0.01 0.01 0.01 0.03 0.04 0.02 0.03 0.03 0.05 0.09 0.08 0.11 0.11 0.06 0.05
0.00 0.01 0.01 0.00 0.00 0.01 0.00 0.02 0.02 0.02 0.01 0.03 0.02 0.02 0.03 0.01 0.02 0.03 0.03 0.02 0.02 0.03 0.03 0.04 0.03 0.03 0.03 0.02 0.02 0.03 0.03 0.02 0.02 0.02 0.01 0.00 0.01 0.02 0.04 0.06 0.04 0.03 0.02 0.02 0.02 0.02 0.02 0.06 0.06 0.05 0.07 0.10 0.11 0.07
0.00 0.00 0.01 0.03 0.05 0.04 0.05 0.05 0.03 0.03 0.10 0.14 0.06 0.04 0.04 0.03 0.06 0.06 0.06 0.03 0.03 0.03 0.03 0.03 0.02 0.02 0.01 0.01 0.02 0.04 0.04 0.04 0.02 0.01 0.00 0.01 0.03 0.03 0.03 0.03 0.03 0.02 0.02 0.04 0.05 0.05 0.04 0.03 0.03 0.03 0.03 0.04 0.06 0.06
0.00 0.01 0.02 0.04 0.08 0.08 0.07 0.08 0.10 0.05 0.03 0.06 0.09 0.12 0.03 0.02 0.05 0.06 0.03 0.02 0.02 0.04 0.06 0.04 0.04 0.04 0.04 0.05 0.06 0.07 0.08 0.07 0.07 0.07 0.05 0.05 0.06 0.09 0.07 0.04 0.03 0.02 0.02 0.03 0.05 0.04 0.03 0.02 0.01 0.01 0.02 0.02 0.02 0.01
0.01 0.01 0.03 0.03 0.05 0.04 0.04 0.03 0.02 0.02 0.03 0.05 0.04 0.03 0.02 0.04 0.05 0.04 0.04 0.04 0.05 0.06 0.05 0.04 0.05 0.08 0.09 0.06 0.07 0.07 0.06 0.05 0.05 0.09 0.08 0.04 0.05 0.07 0.05 0.03 0.02 0.01 0.01 0.00 0.01 0.03 0.01 0.01 0.00 0.00 0.00 0.00 0.00 0.00
0.09 0.10 0.11 0.07 0.08 0.04 0.04 0.05 0.04 0.02 0.04 0.04 0.04 0.07 0.09 0.06 0.07 0.06 0.05 0.05 0.06 0.05 0.07 0.06 0.06 0.09 0.13 0.14 0.11 0.07 0.06 0.06 0.05 0.04 0.03 0.03 0.04 0.03 0.02 0.01 0.00 0.00 0.00 0.00 0.00 0.00 0.00 0.00 0.00 0.00 0.00 0.00 0.00 0.00
0.19 0.20 0.17 0.16 0.14 0.09 0.09 0.08 0.07 0.06 0.06 0.06 0.08 0.07 0.09 0.10 0.11 0.08 0.07 0.08 0.10 0.06 0.09 0.09 0.08 0.11 0.12 0.12 0.09 0.07 0.05 0.06 0.06 0.06 0.04 0.03 0.03 0.01 0.00 0.00 0.00 0.00 0.00 0.00 0.00 0.00 0.00 0.00 0.00 0.00 0.00 0.00 0.00 0.00
0.14 0.13 0.13 0.13 0.12 0.11 0.10 0.10 0.09 0.08 0.07 0.08 0.10 0.09 0.09 0.09 0.09 0.07 0.08 0.11 0.11 0.10 0.09 0.11 0.11 0.11 0.11 0.09 0.09 0.08 0.07 0.08 0.07 0.05 0.03 0.01 0.01 0.00 0.00 0.00 0.00 0.00 0.00 0.00 0.00 0.00 0.00 0.00 0.00 0.00 0.00 0.00 0.00 0.00

GFSWCAN_prec_precacc24_144.txt.gz
Total_Precipitation_Accumulation
0.21 0.29 0.28 0.34 0.28 0.27 0.15 0.13 0.13 0.09 0.10 0.16 0.20 0.16 0.10 0.15 0.16 0.11 0.06 0.08 0.27 0.25 0.06 0.03 0.02 0.04 0.04 0.03 0.06 0.03 0.07 0.07 0.05 0.07 0.04 0.01 0.00 0.01 0.02 0.01 0.01 0.03 0.08 0.14 0.18 0.16 0.10 0.01 0.02 0.02 0.02 0.01 0.00 0.00
0.22 0.23 0.22 0.36 0.30 0.29 0.18 0.12 0.07 0.06 0.08 0.11 0.13 0.11 0.13 0.13 0.13 0.15 0.19 0.17 0.18 0.26 0.15 0.04 0.02 0.02 0.02 0.02 0.01 0.01 0.01 0.01 0.01 0.01 0.00 0.00 0.00 0.01 0.02 0.02 0.01 0.01 0.00 0.03 0.04 0.05 0.01 0.01 0.01 0.00 0.00 0.00 0.00 0.00
0.27 0.23 0.20 0.36 0.31 0.23 0.19 0.16 0.07 0.02 0.03 0.07 0.08 0.07 0.12 0.13 0.12 0.25 0.32 0.32 0.30 0.25 0.16 0.09 0.04 0.01 0.02 0.04 0.02 0.04 0.02 0.00 0.00 0.00 0.01 0.00 0.01 0.01 0.01 0.01 0.01 0.00 0.00 0.00 0.00 0.01 0.00 0.00 0.00 0.00 0.00 0.00 0.00 0.00
0.33 0.30 0.21 0.36 0.32 0.17 0.17 0.15 0.06 0.02 0.03 0.04 0.09 0.09 0.08 0.14 0.19 0.26 0.28 0.18 0.35 0.23 0.19 0.17 0.01 0.00 0.00 0.01 0.02 0.03 0.04 0.03 0.01 0.01 0.01 0.01 0.00 0.00 0.01 0.01 0.01 0.01 0.00 0.00 0.01 0.01 0.00 0.00 0.00 0.00 0.00 0.00 0.00 0.00
0.41 0.32 0.27 0.31 0.32 0.17 0.17 0.11 0.04 0.03 0.04 0.03 0.11 0.05 0.11 0.22 0.32 0.32 0.25 0.13 0.19 0.22 0.16 0.09 0.01 0.00 0.00 0.00 0.02 0.02 0.02 0.02 0.01 0.04 0.03 0.00 0.00 0.00 0.00 0.00 0.00 0.00 0.00 0.00 0.00 0.00 0.00 0.00 0.00 0.00 0.00 0.00 0.00 0.00
0.48 0.33 0.30 0.31 0.34 0.18 0.15 0.07 0.02 0.03 0.03 0.07 0.05 0.12 0.29 0.44 0.52 0.56 0.52 0.19 0.09 0.18 0.14 0.12 0.08 0.00 0.00 0.00 0.00 0.01 0.01 0.02 0.02 0.05 0.03 0.00 0.00 0.01 0.01 0.01 0.00 0.00 0.00 0.00 0.00 0.00 0.00 0.00 0.00 0.00 0.00 0.00 0.00 0.00
0.51 0.34 0.31 0.32 0.33 0.15 0.12 0.03 0.02 0.05 0.09 0.07 0.06 0.17 0.37 0.44 0.40 0.31 0.16 0.06 0.02 0.13 0.12 0.08 0.05 0.01 0.00 0.00 0.00 0.00 0.01 0.01 0.00 0.00 0.00 0.00 0.00 0.00 0.00 0.01 0.00 0.00 0.00 0.00 0.00 0.00 0.00 0.00 0.00 0.00 0.00 0.00 0.00 0.00
0.49 0.35 0.28 0.31 0.26 0.13 0.09 0.03 0.03 0.11 0.14 0.06 0.16 0.42 0.48 0.38 0.36 0.17 0.04 0.03 0.01 0.08 0.02 0.03 0.05 0.02 0.00 0.00 0.00 0.00 0.00 0.01 0.00 0.00 0.00 0.00 0.00 0.00 0.00 0.00 0.00 0.00 0.00 0.00 0.00 0.00 0.00 0.00 0.00 0.00 0.00 0.00 0.00 0.00
0.45 0.32 0.28 0.28 0.20 0.14 0.07 0.02 0.08 0.20 0.10 0.18 0.37 0.49 0.39 0.28 0.21 0.10 0.04 0.03 0.02 0.04 0.06 0.01 0.01 0.02 0.00 0.00 0.00 0.00 0.00 0.00 0.00 0.00 0.00 0.00 0.00 0.00 0.00 0.00 0.00 0.00 0.00 0.00 0.00 0.00 0.00 0.00 0.00 0.00 0.00 0.00 0.00 0.00
0.36 0.27 0.26 0.23 0.16 0.16 0.07 0.07 0.15 0.19 0.20 0.31 0.30 0.23 0.26 0.09 0.05 0.05 0.05 0.07 0.05 0.00 0.00 0.01 0.00 0.01 0.00 0.00 0.00 0.00 0.00 0.00 0.00 0.00 0.00 0.00 0.00 0.00 0.00 0.00 0.00 0.00 0.00 0.00 0.00 0.00 0.00 0.00 0.00 0.00 0.00 0.00 0.00 0.00
0.29 0.22 0.21 0.20 0.18 0.15 0.07 0.13 0.20 0.28 0.21 0.17 0.12 0.11 0.06 0.02 0.03 0.01 0.01 0.00 0.00 0.00 0.00 0.01 0.00 0.00 0.00 0.00 0.00 0.00 0.00 0.00 0.00 0.00 0.00 0.00 0.00 0.00 0.00 0.00 0.00 0.00 0.00 0.00 0.00 0.00 0.00 0.00 0.00 0.00 0.00 0.00 0.00 0.00
0.27 0.19 0.18 0.18 0.13 0.08 0.08 0.15 0.21 0.12 0.06 0.03 0.09 0.04 0.03 0.00 0.00 0.00 0.00 0.00 0.00 0.00 0.00 0.01 0.00 0.00 0.00 0.00 0.00 0.00 0.00 0.00 0.01 0.00 0.00 0.00 0.00 0.00 0.00 0.00 0.00 0.00 0.00 0.00 0.00 0.00 0.00 0.00 0.00 0.00 0.00 0.00 0.00 0.00
0.20 0.16 0.18 0.09 0.06 0.07 0.09 0.14 0.05 0.02 0.01 0.02 0.04 0.00 0.00 0.00 0.00 0.00 0.00 0.00 0.00 0.00 0.00 0.00 0.00 0.00 0.00 0.00 0.00 0.00 0.00 0.00 0.00 0.00 0.00 0.00 0.00 0.00 0.00 0.00 0.00 0.00 0.00 0.00 0.00 0.00 0.00 0.00 0.00 0.00 0.00 0.00 0.00 0.00
0.17 0.11 0.06 0.04 0.04 0.07 0.08 0.09 0.04 0.01 0.01 0.01 0.01 0.00 0.00 0.00 0.00 0.01 0.01 0.00 0.00 0.00 0.00 0.01 0.01 0.00 0.00 0.00 0.00 0.00 0.00 0.00 0.00 0.00 0.00 0.00 0.00 0.00 0.00 0.00 0.00 0.00 0.00 0.00 0.00 0.00 0.00 0.00 0.00 0.00 0.00 0.00 0.00 0.00
0.10 0.05 0.04 0.04 0.04 0.05 0.05 0.02 0.00 0.00 0.00 0.00 0.01 0.00 0.00 0.01 0.01 0.00 0.00 0.00 0.00 0.01 0.01 0.01 0.00 0.00 0.00 0.00 0.00 0.00 0.00 0.00 0.00 0.01 0.02 0.00 0.00 0.00 0.00 0.00 0.00 0.00 0.00 0.00 0.00 0.00 0.00 0.00 0.00 0.00 0.00 0.00 0.00 0.00
0.08 0.08 0.07 0.05 0.03 0.02 0.00 0.00 0.00 0.00 0.00 0.00 0.01 0.02 0.03 0.03 0.03 0.02 0.02 0.01 0.00 0.02 0.02 0.01 0.00 0.00 0.00 0.00 0.00 0.00 0.00 0.00 0.00 0.01 0.00 0.00 0.00 0.00 0.00 0.00 0.00 0.00 0.00 0.00 0.00 0.00 0.00 0.00 0.00 0.00 0.00 0.00 0.00 0.00
0.03 0.15 0.10 0.03 0.01 0.01 0.00 0.00 0.00 0.00 0.00 0.01 0.04 0.04 0.05 0.06 0.05 0.03 0.02 0.01 0.00 0.03 0.02 0.00 0.00 0.00 0.00 0.00 0.00 0.00 0.01 0.01 0.00 0.00 0.00 0.00 0.00 0.00 0.00 0.00 0.00 0.00 0.00 0.00 0.00 0.00 0.00 0.00 0.00 0.00 0.00 0.00 0.00 0.00
0.01 0.04 0.02 0.00 0.00 0.00 0.00 0.00 0.00 0.00 0.02 0.06 0.07 0.06 0.03 0.04 0.04 0.03 0.03 0.01 0.03 0.04 0.01 0.00 0.00 0.00 0.00 0.00 0.00 0.01 0.00 0.01 0.01 0.00 0.00 0.00 0.00 0.00 0.00 0.00 0.00 0.00 0.00 0.00 0.00 0.00 0.00 0.00 0.00 0.00 0.00 0.00 0.00 0.00
0.01 0.00 0.00 0.00 0.01 0.00 0.00 0.00 0.00 0.01 0.05 0.04 0.05 0.03 0.03 0.02 0.02 0.04 0.03 0.01 0.06 0.03 0.02 0.01 0.01 0.01 0.02 0.04 0.02 0.01 0.00 0.00 0.00 0.00 0.00 0.00 0.00 0.00 0.00 0.00 0.00 0.00 0.00 0.00 0.00 0.00 0.00 0.00 0.00 0.00 0.00 0.00 0.00 0.00
0.00 0.00 0.00 0.00 0.00 0.00 0.00 0.00 0.00 0.01 0.05 0.05 0.03 0.02 0.01 0.02 0.04 0.05 0.06 0.03 0.06 0.11 0.08 0.04 0.05 0.06 0.05 0.02 0.02 0.00 0.00 0.00 0.00 0.00 0.00 0.00 0.00 0.00 0.00 0.00 0.00 0.00 0.00 0.00 0.00 0.00 0.00 0.00 0.00 0.00 0.00 0.00 0.00 0.00
0.02 0.00 0.00 0.00 0.00 0.00 0.00 0.00 0.00 0.00 0.01 0.02 0.03 0.01 0.03 0.04 0.09 0.07 0.08 0.03 0.08 0.14 0.13 0.07 0.07 0.10 0.04 0.00 0.00 0.00 0.00 0.00 0.00 0.00 0.00 0.00 0.00 0.00 0.00 0.00 0.00 0.00 0.00 0.00 0.00 0.00 0.00 0.00 0.00 0.00 0.00 0.00 0.00 0.00
0.04 0.00 0.00 0.00 0.00 0.00 0.00 0.00 0.00 0.00 0.00 0.00 0.00 0.01 0.03 0.07 0.09 0.07 0.05 0.02 0.09 0.09 0.06 0.05 0.06 0.04 0.01 0.00 0.00 0.00 0.00 0.00 0.00 0.00 0.00 0.00 0.00 0.00 0.00 0.00 0.00 0.00 0.00 0.00 0.00 0.00 0.00 0.00 0.00 0.00 0.01 0.00 0.01 0.01
0.00 0.00 0.00 0.00 0.00 0.00 0.00 0.00 0.00 0.00 0.00 0.00 0.00 0.00 0.01 0.02 0.06 0.03 0.04 0.04 0.06 0.09 0.04 0.02 0.03 0.01 0.00 0.00 0.00 0.00 0.00 0.00 0.00 0.00 0.00 0.00 0.00 0.00 0.00 0.00 0.00 0.00 0.00 0.00 0.01 0.02 0.01 0.01 0.00 0.00 0.02 0.02 0.04 0.06
0.00 0.00 0.00 0.00 0.00 0.00 0.00 0.01 0.00 0.00 0.00 0.00 0.00 0.00 0.00 0.01 0.03 0.02 0.02 0.03 0.05 0.05 0.02 0.01 0.01 0.01 0.00 0.00 0.00 0.00 0.00 0.00 0.00 0.00 0.00 0.00 0.00 0.00 0.00 0.00 0.00 0.01 0.02 0.04 0.04 0.06 0.05 0.03 0.02 0.05 0.07 0.06 0.08 0.08
0.00 0.00 0.00 0.00 0.00 0.00 0.01 0.02 0.06 0.01 0.00 0.00 0.00 0.00 0.01 0.01 0.01 0.02 0.02 0.05 0.04 0.04 0.03 0.02 0.01 0.00 0.00 0.01 0.01 0.01 0.00 0.00 0.00 0.00 0.01 0.00 0.00 0.01 0.00 0.00 0.00 0.01 0.03 0.05 0.06 0.05 0.06 0.05 0.07 0.09 0.07 0.07 0.08 0.10
0.00 0.00 0.00 0.00 0.00 0.00 0.01 0.02 0.02 0.01 0.01 0.01 0.00 0.01 0.02 0.01 0.01 0.02 0.03 0.06 0.04 0.03 0.03 0.03 0.03 0.04 0.04 0.02 0.02 0.02 0.01 0.01 0.02 0.01 0.01 0.01 0.01 0.03 0.02 0.01 0.01 0.01 0.03 0.04 0.02 0.03 0.03 0.06 0.09 0.08 0.12 0.12 0.07 0.05
0.00 0.00 0.01 0.00 0.00 0.00 0.00 0.02 0.01 0.01 0.01 0.03 0.02 0.01 0.02 0.01 0.02 0.03 0.03 0.03 0.02 0.02 0.02 0.03 0.03 0.03 0.03 0.02 0.02 0.02 0.03 0.02 0.02 0.02 0.01 0.00 0.01 0.03 0.05 0.06 0.05 0.03 0.02 0.02 0.02 0.02 0.03 0.06 0.06 0.06 0.07 0.11 0.12 0.08
0.00 0.00 0.01 0.01 0.02 0.01 0.02 0.02 0.02 0.03 0.10 0.14 0.05 0.03 0.04 0.03 0.06 0.06 0.06 0.04 0.02 0.02 0.02 0.03 0.02 0.02 0.01 0.01 0.02 0.03 0.04 0.04 0.02 0.01 0.00 0.01 0.03 0.04 0.04 0.04 0.03 0.02 0.03 0.04 0.05 0.05 0.04 0.04 0.03 0.03 0.03 0.05 0.07 0.07
0.00 0.00 0.01 0.01 0.04 0.04 0.04 0.05 0.07 0.03 0.03 0.05 0.09 0.12 0.03 0.02 0.06 0.07 0.03 0.02 0.02 0.03 0.05 0.04 0.04 0.04 0.04 0.04 0.05 0.06 0.07 0.07 0.07 0.06 0.05 0.04 0.05 0.09 0.07 0.04 0.03 0.03 0.03 0.04 0.05 0.05 0.03 0.02 0.01 0.01 0.02 0.02 0.02 0.02
0.00 0.00 0.01 0.01 0.02 0.03 0.04 0.02 0.02 0.02 0.01 0.02 0.03 0.03 0.02 0.03 0.05 0.04 0.04 0.04 0.05 0.06 0.06 0.05 0.04 0.07 0.08 0.06 0.06 0.06 0.05 0.04 0.04 0.08 0.07 0.04 0.05 0.07 0.06 0.03 0.02 0.01 0.01 0.01 0.02 0.04 0.02 0.01 0.00 0.00 0.00 0.00 0.00 0.00
0.04 0.04 0.04 0.03 0.04 0.03 0.02 0.03 0.03 0.01 0.02 0.03 0.03 0.06 0.07 0.04 0.05 0.04 0.04 0.04 0.05 0.06 0.07 0.07 0.05 0.07 0.11 0.12 0.09 0.06 0.05 0.05 0.05 0.05 0.03 0.03 0.04 0.03 0.02 0.01 0.00 0.00 0.00 0.00 0.00 0.00 0.00 0.00 0.00 0.00 0.00 0.00 0.00 0.00
0.14 0.15 0.13 0.13 0.12 0.07 0.06 0.06 0.05 0.04 0.04 0.04 0.06 0.05 0.05 0.07 0.09 0.06 0.06 0.07 0.10 0.07 0.09 0.09 0.08 0.10 0.12 0.12 0.10 0.07 0.05 0.06 0.07 0.07 0.05 0.03 0.03 0.02 0.00 0.00 0.00 0.00 0.00 0.00 0.00 0.00 0.00 0.00 0.00 0.00 0.00 0.00 0.00 0.00
0.11 0.11 0.11 0.11 0.10 0.10 0.09 0.09 0.08 0.08 0.07 0.08 0.10 0.08 0.08 0.09 0.09 0.07 0.08 0.10 0.10 0.10 0.09 0.10 0.11 0.11 0.11 0.10 0.10 0.09 0.08 0.09 0.08 0.06 0.04 0.01 0.01 0.00 0.00 0.00 0.00 0.00 0.00 0.00 0.00 0.00 0.00 0.00 0.00 0.00 0.00 0.00 0.00 0.00

GFSWCAN_prec_precacc24_147.txt.gz
Total_Precipitation_Accumulation
0.30 0.42 0.30 0.33 0.23 0.23 0.15 0.12 0.12 0.09 0.10 0.16 0.22 0.18 0.10 0.17 0.20 0.15 0.09 0.11 0.30 0.32 0.08 0.03 0.02 0.05 0.07 0.08 0.14 0.07 0.13 0.12 0.14 0.18 0.09 0.04 0.00 0.01 0.02 0.01 0.01 0.03 0.11 0.15 0.16 0.19 0.11 0.00 0.01 0.01 0.01 0.00 0.00 0.00
0.31 0.38 0.26 0.34 0.25 0.26 0.17 0.10 0.05 0.07 0.08 0.12 0.16 0.21 0.17 0.15 0.16 0.18 0.21 0.19 0.21 0.31 0.16 0.04 0.03 0.03 0.02 0.03 0.10 0.10 0.07 0.02 0.01 0.03 0.01 0.00 0.00 0.01 0.02 0.02 0.01 0.01 0.00 0.02 0.02 0.04 0.01 0.00 0.01 0.00 0.00 0.00 0.00 0.00
0.39 0.36 0.22 0.35 0.27 0.20 0.18 0.13 0.04 0.02 0.05 0.09 0.15 0.17 0.24 0.18 0.17 0.28 0.35 0.34 0.36 0.34 0.19 0.09 0.04 0.01 0.03 0.09 0.12 0.17 0.04 0.03 0.01 0.00 0.01 0.01 0.01 0.01 0.01 0.01 0.01 0.00 0.00 0.00 0.00 0.01 0.00 0.00 0.00 0.00 0.00 0.00 0.00 0.00
0.39 0.36 0.22 0.36 0.30 0.14 0.15 0.11 0.04 0.01 0.03 0.05 0.15 0.19 0.15 0.17 0.22 0.31 0.32 0.21 0.39 0.32 0.26 0.17 0.01 0.00 0.00 0.03 0.08 0.08 0.06 0.03 0.02 0.03 0.03 0.01 0.01 0.00 0.01 0.01 0.01 0.01 0.00 0.00 0.01 0.01 0.00 0.00 0.00 0.00 0.00 0.00 0.00 0.00
0.39 0.30 0.24 0.30 0.30 0.15 0.13 0.07 0.02 0.02 0.03 0.03 0.11 0.09 0.15 0.24 0.35 0.36 0.27 0.14 0.22 0.27 0.24 0.10 0.01 0.00 0.00 0.00 0.03 0.07 0.07 0.06 0.07 0.09 0.09 0.01 0.00 0.00 0.00 0.00 0.00 0.00 0.00 0.00 0.00 0.00 0.00 0.00 0.00 0.00 0.00 0.00 0.00 0.00
0.43 0.29 0.24 0.29 0.30 0.15 0.10 0.04 0.01 0.02 0.04 0.08 0.05 0.14 0.31 0.47 0.59 0.65 0.64 0.22 0.10 0.19 0.24 0.16 0.10 0.00 0.00 0.00 0.02 0.05 0.08 0.10 0.12 0.13 0.07 0.00 0.00 0.01 0.01 0.01 0.00 0.00 0.00 0.00 0.00 0.00 0.00 0.00 0.00 0.00 0.00 0.00 0.00 0.00
0.47 0.31 0.25 0.28 0.29 0.12 0.07 0.02 0.02 0.05 0.10 0.07 0.07 0.18 0.40 0.53 0.49 0.37 0.20 0.06 0.03 0.16 0.29 0.14 0.07 0.02 0.01 0.06 0.09 0.09 0.08 0.11 0.09 0.06 0.03 0.00 0.00 0.00 0.00 0.01 0.00 0.00 0.00 0.00 0.00 0.00 0.00 0.00 0.00 0.00 0.00 0.00 0.00 0.00
0.47 0.33 0.24 0.27 0.23 0.09 0.03 0.01 0.03 0.13 0.15 0.07 0.17 0.42 0.50 0.45 0.44 0.21 0.04 0.05 0.11 0.21 0.12 0.09 0.08 0.05 0.05 0.06 0.04 0.04 0.06 0.08 0.03 0.01 0.00 0.00 0.00 0.00 0.00 0.00 0.00 0.00 0.00 0.00 0.00 0.00 0.00 0.00 0.00 0.00 0.00 0.00 0.00 0.00
0.44 0.31 0.26 0.24 0.17 0.07 0.02 0.01 0.08 0.24 0.12 0.18 0.37 0.53 0.49 0.40 0.29 0.13 0.10 0.17 0.20 0.20 0.15 0.05 0.03 0.04 0.01 0.01 0.00 0.00 0.01 0.00 0.00 0.00 0.00 0.00 0.00 0.00 0.00 0.00 0.00 0.00 0.00 0.00 0.00 0.00 0.00 0.00 0.00 0.00 0.00 0.00 0.00 0.00
0.36 0.26 0.25 0.21 0.13 0.09 0.04 0.07 0.17 0.24 0.20 0.33 0.39 0.38 0.39 0.14 0.12 0.21 0.33 0.45 0.41 0.15 0.02 0.02 0.00 0.01 0.00 0.00 0.00 0.00 0.00 0.00 0.00 0.00 0.00 0.00 0.00 0.00 0.00 0.00 0.00 0.00 0.00 0.00 0.00 0.00 0.00 0.00 0.00 0.00 0.00 0.00 0.00 0.00
0.28 0.22 0.21 0.19 0.16 0.13 0.07 0.15 0.21 0.30 0.28 0.29 0.28 0.29 0.22 0.18 0.23 0.14 0.13 0.14 0.13 0.02 0.00 0.01 0.00 0.00 0.00 0.00 0.00 0.00 0.00 0.00 0.00 0.00 0.00 0.00 0.00 0.00 0.00 0.00 0.00 0.00 0.00 0.00 0.00 0.00 0.00 0.00 0.00 0.00 0.00 0.00 0.00 0.00
0.26 0.19 0.18 0.18 0.16 0.17 0.10 0.12 0.22 0.17 0.18 0.21 0.32 0.23 0.19 0.12 0.03 0.00 0.00 0.00 0.00 0.00 0.00 0.01 0.00 0.00 0.00 0.00 0.00 0.00 0.00 0.00 0.01 0.00 0.00 0.00 0.00 0.00 0.00 0.00 0.00 0.00 0.00 0.00 0.00 0.00 0.00 0.00 0.00 0.00 0.00 0.00 0.00 0.00
0.19 0.16 0.22 0.17 0.18 0.16 0.08 0.13 0.06 0.15 0.22 0.27 0.15 0.03 0.02 0.01 0.00 0.00 0.00 0.00 0.00 0.00 0.00 0.00 0.00 0.00 0.00 0.00 0.00 0.00 0.00 0.00 0.00 0.00 0.00 0.00 0.00 0.00 0.00 0.00 0.00 0.00 0.00 0.00 0.00 0.00 0.00 0.00 0.00 0.00 0.00 0.00 0.00 0.00
0.20 0.22 0.20 0.11 0.07 0.07 0.09 0.11 0.14 0.15 0.09 0.08 0.02 0.01 0.01 0.00 0.00 0.01 0.01 0.00 0.00 0.00 0.00 0.01 0.01 0.00 0.00 0.00 0.00 0.00 0.00 0.00 0.00 0.00 0.00 0.00 0.00 0.00 0.00 0.00 0.00 0.00 0.00 0.00 0.00 0.00 0.00 0.00 0.00 0.00 0.00 0.00 0.00 0.00
0.18 0.14 0.07 0.04 0.05 0.09 0.07 0.05 0.05 0.02 0.01 0.01 0.01 0.00 0.00 0.01 0.01 0.00 0.01 0.00 0.00 0.01 0.01 0.01 0.00 0.00 0.00 0.00 0.00 0.00 0.00 0.00 0.00 0.01 0.02 0.00 0.00 0.00 0.00 0.00 0.00 0.00 0.00 0.00 0.00 0.00 0.00 0.00 0.00 0.00 0.00 0.00 0.00 0.00
0.08 0.09 0.08 0.06 0.05 0.02 0.00 0.00 0.00 0.00 0.00 0.00 0.01 0.02 0.02 0.02 0.03 0.02 0.02 0.01 0.00 0.02 0.02 0.01 0.00 0.00 0.00 0.00 0.00 0.00 0.00 0.00 0.00 0.01 0.00 0.00 0.00 0.00 0.00 0.00 0.00 0.00 0.00 0.00 0.00 0.00 0.00 0.00 0.00 0.00 0.00 0.00 0.00 0.00
0.03 0.14 0.07 0.02 0.01 0.00 0.00 0.00 0.00 0.00 0.00 0.01 0.04 0.03 0.05 0.05 0.04 0.03 0.02 0.01 0.00 0.03 0.02 0.00 0.00 0.00 0.00 0.00 0.00 0.00 0.01 0.01 0.01 0.00 0.00 0.00 0.00 0.00 0.00 0.00 0.00 0.00 0.00 0.00 0.00 0.00 0.00 0.00 0.00 0.00 0.00 0.00 0.00 0.00
0.01 0.02 0.00 0.00 0.00 0.00 0.00 0.00 0.00 0.00 0.02 0.06 0.07 0.06 0.02 0.03 0.04 0.02 0.01 0.00 0.03 0.04 0.01 0.00 0.00 0.00 0.00 0.00 0.00 0.01 0.01 0.01 0.02 0.01 0.00 0.00 0.00 0.00 0.00 0.00 0.00 0.00 0.00 0.00 0.00 0.00 0.00 0.00 0.00 0.00 0.00 0.00 0.00 0.00
0.01 0.00 0.00 0.00 0.01 0.00 0.00 0.00 0.00 0.01 0.05 0.04 0.05 0.03 0.03 0.04 0.04 0.05 0.02 0.01 0.06 0.03 0.02 0.01 0.01 0.01 0.03 0.04 0.02 0.01 0.01 0.01 0.01 0.00 0.00 0.00 0.00 0.00 0.00 0.00 0.00 0.00 0.00 0.00 0.00 0.00 0.00 0.00 0.00 0.00 0.00 0.00 0.00 0.00
0.00 0.00 0.00 0.00 0.00 0.00 0.00 0.00 0.00 0.01 0.05 0.05 0.03 0.02 0.01 0.04 0.06 0.06 0.07 0.01 0.02 0.07 0.06 0.03 0.05 0.07 0.06 0.03 0.03 0.01 0.00 0.00 0.00 0.00 0.00 0.00 0.00 0.00 0.00 0.00 0.00 0.00 0.00 0.00 0.00 0.00 0.00 0.00 0.00 0.00 0.00 0.00 0.00 0.00
0.00 0.00 0.00 0.00 0.00 0.00 0.00 0.00 0.00 0.00 0.01 0.02 0.03 0.02 0.03 0.04 0.10 0.08 0.13 0.03 0.07 0.12 0.11 0.07 0.08 0.11 0.05 0.01 0.00 0.00 0.00 0.00 0.00 0.00 0.00 0.00 0.00 0.00 0.00 0.00 0.00 0.00 0.00 0.00 0.00 0.00 0.00 0.00 0.00 0.00 0.00 0.00 0.00 0.00
0.00 0.00 0.00 0.00 0.00 0.00 0.00 0.00 0.00 0.00 0.00 0.00 0.00 0.01 0.04 0.07 0.09 0.07 0.05 0.02 0.10 0.10 0.06 0.05 0.07 0.06 0.02 0.00 0.00 0.00 0.00 0.00 0.00 0.00 0.00 0.00 0.00 0.00 0.00 0.00 0.00 0.00 0.00 0.00 0.00 0.00 0.00 0.00 0.00 0.00 0.01 0.00 0.01 0.01
0.00 0.00 0.00 0.00 0.00 0.00 0.00 0.00 0.00 0.00 0.00 0.00 0.00 0.00 0.01 0.02 0.06 0.03 0.04 0.04 0.07 0.10 0.05 0.03 0.04 0.02 0.01 0.00 0.00 0.00 0.00 0.00 0.00 0.00 0.00 0.00 0.00 0.00 0.00 0.00 0.00 0.00 0.00 0.01 0.01 0.03 0.02 0.01 0.00 0.01 0.02 0.02 0.04 0.06
0.00 0.00 0.00 0.00 0.00 0.00 0.00 0.00 0.00 0.00 0.00 0.00 0.00 0.00 0.00 0.01 0.04 0.02 0.02 0.03 0.06 0.06 0.04 0.03 0.02 0.02 0.01 0.00 0.00 0.00 0.00 0.00 0.00 0.00 0.00 0.00 0.00 0.00 0.00 0.00 0.00 0.01 0.02 0.04 0.04 0.07 0.06 0.05 0.03 0.06 0.07 0.06 0.09 0.08
0.00 0.00 0.00 0.00 0.00 0.00 0.01 0.01 0.01 0.00 0.00 0.00 0.00 0.00 0.00 0.00 0.01 0.02 0.02 0.05 0.04 0.05 0.04 0.04 0.02 0.01 0.01 0.02 0.01 0.01 0.01 0.00 0.00 0.00 0.01 0.01 0.00 0.00 0.00 0.00 0.00 0.01 0.03 0.05 0.06 0.06 0.07 0.06 0.08 0.09 0.09 0.08 0.09 0.11
0.00 0.00 0.00 0.00 0.00 0.00 0.01 0.02 0.02 0.01 0.00 0.00 0.00 0.00 0.01 0.01 0.00 0.02 0.03 0.06 0.04 0.03 0.03 0.03 0.04 0.05 0.04 0.03 0.03 0.02 0.01 0.01 0.02 0.01 0.01 0.01 0.01 0.03 0.02 0.01 0.01 0.01 0.03 0.05 0.03 0.03 0.03 0.06 0.10 0.09 0.13 0.13 0.07 0.05
0.00 0.00 0.00 0.00 0.00 0.00 0.00 0.02 0.01 0.01 0.01 0.03 0.02 0.01 0.01 0.01 0.02 0.03 0.03 0.03 0.02 0.02 0.02 0.02 0.03 0.03 0.03 0.02 0.01 0.02 0.02 0.02 0.02 0.02 0.01 0.00 0.01 0.03 0.05 0.06 0.05 0.03 0.02 0.03 0.03 0.02 0.03 0.06 0.06 0.06 0.07 0.12 0.13 0.09
0.00 0.00 0.00 0.00 0.00 0.00 0.00 0.00 0.01 0.03 0.10 0.14 0.05 0.03 0.03 0.03 0.06 0.05 0.06 0.05 0.02 0.01 0.01 0.01 0.01 0.02 0.01 0.01 0.01 0.02 0.03 0.03 0.02 0.01 0.00 0.01 0.03 0.04 0.04 0.04 0.03 0.02 0.03 0.04 0.05 0.05 0.04 0.04 0.03 0.03 0.03 0.05 0.09 0.09
0.00 0.00 0.00 0.00 0.01 0.01 0.01 0.03 0.06 0.03 0.02 0.02 0.06 0.10 0.02 0.02 0.05 0.06 0.04 0.02 0.02 0.03 0.05 0.04 0.03 0.03 0.03 0.03 0.04 0.04 0.05 0.06 0.06 0.06 0.04 0.04 0.04 0.07 0.07 0.05 0.04 0.03 0.03 0.04 0.06 0.05 0.03 0.02 0.01 0.01 0.02 0.02 0.03 0.02
0.00 0.00 0.00 0.00 0.01 0.02 0.03 0.02 0.02 0.02 0.01 0.01 0.01 0.02 0.02 0.03 0.04 0.03 0.03 0.04 0.05 0.06 0.06 0.05 0.04 0.06 0.06 0.04 0.04 0.04 0.03 0.03 0.03 0.07 0.07 0.03 0.04 0.07 0.06 0.04 0.03 0.02 0.01 0.01 0.02 0.04 0.02 0.01 0.00 0.00 0.00 0.00 0.00 0.00
0.02 0.02 0.02 0.01 0.03 0.02 0.02 0.02 0.02 0.01 0.02 0.02 0.02 0.05 0.06 0.03 0.04 0.03 0.02 0.03 0.05 0.05 0.08 0.07 0.05 0.06 0.10 0.10 0.08 0.05 0.04 0.05 0.05 0.05 0.03 0.03 0.04 0.04 0.03 0.02 0.01 0.00 0.00 0.00 0.00 0.00 0.00 0.00 0.00 0.00 0.00 0.00 0.00 0.00
0.09 0.11 0.09 0.09 0.08 0.03 0.03 0.03 0.03 0.03 0.04 0.03 0.05 0.04 0.04 0.05 0.06 0.03 0.03 0.05 0.09 0.06 0.09 0.09 0.08 0.10 0.11 0.12 0.10 0.07 0.05 0.07 0.07 0.08 0.05 0.04 0.03 0.02 0.00 0.00 0.00 0.00 0.00 0.00 0.00 0.00 0.00 0.00 0.00 0.00 0.00 0.00 0.00 0.00
0.09 0.09 0.09 0.09 0.08 0.07 0.06 0.06 0.05 0.06 0.06 0.06 0.09 0.06 0.07 0.07 0.07 0.05 0.06 0.08 0.09 0.09 0.09 0.10 0.11 0.12 0.11 0.10 0.11 0.10 0.09 0.09 0.09 0.07 0.04 0.02 0.01 0.00 0.00 0.00 0.00 0.00 0.00 0.00 0.00 0.00 0.00 0.00 0.00 0.00 0.00 0.00 0.00 0.00

GFSWCAN_prec_precacc24_153.txt.gz
Total_Precipitation_Accumulation
0.27 0.39 0.37 0.42 0.32 0.33 0.21 0.28 0.42 0.38 0.22 0.17 0.23 0.20 0.11 0.20 0.26 0.21 0.16 0.17 0.39 0.39 0.10 0.04 0.03 0.06 0.09 0.13 0.17 0.10 0.20 0.19 0.26 0.34 0.20 0.11 0.04 0.05 0.04 0.03 0.05 0.05 0.15 0.19 0.20 0.24 0.12 0.00 0.00 0.00 0.01 0.00 0.00 0.00
0.30 0.42 0.35 0.44 0.34 0.38 0.23 0.21 0.23 0.29 0.19 0.13 0.17 0.22 0.19 0.18 0.22 0.26 0.27 0.25 0.36 0.47 0.20 0.05 0.03 0.03 0.02 0.04 0.15 0.20 0.15 0.09 0.13 0.15 0.10 0.09 0.07 0.05 0.04 0.05 0.03 0.05 0.02 0.08 0.06 0.07 0.04 0.00 0.00 0.00 0.00 0.00 0.00 0.00
0.38 0.45 0.33 0.43 0.38 0.32 0.24 0.18 0.16 0.15 0.14 0.11 0.16 0.18 0.28 0.24 0.23 0.35 0.42 0.38 0.44 0.51 0.25 0.10 0.04 0.01 0.03 0.09 0.16 0.34 0.11 0.09 0.12 0.07 0.12 0.13 0.10 0.06 0.06 0.04 0.04 0.03 0.01 0.03 0.03 0.01 0.00 0.00 0.00 0.00 0.00 0.00 0.00 0.00
0.45 0.47 0.33 0.48 0.44 0.27 0.17 0.13 0.13 0.08 0.06 0.06 0.16 0.21 0.24 0.27 0.33 0.40 0.39 0.24 0.42 0.39 0.31 0.18 0.01 0.00 0.00 0.03 0.08 0.11 0.11 0.10 0.08 0.17 0.23 0.12 0.10 0.05 0.06 0.05 0.06 0.05 0.03 0.04 0.02 0.01 0.01 0.00 0.00 0.00 0.00 0.00 0.00 0.00
0.51 0.44 0.38 0.49 0.40 0.23 0.12 0.07 0.05 0.02 0.04 0.05 0.14 0.13 0.26 0.34 0.51 0.52 0.37 0.19 0.24 0.31 0.30 0.10 0.01 0.00 0.00 0.01 0.04 0.11 0.16 0.19 0.20 0.21 0.26 0.10 0.04 0.04 0.03 0.02 0.01 0.00 0.01 0.04 0.06 0.03 0.02 0.02 0.00 0.00 0.00 0.00 0.00 0.00
0.57 0.46 0.47 0.46 0.34 0.16 0.06 0.01 0.01 0.02 0.04 0.10 0.07 0.15 0.36 0.57 0.80 0.99 1.03 0.40 0.16 0.25 0.31 0.17 0.10 0.00 0.00 0.00 0.04 0.10 0.18 0.33 0.37 0.29 0.16 0.06 0.02 0.05 0.07 0.04 0.00 0.00 0.00 0.01 0.01 0.00 0.00 0.00 0.00 0.00 0.00 0.00 0.00 0.00
0.54 0.49 0.40 0.31 0.27 0.10 0.03 0.00 0.01 0.03 0.08 0.09 0.10 0.21 0.44 0.66 0.68 0.64 0.33 0.11 0.05 0.19 0.37 0.16 0.07 0.02 0.01 0.08 0.13 0.22 0.28 0.34 0.31 0.25 0.14 0.05 0.03 0.05 0.08 0.02 0.01 0.00 0.00 0.00 0.00 0.00 0.00 0.00 0.00 0.00 0.00 0.00 0.00 0.00
0.44 0.34 0.23 0.25 0.20 0.06 0.02 0.01 0.02 0.09 0.15 0.10 0.21 0.47 0.56 0.66 0.66 0.30 0.06 0.07 0.21 0.32 0.19 0.13 0.08 0.06 0.08 0.17 0.17 0.20 0.28 0.32 0.29 0.19 0.07 0.03 0.04 0.05 0.05 0.00 0.00 0.00 0.00 0.00 0.00 0.00 0.00 0.00 0.00 0.00 0.00 0.00 0.00 0.00
0.38 0.29 0.22 0.22 0.14 0.05 0.02 0.01 0.04 0.24 0.16 0.24 0.44 0.62 0.62 0.57 0.40 0.15 0.11 0.20 0.31 0.40 0.35 0.10 0.04 0.07 0.06 0.14 0.16 0.13 0.15 0.16 0.09 0.05 0.02 0.03 0.10 0.05 0.00 0.00 0.00 0.00 0.00 0.00 0.00 0.00 0.00 0.00 0.00 0.00 0.00 0.00 0.00 0.00
0.33 0.23 0.21 0.16 0.08 0.07 0.04 0.04 0.17 0.39 0.27 0.36 0.41 0.41 0.42 0.15 0.13 0.24 0.41 0.64 0.71 0.43 0.14 0.06 0.02 0.04 0.05 0.12 0.12 0.05 0.02 0.02 0.02 0.02 0.01 0.01 0.01 0.00 0.00 0.00 0.00 0.00 0.00 0.00 0.00 0.00 0.00 0.00 0.00 0.00 0.00 0.00 0.00 0.00
0.26 0.18 0.17 0.14 0.11 0.11 0.07 0.16 0.37 0.51 0.30 0.29 0.30 0.31 0.27 0.28 0.36 0.33 0.38 0.31 0.28 0.19 0.04 0.01 0.00 0.03 0.03 0.07 0.06 0.02 0.01 0.00 0.01 0.01 0.01 0.01 0.01 0.00 0.00 0.00 0.00 0.00 0.00 0.00 0.00 0.00 0.00 0.00 0.00 0.00 0.00 0.00 0.00 0.00
0.23 0.16 0.14 0.14 0.12 0.16 0.11 0.20 0.35 0.24 0.19 0.23 0.40 0.36 0.49 0.43 0.24 0.16 0.16 0.08 0.06 0.04 0.01 0.01 0.00 0.03 0.08 0.02 0.03 0.01 0.00 0.00 0.01 0.00 0.00 0.00 0.00 0.00 0.00 0.00 0.00 0.00 0.00 0.00 0.00 0.00 0.00 0.00 0.00 0.00 0.00 0.00 0.00 0.00
0.16 0.13 0.18 0.13 0.15 0.15 0.12 0.20 0.12 0.20 0.30 0.41 0.35 0.23 0.22 0.13 0.09 0.05 0.04 0.02 0.04 0.01 0.01 0.01 0.03 0.06 0.07 0.05 0.02 0.00 0.00 0.00 0.00 0.00 0.00 0.00 0.00 0.00 0.00 0.00 0.00 0.00 0.00 0.00 0.00 0.00 0.00 0.00 0.00 0.00 0.00 0.00 0.00 0.00
0.17 0.19 0.18 0.09 0.08 0.11 0.15 0.21 0.19 0.28 0.25 0.20 0.08 0.09 0.09 0.03 0.01 0.01 0.02 0.01 0.01 0.00 0.01 0.02 0.06 0.05 0.03 0.02 0.00 0.00 0.00 0.00 0.00 0.00 0.00 0.00 0.00 0.00 0.00 0.00 0.00 0.00 0.00 0.00 0.00 0.00 0.00 0.00 0.00 0.00 0.00 0.00 0.00 0.00
0.20 0.18 0.08 0.05 0.11 0.16 0.17 0.14 0.17 0.16 0.11 0.08 0.04 0.05 0.01 0.02 0.01 0.00 0.01 0.01 0.00 0.01 0.01 0.03 0.03 0.01 0.00 0.00 0.00 0.00 0.00 0.00 0.00 0.01 0.02 0.00 0.00 0.00 0.00 0.00 0.00 0.00 0.00 0.00 0.00 0.00 0.00 0.00 0.00 0.00 0.00 0.00 0.00 0.00
0.15 0.10 0.08 0.11 0.12 0.11 0.12 0.09 0.05 0.04 0.03 0.03 0.02 0.03 0.02 0.03 0.03 0.02 0.02 0.01 0.00 0.02 0.03 0.01 0.00 0.00 0.00 0.00 0.00 0.00 0.00 0.00 0.00 0.01 0.01 0.00 0.00 0.00 0.00 0.00 0.00 0.00 0.00 0.00 0.00 0.00 0.00 0.00 0.00 0.00 0.00 0.00 0.00 0.00
0.02 0.09 0.11 0.09 0.10 0.11 0.08 0.02 0.04 0.08 0.05 0.04 0.05 0.04 0.04 0.05 0.04 0.04 0.03 0.01 0.00 0.03 0.02 0.00 0.00 0.00 0.00 0.00 0.00 0.00 0.01 0.01 0.01 0.01 0.01 0.00 0.00 0.00 0.00 0.00 0.00 0.00 0.00 0.00 0.00 0.00 0.00 0.00 0.00 0.00 0.00 0.00 0.00 0.00
0.01 0.01 0.02 0.03 0.03 0.02 0.01 0.01 0.01 0.01 0.04 0.08 0.07 0.05 0.03 0.03 0.04 0.05 0.02 0.00 0.04 0.05 0.01 0.00 0.00 0.00 0.00 0.00 0.01 0.01 0.01 0.02 0.03 0.03 0.03 0.01 0.00 0.00 0.00 0.00 0.00 0.00 0.00 0.00 0.00 0.00 0.00 0.00 0.00 0.00 0.00 0.00 0.00 0.00
0.01 0.00 0.00 0.00 0.01 0.00 0.00 0.00 0.00 0.01 0.05 0.04 0.04 0.03 0.03 0.05 0.05 0.04 0.02 0.01 0.05 0.03 0.02 0.01 0.01 0.01 0.03 0.04 0.02 0.02 0.01 0.01 0.02 0.03 0.03 0.01 0.00 0.00 0.00 0.00 0.00 0.00 0.00 0.00 0.00 0.00 0.00 0.00 0.00 0.00 0.00 0.00 0.00 0.00
0.00 0.00 0.00 0.00 0.00 0.00 0.00 0.00 0.00 0.01 0.05 0.04 0.03 0.03 0.04 0.07 0.05 0.05 0.06 0.00 0.01 0.07 0.05 0.02 0.04 0.06 0.06 0.04 0.04 0.01 0.01 0.01 0.01 0.01 0.02 0.01 0.01 0.00 0.00 0.00 0.00 0.00 0.00 0.00 0.00 0.00 0.00 0.00 0.00 0.00 0.00 0.00 0.01 0.01
0.00 0.00 0.00 0.00 0.00 0.00 0.00 0.00 0.00 0.00 0.01 0.02 0.03 0.02 0.05 0.05 0.09 0.08 0.13 0.02 0.03 0.10 0.08 0.07 0.08 0.12 0.06 0.01 0.00 0.00 0.00 0.00 0.00 0.00 0.00 0.01 0.01 0.00 0.00 0.00 0.00 0.00 0.00 0.01 0.00 0.00 0.00 0.00 0.00 0.00 0.01 0.01 0.01 0.01
0.00 0.00 0.00 0.00 0.00 0.00 0.00 0.00 0.00 0.00 0.00 0.01 0.01 0.02 0.04 0.08 0.09 0.07 0.06 0.03 0.09 0.10 0.06 0.05 0.07 0.06 0.02 0.01 0.00 0.00 0.00 0.00 0.00 0.00 0.00 0.00 0.00 0.00 0.00 0.00 0.00 0.00 0.00 0.00 0.00 0.00 0.00 0.00 0.00 0.00 0.01 0.00 0.01 0.01
0.00 0.00 0.00 0.00 0.00 0.00 0.00 0.00 0.00 0.00 0.00 0.00 0.00 0.00 0.01 0.02 0.06 0.03 0.04 0.05 0.07 0.11 0.05 0.04 0.05 0.03 0.01 0.00 0.00 0.00 0.00 0.00 0.00 0.00 0.00 0.00 0.00 0.00 0.00 0.01 0.00 0.01 0.01 0.01 0.01 0.03 0.02 0.01 0.00 0.01 0.02 0.01 0.04 0.05
0.00 0.00 0.00 0.00 0.00 0.00 0.00 0.00 0.00 0.00 0.00 0.00 0.00 0.00 0.01 0.02 0.04 0.02 0.03 0.03 0.06 0.06 0.05 0.04 0.03 0.03 0.02 0.00 0.00 0.00 0.00 0.00 0.00 0.00 0.00 0.00 0.00 0.00 0.00 0.00 0.00 0.01 0.02 0.04 0.05 0.07 0.08 0.06 0.04 0.06 0.07 0.06 0.08 0.07
0.00 0.00 0.00 0.00 0.00 0.00 0.00 0.00 0.00 0.00 0.00 0.00 0.00 0.00 0.00 0.00 0.01 0.02 0.01 0.06 0.04 0.06 0.05 0.06 0.04 0.02 0.02 0.03 0.02 0.01 0.01 0.00 0.00 0.00 0.01 0.01 0.00 0.00 0.00 0.00 0.00 0.01 0.03 0.05 0.07 0.07 0.08 0.08 0.10 0.11 0.09 0.09 0.09 0.11
0.00 0.00 0.00 0.00 0.00 0.00 0.01 0.02 0.01 0.01 0.00 0.00 0.00 0.00 0.00 0.00 0.00 0.01 0.03 0.06 0.04 0.04 0.04 0.05 0.05 0.05 0.05 0.04 0.04 0.03 0.02 0.01 0.02 0.00 0.01 0.01 0.01 0.03 0.02 0.01 0.01 0.01 0.03 0.05 0.03 0.04 0.04 0.07 0.11 0.09 0.13 0.14 0.09 0.06
0.00 0.00 0.00 0.00 0.00 0.00 0.00 0.01 0.01 0.01 0.01 0.02 0.01 0.00 0.00 0.00 0.01 0.03 0.03 0.03 0.03 0.03 0.02 0.02 0.02 0.03 0.03 0.02 0.02 0.02 0.02 0.01 0.01 0.01 0.01 0.01 0.01 0.03 0.05 0.05 0.04 0.03 0.02 0.03 0.02 0.02 0.03 0.05 0.05 0.05 0.08 0.13 0.14 0.10
0.00 0.00 0.00 0.00 0.00 0.00 0.00 0.00 0.01 0.02 0.10 0.14 0.03 0.02 0.02 0.03 0.05 0.04 0.04 0.04 0.03 0.01 0.00 0.01 0.01 0.02 0.01 0.01 0.01 0.01 0.02 0.01 0.00 0.00 0.00 0.01 0.02 0.04 0.05 0.04 0.04 0.02 0.03 0.04 0.05 0.04 0.04 0.03 0.03 0.04 0.04 0.06 0.10 0.11
0.00 0.00 0.00 0.00 0.00 0.00 0.01 0.02 0.05 0.02 0.02 0.02 0.04 0.08 0.02 0.02 0.04 0.04 0.03 0.02 0.02 0.03 0.05 0.03 0.03 0.02 0.02 0.02 0.03 0.03 0.04 0.04 0.04 0.03 0.02 0.02 0.02 0.04 0.04 0.03 0.03 0.03 0.03 0.04 0.06 0.05 0.04 0.02 0.02 0.02 0.02 0.03 0.05 0.05
0.00 0.00 0.00 0.00 0.00 0.01 0.03 0.01 0.02 0.01 0.01 0.01 0.00 0.01 0.01 0.03 0.03 0.02 0.02 0.03 0.05 0.06 0.06 0.04 0.03 0.05 0.05 0.02 0.03 0.03 0.03 0.02 0.02 0.05 0.04 0.01 0.02 0.04 0.03 0.03 0.03 0.02 0.02 0.01 0.03 0.05 0.03 0.01 0.01 0.01 0.01 0.01 0.01 0.01
0.01 0.00 0.01 0.01 0.02 0.02 0.01 0.01 0.01 0.01 0.01 0.02 0.02 0.03 0.05 0.03 0.03 0.01 0.01 0.02 0.04 0.05 0.07 0.07 0.04 0.04 0.07 0.07 0.05 0.03 0.03 0.04 0.04 0.04 0.02 0.02 0.02 0.02 0.03 0.02 0.01 0.01 0.01 0.01 0.01 0.01 0.00 0.00 0.00 0.00 0.00 0.00 0.00 0.00
0.05 0.06 0.06 0.08 0.07 0.03 0.02 0.03 0.03 0.04 0.05 0.04 0.05 0.04 0.04 0.03 0.05 0.02 0.02 0.03 0.07 0.05 0.07 0.07 0.06 0.07 0.07 0.09 0.08 0.06 0.04 0.06 0.06 0.07 0.05 0.04 0.04 0.03 0.01 0.01 0.01 0.01 0.00 0.00 0.00 0.00 0.00 0.00 0.00 0.00 0.00 0.00 0.00 0.00
0.05 0.05 0.06 0.07 0.06 0.05 0.04 0.03 0.04 0.04 0.05 0.05 0.08 0.05 0.05 0.05 0.05 0.03 0.02 0.03 0.04 0.04 0.05 0.07 0.08 0.08 0.08 0.09 0.10 0.11 0.09 0.10 0.10 0.09 0.07 0.04 0.03 0.02 0.01 0.01 0.00 0.00 0.00 0.00 0.00 0.00 0.00 0.00 0.00 0.00 0.00 0.00 0.00 0.00

GFSWCAN_prec_precacc24_159.txt.gz
Total_Precipitation_Accumulation
0.32 0.40 0.32 0.30 0.21 0.27 0.22 0.27 0.42 0.47 0.36 0.30 0.34 0.41 0.41 0.46 0.49 0.41 0.26 0.24 0.41 0.37 0.07 0.04 0.03 0.06 0.09 0.15 0.22 0.17 0.26 0.25 0.35 0.43 0.26 0.14 0.06 0.06 0.06 0.04 0.12 0.17 0.29 0.26 0.22 0.28 0.09 0.00 0.04 0.07 0.05 0.00 0.00 0.00
0.31 0.37 0.28 0.28 0.23 0.32 0.26 0.22 0.25 0.39 0.34 0.30 0.29 0.43 0.45 0.40 0.45 0.39 0.32 0.25 0.39 0.54 0.17 0.05 0.02 0.02 0.02 0.05 0.17 0.23 0.20 0.16 0.20 0.20 0.19 0.19 0.17 0.14 0.12 0.13 0.08 0.14 0.11 0.11 0.09 0.10 0.08 0.03 0.05 0.05 0.02 0.00 0.00 0.00
0.37 0.35 0.22 0.22 0.24 0.32 0.31 0.23 0.20 0.30 0.28 0.26 0.31 0.37 0.58 0.47 0.35 0.41 0.39 0.40 0.54 0.56 0.23 0.08 0.04 0.01 0.03 0.09 0.16 0.34 0.11 0.11 0.16 0.12 0.18 0.18 0.14 0.11 0.13 0.09 0.11 0.09 0.07 0.12 0.10 0.04 0.11 0.10 0.01 0.00 0.00 0.00 0.00 0.00
0.42 0.30 0.18 0.26 0.29 0.30 0.29 0.21 0.18 0.26 0.27 0.25 0.32 0.43 0.49 0.54 0.50 0.46 0.43 0.30 0.50 0.43 0.31 0.16 0.01 0.00 0.00 0.03 0.08 0.11 0.11 0.10 0.09 0.23 0.32 0.19 0.13 0.11 0.14 0.18 0.22 0.19 0.17 0.25 0.27 0.12 0.06 0.09 0.02 0.01 0.00 0.00 0.00 0.00
0.45 0.23 0.19 0.33 0.34 0.33 0.27 0.20 0.18 0.26 0.29 0.29 0.30 0.36 0.49 0.54 0.64 0.59 0.46 0.32 0.30 0.38 0.37 0.10 0.01 0.00 0.00 0.01 0.04 0.11 0.16 0.19 0.23 0.28 0.35 0.15 0.06 0.08 0.07 0.06 0.02 0.01 0.08 0.17 0.23 0.10 0.04 0.05 0.00 0.00 0.00 0.00 0.00 0.00
0.39 0.23 0.31 0.43 0.41 0.34 0.25 0.21 0.22 0.30 0.31 0.35 0.27 0.37 0.58 0.76 0.96 1.12 1.24 0.56 0.28 0.34 0.36 0.17 0.09 0.00 0.00 0.01 0.05 0.12 0.20 0.35 0.42 0.34 0.20 0.09 0.04 0.13 0.14 0.05 0.00 0.01 0.03 0.06 0.09 0.04 0.01 0.00 0.00 0.00 0.00 0.00 0.00 0.00
0.31 0.31 0.44 0.50 0.45 0.34 0.19 0.23 0.29 0.33 0.33 0.33 0.30 0.40 0.61 0.82 0.78 0.71 0.41 0.14 0.09 0.27 0.44 0.17 0.07 0.03 0.01 0.08 0.15 0.25 0.36 0.45 0.40 0.32 0.19 0.07 0.05 0.14 0.16 0.03 0.01 0.00 0.00 0.00 0.00 0.00 0.00 0.00 0.00 0.00 0.00 0.00 0.00 0.00
0.33 0.45 0.48 0.47 0.39 0.20 0.18 0.26 0.33 0.33 0.38 0.29 0.37 0.58 0.65 0.73 0.75 0.42 0.14 0.07 0.23 0.35 0.24 0.15 0.07 0.13 0.11 0.19 0.21 0.23 0.32 0.37 0.37 0.34 0.20 0.06 0.07 0.14 0.12 0.00 0.00 0.00 0.00 0.00 0.00 0.00 0.00 0.00 0.00 0.00 0.00 0.00 0.00 0.00
0.43 0.47 0.40 0.32 0.23 0.18 0.18 0.19 0.20 0.38 0.28 0.32 0.50 0.73 0.75 0.68 0.51 0.26 0.17 0.22 0.33 0.41 0.37 0.11 0.03 0.13 0.10 0.16 0.17 0.19 0.21 0.22 0.18 0.13 0.05 0.06 0.14 0.10 0.01 0.00 0.00 0.00 0.00 0.00 0.00 0.00 0.00 0.00 0.00 0.00 0.00 0.00 0.00 0.00
0.29 0.30 0.25 0.19 0.11 0.11 0.07 0.05 0.16 0.40 0.28 0.39 0.51 0.58 0.55 0.25 0.21 0.33 0.59 0.83 0.84 0.53 0.18 0.07 0.03 0.09 0.12 0.17 0.25 0.20 0.17 0.16 0.10 0.04 0.04 0.06 0.02 0.00 0.00 0.00 0.00 0.00 0.01 0.00 0.00 0.00 0.00 0.00 0.00 0.00 0.00 0.00 0.00 0.00
0.23 0.17 0.15 0.11 0.09 0.11 0.04 0.09 0.36 0.54 0.36 0.35 0.38 0.41 0.34 0.40 0.53 0.49 0.50 0.40 0.38 0.24 0.04 0.01 0.00 0.05 0.11 0.13 0.14 0.14 0.19 0.16 0.12 0.08 0.06 0.05 0.01 0.00 0.00 0.00 0.00 0.02 0.01 0.00 0.00 0.00 0.00 0.00 0.00 0.00 0.00 0.00 0.00 0.00
0.21 0.14 0.14 0.14 0.12 0.14 0.07 0.19 0.38 0.28 0.23 0.24 0.41 0.40 0.62 0.53 0.31 0.20 0.20 0.11 0.08 0.05 0.01 0.01 0.01 0.03 0.10 0.06 0.09 0.07 0.10 0.19 0.10 0.04 0.03 0.00 0.00 0.00 0.00 0.01 0.01 0.02 0.02 0.00 0.00 0.00 0.00 0.00 0.00 0.00 0.00 0.00 0.00 0.00
0.14 0.13 0.18 0.13 0.14 0.13 0.11 0.21 0.18 0.22 0.30 0.41 0.35 0.26 0.27 0.18 0.19 0.08 0.08 0.04 0.06 0.05 0.03 0.05 0.04 0.06 0.07 0.06 0.09 0.08 0.07 0.02 0.01 0.01 0.00 0.00 0.00 0.00 0.00 0.00 0.00 0.00 0.00 0.00 0.00 0.00 0.00 0.00 0.00 0.00 0.00 0.00 0.00 0.00
0.16 0.19 0.17 0.09 0.08 0.12 0.16 0.23 0.21 0.29 0.25 0.21 0.11 0.13 0.14 0.10 0.02 0.02 0.05 0.05 0.06 0.06 0.08 0.07 0.07 0.06 0.04 0.04 0.04 0.06 0.03 0.01 0.00 0.00 0.00 0.00 0.00 0.00 0.00 0.00 0.00 0.00 0.00 0.00 0.00 0.00 0.00 0.00 0.00 0.00 0.00 0.00 0.00 0.00
0.17 0.17 0.07 0.05 0.12 0.17 0.20 0.21 0.18 0.16 0.11 0.10 0.06 0.11 0.02 0.03 0.02 0.01 0.00 0.01 0.01 0.05 0.08 0.10 0.13 0.08 0.16 0.05 0.01 0.02 0.00 0.00 0.00 0.00 0.00 0.00 0.00 0.00 0.00 0.00 0.00 0.00 0.00 0.00 0.00 0.00 0.00 0.00 0.00 0.00 0.00 0.00 0.00 0.00
0.13 0.09 0.09 0.13 0.14 0.12 0.17 0.12 0.05 0.05 0.04 0.04 0.03 0.04 0.03 0.03 0.03 0.02 0.02 0.01 0.01 0.06 0.09 0.12 0.12 0.09 0.08 0.01 0.00 0.00 0.00 0.00 0.00 0.00 0.00 0.00 0.00 0.00 0.00 0.00 0.00 0.00 0.00 0.00 0.00 0.00 0.00 0.00 0.00 0.00 0.00 0.00 0.00 0.00
0.02 0.10 0.19 0.16 0.14 0.15 0.12 0.03 0.05 0.08 0.05 0.04 0.06 0.04 0.03 0.05 0.06 0.05 0.03 0.01 0.01 0.08 0.19 0.21 0.03 0.01 0.00 0.00 0.00 0.00 0.00 0.00 0.01 0.01 0.01 0.00 0.00 0.00 0.00 0.00 0.00 0.00 0.00 0.00 0.00 0.00 0.00 0.00 0.00 0.00 0.00 0.00 0.00 0.00
0.03 0.05 0.09 0.09 0.04 0.03 0.01 0.01 0.04 0.05 0.07 0.09 0.07 0.07 0.04 0.05 0.05 0.06 0.03 0.00 0.04 0.09 0.07 0.07 0.01 0.00 0.00 0.01 0.02 0.01 0.01 0.02 0.03 0.03 0.03 0.01 0.00 0.00 0.00 0.00 0.00 0.00 0.00 0.00 0.00 0.00 0.00 0.00 0.00 0.00 0.00 0.00 0.00 0.00
0.04 0.02 0.01 0.00 0.00 0.02 0.02 0.01 0.02 0.04 0.05 0.05 0.03 0.02 0.03 0.07 0.06 0.06 0.02 0.01 0.05 0.10 0.19 0.03 0.01 0.01 0.02 0.01 0.01 0.01 0.01 0.01 0.02 0.03 0.03 0.01 0.00 0.00 0.01 0.01 0.00 0.00 0.00 0.00 0.00 0.00 0.00 0.00 0.00 0.00 0.00 0.00 0.00 0.00
0.00 0.00 0.00 0.00 0.00 0.03 0.02 0.01 0.01 0.02 0.02 0.03 0.01 0.02 0.04 0.06 0.05 0.07 0.07 0.01 0.01 0.03 0.04 0.01 0.02 0.04 0.05 0.03 0.02 0.01 0.01 0.01 0.01 0.02 0.03 0.03 0.02 0.00 0.00 0.00 0.00 0.00 0.00 0.00 0.00 0.00 0.00 0.00 0.00 0.00 0.00 0.00 0.01 0.01
0.00 0.00 0.00 0.00 0.00 0.00 0.00 0.00 0.01 0.00 0.01 0.02 0.03 0.04 0.06 0.04 0.07 0.07 0.14 0.02 0.00 0.03 0.03 0.05 0.07 0.11 0.06 0.01 0.00 0.00 0.00 0.00 0.00 0.00 0.01 0.03 0.02 0.01 0.01 0.00 0.00 0.00 0.00 0.01 0.00 0.00 0.00 0.00 0.00 0.00 0.01 0.02 0.03 0.03
0.00 0.00 0.00 0.00 0.00 0.00 0.00 0.00 0.00 0.00 0.01 0.02 0.02 0.03 0.07 0.08 0.09 0.07 0.06 0.03 0.05 0.07 0.05 0.05 0.07 0.06 0.02 0.01 0.00 0.00 0.00 0.00 0.00 0.00 0.00 0.00 0.01 0.01 0.01 0.01 0.00 0.00 0.00 0.00 0.00 0.00 0.00 0.00 0.00 0.01 0.01 0.01 0.01 0.02
0.00 0.00 0.00 0.00 0.00 0.00 0.00 0.00 0.00 0.00 0.02 0.02 0.01 0.02 0.02 0.03 0.06 0.03 0.03 0.03 0.05 0.10 0.05 0.04 0.05 0.03 0.01 0.00 0.00 0.00 0.00 0.00 0.00 0.00 0.00 0.00 0.00 0.00 0.00 0.01 0.00 0.01 0.01 0.01 0.00 0.01 0.01 0.01 0.01 0.01 0.01 0.01 0.02 0.04
0.00 0.00 0.00 0.00 0.00 0.00 0.00 0.00 0.00 0.00 0.00 0.00 0.01 0.01 0.01 0.02 0.04 0.02 0.03 0.03 0.05 0.06 0.05 0.04 0.04 0.03 0.02 0.00 0.00 0.00 0.00 0.00 0.00 0.00 0.00 0.00 0.00 0.01 0.00 0.00 0.00 0.00 0.01 0.03 0.04 0.06 0.06 0.05 0.03 0.05 0.05 0.04 0.05 0.06
0.00 0.00 0.00 0.00 0.00 0.00 0.00 0.00 0.00 0.00 0.00 0.00 0.01 0.02 0.01 0.00 0.02 0.02 0.01 0.04 0.04 0.05 0.05 0.06 0.04 0.02 0.02 0.03 0.01 0.01 0.01 0.00 0.00 0.00 0.01 0.01 0.00 0.00 0.00 0.00 0.00 0.01 0.02 0.03 0.04 0.06 0.07 0.07 0.09 0.09 0.09 0.08 0.07 0.08
0.00 0.00 0.00 0.00 0.00 0.00 0.00 0.00 0.00 0.00 0.00 0.00 0.01 0.01 0.00 0.01 0.02 0.02 0.03 0.05 0.04 0.04 0.05 0.06 0.07 0.07 0.06 0.03 0.03 0.03 0.02 0.01 0.00 0.00 0.01 0.01 0.01 0.01 0.00 0.00 0.00 0.01 0.02 0.02 0.03 0.03 0.04 0.07 0.09 0.09 0.12 0.12 0.09 0.06
0.00 0.00 0.00 0.00 0.00 0.00 0.00 0.00 0.00 0.00 0.00 0.00 0.01 0.01 0.01 0.01 0.02 0.03 0.03 0.03 0.03 0.04 0.03 0.05 0.06 0.06 0.04 0.02 0.02 0.02 0.02 0.02 0.01 0.01 0.01 0.01 0.01 0.02 0.02 0.01 0.02 0.02 0.02 0.02 0.01 0.02 0.02 0.03 0.05 0.06 0.08 0.12 0.14 0.10
0.00 0.00 0.00 0.00 0.00 0.00 0.00 0.00 0.01 0.01 0.06 0.08 0.01 0.01 0.01 0.02 0.03 0.03 0.03 0.03 0.03 0.01 0.01 0.02 0.03 0.04 0.02 0.01 0.03 0.03 0.05 0.04 0.02 0.01 0.01 0.02 0.03 0.03 0.03 0.03 0.02 0.02 0.02 0.02 0.01 0.01 0.01 0.02 0.03 0.04 0.04 0.07 0.12 0.12
0.00 0.00 0.00 0.00 0.00 0.00 0.01 0.01 0.01 0.01 0.01 0.02 0.02 0.02 0.02 0.01 0.03 0.03 0.03 0.02 0.02 0.03 0.03 0.02 0.04 0.04 0.04 0.04 0.05 0.04 0.05 0.04 0.03 0.02 0.02 0.02 0.02 0.02 0.03 0.02 0.02 0.03 0.03 0.03 0.05 0.05 0.04 0.03 0.03 0.02 0.03 0.04 0.06 0.06
0.01 0.00 0.00 0.01 0.00 0.00 0.01 0.01 0.02 0.02 0.01 0.01 0.01 0.01 0.01 0.02 0.02 0.02 0.02 0.02 0.03 0.04 0.06 0.05 0.03 0.03 0.03 0.02 0.04 0.05 0.06 0.05 0.04 0.03 0.02 0.02 0.01 0.01 0.02 0.02 0.02 0.03 0.03 0.02 0.03 0.05 0.03 0.02 0.01 0.01 0.01 0.01 0.02 0.02
0.01 0.01 0.01 0.01 0.01 0.01 0.01 0.01 0.01 0.01 0.02 0.02 0.02 0.02 0.03 0.04 0.02 0.01 0.01 0.02 0.04 0.04 0.06 0.06 0.04 0.04 0.05 0.04 0.02 0.02 0.03 0.03 0.03 0.02 0.01 0.01 0.01 0.01 0.02 0.03 0.02 0.02 0.01 0.01 0.01 0.01 0.01 0.01 0.01 0.01 0.01 0.01 0.01 0.01
0.04 0.04 0.04 0.05 0.05 0.04 0.02 0.02 0.03 0.04 0.04 0.05 0.05 0.06 0.06 0.04 0.03 0.03 0.03 0.03 0.04 0.05 0.06 0.07 0.07 0.06 0.07 0.08 0.06 0.05 0.04 0.03 0.03 0.05 0.04 0.03 0.03 0.03 0.02 0.02 0.01 0.01 0.01 0.01 0.01 0.01 0.01 0.01 0.01 0.01 0.00 0.00 0.00 0.00
0.03 0.03 0.04 0.05 0.04 0.05 0.04 0.02 0.03 0.04 0.05 0.04 0.06 0.06 0.07 0.06 0.05 0.05 0.02 0.03 0.05 0.06 0.09 0.10 0.12 0.10 0.08 0.08 0.08 0.08 0.08 0.08 0.08 0.08 0.06 0.04 0.04 0.03 0.03 0.02 0.02 0.01 0.01 0.01 0.01 0.01 0.00 0.00 0.00 0.00 0.00 0.00 0.00 0.00

GFSWCAN_prec_precacc24_162.txt.gz
Total_Precipitation_Accumulation
0.34 0.42 0.34 0.32 0.23 0.26 0.17 0.23 0.41 0.47 0.35 0.29 0.33 0.40 0.40 0.42 0.45 0.60 0.50 0.41 0.56 0.39 0.06 0.02 0.02 0.05 0.07 0.14 0.21 0.16 0.24 0.22 0.35 0.43 0.26 0.13 0.06 0.06 0.05 0.04 0.12 0.18 0.32 0.31 0.29 0.37 0.11 0.00 0.04 0.07 0.06 0.01 0.00 0.00
0.31 0.38 0.29 0.29 0.25 0.28 0.19 0.20 0.25 0.40 0.34 0.30 0.29 0.42 0.42 0.35 0.44 0.52 0.59 0.44 0.54 0.56 0.15 0.03 0.02 0.02 0.02 0.04 0.17 0.23 0.21 0.16 0.21 0.21 0.21 0.22 0.20 0.15 0.12 0.13 0.10 0.16 0.17 0.23 0.13 0.11 0.08 0.03 0.06 0.07 0.03 0.00 0.00 0.00
0.37 0.36 0.23 0.23 0.25 0.26 0.24 0.20 0.20 0.31 0.29 0.27 0.30 0.36 0.52 0.41 0.44 0.49 0.47 0.48 0.73 0.61 0.16 0.02 0.01 0.00 0.03 0.08 0.16 0.34 0.11 0.12 0.17 0.14 0.18 0.19 0.15 0.11 0.12 0.09 0.11 0.10 0.10 0.25 0.22 0.08 0.13 0.10 0.01 0.01 0.00 0.00 0.00 0.00
0.43 0.30 0.18 0.24 0.28 0.26 0.27 0.22 0.21 0.29 0.29 0.25 0.28 0.38 0.46 0.49 0.47 0.56 0.47 0.43 0.63 0.47 0.24 0.07 0.00 0.00 0.00 0.03 0.08 0.11 0.11 0.10 0.10 0.23 0.33 0.21 0.14 0.11 0.14 0.18 0.22 0.19 0.18 0.28 0.32 0.22 0.14 0.15 0.06 0.03 0.00 0.00 0.00 0.00
0.45 0.24 0.19 0.34 0.32 0.30 0.27 0.21 0.20 0.28 0.30 0.28 0.25 0.36 0.46 0.55 0.68 0.74 0.57 0.39 0.34 0.40 0.35 0.08 0.01 0.00 0.00 0.01 0.04 0.11 0.16 0.19 0.23 0.28 0.35 0.15 0.06 0.08 0.07 0.06 0.02 0.01 0.08 0.18 0.26 0.19 0.07 0.07 0.01 0.00 0.01 0.00 0.00 0.00
0.39 0.22 0.29 0.38 0.31 0.30 0.27 0.23 0.22 0.30 0.31 0.32 0.27 0.37 0.58 0.81 1.17 1.40 1.53 0.67 0.30 0.34 0.36 0.17 0.09 0.00 0.00 0.01 0.05 0.12 0.20 0.35 0.42 0.34 0.20 0.09 0.04 0.13 0.14 0.05 0.00 0.02 0.05 0.10 0.14 0.11 0.06 0.01 0.01 0.01 0.01 0.00 0.00 0.00
0.31 0.31 0.41 0.39 0.33 0.33 0.20 0.25 0.30 0.33 0.34 0.36 0.36 0.52 0.80 1.14 1.07 0.86 0.51 0.19 0.10 0.29 0.45 0.17 0.07 0.03 0.01 0.08 0.15 0.25 0.36 0.46 0.42 0.34 0.20 0.07 0.05 0.15 0.18 0.03 0.01 0.00 0.00 0.01 0.01 0.01 0.00 0.00 0.00 0.00 0.00 0.00 0.00 0.00
0.32 0.39 0.42 0.45 0.40 0.24 0.25 0.35 0.39 0.37 0.45 0.47 0.64 0.95 1.08 1.01 0.92 0.47 0.14 0.07 0.23 0.36 0.24 0.15 0.06 0.13 0.11 0.19 0.21 0.24 0.34 0.41 0.40 0.36 0.21 0.06 0.08 0.14 0.13 0.00 0.00 0.00 0.00 0.00 0.00 0.00 0.00 0.00 0.00 0.00 0.00 0.00 0.00 0.00
0.41 0.37 0.41 0.38 0.31 0.40 0.46 0.40 0.34 0.61 0.62 0.78 0.97 1.08 0.94 0.77 0.56 0.27 0.18 0.22 0.33 0.41 0.37 0.11 0.03 0.13 0.10 0.17 0.18 0.20 0.23 0.26 0.22 0.18 0.06 0.08 0.17 0.11 0.01 0.00 0.00 0.00 0.00 0.00 0.00 0.00 0.00 0.00 0.00 0.00 0.00 0.00 0.00 0.00
0.27 0.25 0.26 0.27 0.30 0.35 0.25 0.18 0.31 0.60 0.49 0.53 0.58 0.63 0.65 0.30 0.22 0.34 0.60 0.85 0.86 0.54 0.18 0.07 0.03 0.09 0.12 0.25 0.31 0.21 0.18 0.16 0.11 0.05 0.04 0.07 0.03 0.00 0.00 0.00 0.00 0.00 0.01 0.01 0.02 0.01 0.00 0.00 0.00 0.00 0.00 0.00 0.00 0.00
0.14 0.16 0.16 0.16 0.16 0.18 0.11 0.13 0.38 0.57 0.38 0.36 0.39 0.42 0.37 0.42 0.54 0.49 0.52 0.43 0.39 0.24 0.05 0.01 0.00 0.05 0.11 0.13 0.19 0.24 0.26 0.21 0.16 0.08 0.07 0.07 0.01 0.00 0.00 0.00 0.00 0.02 0.01 0.01 0.01 0.00 0.00 0.00 0.00 0.00 0.00 0.00 0.00 0.00
0.17 0.11 0.11 0.12 0.12 0.14 0.08 0.19 0.38 0.28 0.23 0.24 0.42 0.44 0.65 0.55 0.33 0.21 0.21 0.11 0.08 0.05 0.01 0.01 0.01 0.03 0.10 0.08 0.14 0.13 0.20 0.31 0.29 0.15 0.09 0.03 0.00 0.00 0.00 0.01 0.02 0.02 0.02 0.01 0.00 0.00 0.00 0.00 0.00 0.00 0.00 0.00 0.00 0.00
0.13 0.12 0.17 0.13 0.14 0.13 0.11 0.21 0.18 0.22 0.30 0.41 0.35 0.27 0.27 0.18 0.19 0.08 0.08 0.04 0.06 0.05 0.04 0.06 0.04 0.06 0.07 0.07 0.09 0.08 0.13 0.06 0.08 0.12 0.02 0.00 0.00 0.00 0.00 0.00 0.00 0.00 0.01 0.02 0.00 0.00 0.00 0.00 0.00 0.00 0.00 0.00 0.00 0.00
0.16 0.19 0.17 0.09 0.08 0.12 0.16 0.23 0.21 0.29 0.25 0.21 0.11 0.13 0.14 0.10 0.02 0.02 0.05 0.05 0.06 0.07 0.09 0.11 0.10 0.07 0.05 0.04 0.04 0.07 0.07 0.03 0.00 0.00 0.00 0.00 0.00 0.00 0.00 0.00 0.00 0.00 0.00 0.00 0.00 0.00 0.00 0.00 0.00 0.00 0.00 0.00 0.00 0.00
0.17 0.17 0.07 0.05 0.12 0.17 0.20 0.21 0.18 0.16 0.11 0.10 0.06 0.11 0.02 0.03 0.02 0.01 0.00 0.01 0.02 0.05 0.11 0.21 0.28 0.14 0.18 0.06 0.02 0.02 0.01 0.00 0.00 0.00 0.00 0.00 0.00 0.00 0.00 0.00 0.00 0.00 0.00 0.00 0.00 0.00 0.00 0.00 0.00 0.00 0.00 0.00 0.00 0.00
0.13 0.08 0.09 0.13 0.14 0.12 0.17 0.12 0.05 0.05 0.04 0.04 0.03 0.04 0.03 0.03 0.03 0.02 0.02 0.01 0.01 0.11 0.29 0.33 0.33 0.17 0.17 0.03 0.02 0.01 0.00 0.00 0.00 0.00 0.00 0.00 0.00 0.00 0.00 0.00 0.00 0.00 0.00 0.00 0.00 0.00 0.00 0.00 0.00 0.00 0.00 0.00 0.00 0.00
0.02 0.10 0.20 0.17 0.14 0.15 0.12 0.03 0.05 0.08 0.05 0.04 0.06 0.03 0.02 0.05 0.06 0.05 0.03 0.01 0.01 0.13 0.40 0.36 0.12 0.04 0.02 0.02 0.00 0.00 0.00 0.01 0.01 0.01 0.01 0.00 0.00 0.00 0.00 0.00 0.00 0.00 0.00 0.00 0.00 0.00 0.00 0.00 0.00 0.00 0.00 0.00 0.00 0.00
0.04 0.05 0.09 0.09 0.05 0.03 0.01 0.01 0.04 0.05 0.06 0.07 0.07 0.07 0.04 0.05 0.05 0.06 0.03 0.01 0.06 0.17 0.14 0.15 0.04 0.01 0.00 0.01 0.02 0.01 0.01 0.02 0.03 0.03 0.03 0.01 0.00 0.00 0.00 0.00 0.00 0.00 0.00 0.00 0.00 0.00 0.00 0.00 0.00 0.00 0.00 0.00 0.00 0.00
0.05 0.03 0.02 0.00 0.01 0.03 0.02 0.01 0.02 0.05 0.03 0.04 0.03 0.02 0.03 0.08 0.06 0.06 0.02 0.01 0.05 0.14 0.30 0.06 0.01 0.01 0.01 0.01 0.01 0.01 0.01 0.01 0.02 0.03 0.03 0.01 0.00 0.00 0.01 0.02 0.01 0.00 0.00 0.00 0.00 0.00 0.00 0.00 0.00 0.00 0.00 0.00 0.00 0.00
0.00 0.00 0.00 0.00 0.00 0.05 0.03 0.01 0.01 0.02 0.01 0.02 0.01 0.02 0.04 0.07 0.05 0.07 0.07 0.01 0.01 0.05 0.19 0.06 0.01 0.03 0.03 0.03 0.02 0.01 0.01 0.01 0.01 0.02 0.03 0.03 0.02 0.01 0.02 0.02 0.01 0.00 0.00 0.00 0.00 0.00 0.00 0.00 0.00 0.00 0.00 0.00 0.01 0.01
0.00 0.00 0.00 0.00 0.00 0.00 0.01 0.00 0.01 0.00 0.00 0.02 0.03 0.03 0.05 0.03 0.05 0.04 0.14 0.02 0.01 0.02 0.03 0.02 0.04 0.07 0.04 0.01 0.00 0.00 0.00 0.00 0.00 0.00 0.01 0.03 0.03 0.03 0.03 0.01 0.00 0.00 0.00 0.00 0.00 0.00 0.00 0.00 0.00 0.00 0.01 0.02 0.03 0.03
0.00 0.00 0.00 0.00 0.00 0.00 0.00 0.00 0.00 0.00 0.01 0.02 0.02 0.03 0.06 0.08 0.07 0.03 0.05 0.03 0.04 0.03 0.03 0.04 0.06 0.05 0.02 0.01 0.00 0.00 0.00 0.00 0.00 0.00 0.00 0.01 0.02 0.03 0.04 0.05 0.05 0.04 0.01 0.00 0.00 0.00 0.00 0.00 0.00 0.01 0.01 0.02 0.02 0.02
0.00 0.00 0.00 0.00 0.00 0.00 0.00 0.00 0.00 0.00 0.02 0.02 0.01 0.01 0.02 0.02 0.06 0.03 0.02 0.02 0.03 0.06 0.04 0.04 0.05 0.03 0.01 0.00 0.00 0.00 0.00 0.00 0.00 0.00 0.01 0.01 0.01 0.01 0.02 0.04 0.04 0.03 0.02 0.02 0.01 0.01 0.01 0.01 0.01 0.01 0.01 0.01 0.01 0.04
0.00 0.00 0.00 0.00 0.00 0.00 0.00 0.00 0.00 0.00 0.00 0.00 0.01 0.01 0.01 0.02 0.04 0.01 0.01 0.02 0.03 0.05 0.04 0.04 0.04 0.03 0.02 0.00 0.00 0.00 0.00 0.00 0.00 0.00 0.00 0.00 0.01 0.01 0.00 0.00 0.00 0.00 0.01 0.01 0.03 0.05 0.06 0.05 0.03 0.04 0.04 0.03 0.03 0.04
0.00 0.00 0.00 0.00 0.00 0.00 0.00 0.00 0.00 0.00 0.00 0.00 0.01 0.02 0.01 0.00 0.02 0.02 0.01 0.02 0.03 0.05 0.05 0.06 0.05 0.02 0.02 0.03 0.01 0.01 0.00 0.00 0.00 0.00 0.01 0.00 0.00 0.00 0.00 0.00 0.00 0.00 0.01 0.02 0.04 0.05 0.06 0.06 0.07 0.08 0.07 0.06 0.05 0.06
0.00 0.00 0.00 0.00 0.00 0.00 0.00 0.00 0.00 0.00 0.00 0.00 0.01 0.01 0.00 0.01 0.02 0.02 0.02 0.04 0.03 0.04 0.05 0.07 0.07 0.08 0.08 0.03 0.03 0.03 0.02 0.01 0.00 0.00 0.01 0.01 0.01 0.01 0.00 0.00 0.00 0.01 0.01 0.02 0.02 0.03 0.04 0.06 0.07 0.07 0.09 0.10 0.08 0.05
0.00 0.00 0.00 0.00 0.00 0.00 0.00 0.00 0.00 0.00 0.00 0.00 0.01 0.01 0.01 0.01 0.02 0.02 0.02 0.03 0.03 0.04 0.04 0.05 0.07 0.08 0.05 0.03 0.03 0.04 0.04 0.02 0.01 0.01 0.00 0.00 0.01 0.02 0.01 0.01 0.01 0.01 0.01 0.01 0.01 0.02 0.02 0.03 0.04 0.06 0.07 0.11 0.12 0.08
0.00 0.00 0.00 0.00 0.00 0.00 0.00 0.00 0.01 0.01 0.03 0.03 0.00 0.01 0.01 0.01 0.03 0.02 0.02 0.03 0.03 0.01 0.01 0.03 0.04 0.05 0.03 0.03 0.07 0.09 0.10 0.07 0.05 0.04 0.03 0.03 0.03 0.03 0.04 0.03 0.02 0.02 0.02 0.01 0.01 0.01 0.01 0.02 0.03 0.03 0.04 0.07 0.12 0.11
0.00 0.00 0.00 0.00 0.00 0.00 0.00 0.00 0.01 0.01 0.01 0.01 0.02 0.02 0.01 0.01 0.02 0.02 0.02 0.02 0.02 0.02 0.02 0.02 0.04 0.05 0.06 0.08 0.09 0.08 0.08 0.07 0.06 0.05 0.03 0.03 0.03 0.04 0.04 0.03 0.03 0.02 0.02 0.02 0.03 0.03 0.02 0.02 0.02 0.02 0.02 0.04 0.06 0.07
0.01 0.00 0.00 0.01 0.00 0.00 0.01 0.01 0.01 0.02 0.01 0.01 0.01 0.01 0.01 0.01 0.01 0.01 0.01 0.01 0.02 0.03 0.04 0.04 0.02 0.02 0.03 0.03 0.05 0.07 0.08 0.07 0.06 0.04 0.04 0.04 0.03 0.02 0.02 0.02 0.02 0.03 0.02 0.02 0.03 0.05 0.04 0.02 0.01 0.01 0.01 0.02 0.03 0.03
0.01 0.01 0.01 0.01 0.01 0.01 0.01 0.01 0.01 0.01 0.02 0.02 0.02 0.02 0.02 0.03 0.02 0.01 0.01 0.01 0.03 0.04 0.05 0.06 0.04 0.03 0.04 0.04 0.03 0.03 0.04 0.04 0.03 0.02 0.02 0.02 0.02 0.02 0.02 0.03 0.02 0.02 0.01 0.01 0.01 0.01 0.01 0.01 0.01 0.01 0.01 0.01 0.02 0.01
0.03 0.02 0.03 0.03 0.04 0.04 0.02 0.02 0.03 0.04 0.04 0.05 0.05 0.05 0.06 0.04 0.03 0.04 0.03 0.03 0.03 0.05 0.06 0.09 0.08 0.05 0.06 0.07 0.06 0.05 0.03 0.02 0.03 0.04 0.03 0.03 0.03 0.03 0.02 0.02 0.01 0.01 0.01 0.01 0.01 0.01 0.01 0.01 0.01 0.01 0.01 0.01 0.01 0.01
0.03 0.03 0.04 0.04 0.03 0.05 0.07 0.03 0.03 0.03 0.04 0.04 0.05 0.05 0.08 0.08 0.07 0.05 0.02 0.03 0.05 0.07 0.09 0.10 0.13 0.11 0.07 0.07 0.07 0.08 0.08 0.08 0.08 0.07 0.06 0.04 0.04 0.03 0.03 0.03 0.02 0.02 0.01 0.01 0.02 0.01 0.01 0.00 0.01 0.01 0.00 0.00 0.00 0.00

GFSWCAN_prec_precacc24_165.txt.gz
Total_Precipitation_Accumulation
0.34 0.43 0.35 0.32 0.23 0.26 0.18 0.23 0.38 0.44 0.34 0.29 0.32 0.39 0.39 0.40 0.44 0.60 0.54 0.55 0.78 0.57 0.10 0.02 0.02 0.05 0.07 0.14 0.21 0.15 0.22 0.20 0.34 0.42 0.25 0.13 0.06 0.05 0.05 0.04 0.12 0.17 0.29 0.25 0.28 0.39 0.11 0.00 0.04 0.07 0.06 0.01 0.00 0.01
0.31 0.38 0.29 0.29 0.24 0.29 0.21 0.22 0.26 0.40 0.35 0.29 0.28 0.40 0.40 0.33 0.42 0.51 0.61 0.51 0.76 0.78 0.24 0.04 0.01 0.01 0.02 0.04 0.17 0.24 0.22 0.18 0.23 0.22 0.21 0.22 0.20 0.15 0.12 0.13 0.12 0.18 0.22 0.39 0.31 0.19 0.10 0.03 0.06 0.08 0.03 0.01 0.00 0.00
0.37 0.36 0.24 0.23 0.25 0.28 0.27 0.21 0.21 0.31 0.29 0.27 0.30 0.35 0.50 0.38 0.41 0.48 0.49 0.49 0.94 0.81 0.25 0.02 0.00 0.00 0.02 0.07 0.16 0.33 0.11 0.14 0.20 0.16 0.20 0.21 0.16 0.12 0.14 0.09 0.12 0.12 0.14 0.26 0.23 0.11 0.16 0.12 0.01 0.01 0.00 0.00 0.00 0.00
0.43 0.30 0.18 0.24 0.29 0.27 0.28 0.24 0.23 0.31 0.30 0.26 0.28 0.37 0.44 0.46 0.44 0.54 0.45 0.44 0.68 0.59 0.30 0.02 0.00 0.00 0.00 0.03 0.07 0.10 0.09 0.08 0.10 0.24 0.37 0.28 0.16 0.10 0.14 0.18 0.22 0.19 0.18 0.28 0.32 0.22 0.15 0.16 0.08 0.04 0.01 0.00 0.00 0.00
0.47 0.25 0.19 0.33 0.33 0.31 0.27 0.22 0.23 0.31 0.32 0.30 0.24 0.34 0.43 0.45 0.57 0.72 0.51 0.33 0.34 0.51 0.38 0.04 0.00 0.00 0.00 0.01 0.04 0.11 0.15 0.18 0.23 0.28 0.35 0.15 0.06 0.08 0.07 0.06 0.02 0.01 0.08 0.19 0.27 0.19 0.08 0.07 0.01 0.01 0.02 0.00 0.00 0.00
0.42 0.23 0.29 0.39 0.32 0.32 0.30 0.25 0.24 0.31 0.33 0.34 0.27 0.32 0.43 0.56 0.93 1.36 1.63 0.84 0.39 0.48 0.39 0.15 0.06 0.00 0.00 0.01 0.05 0.12 0.20 0.35 0.42 0.34 0.20 0.09 0.04 0.13 0.14 0.05 0.00 0.02 0.05 0.10 0.14 0.11 0.07 0.02 0.01 0.02 0.03 0.00 0.00 0.00
0.31 0.32 0.41 0.40 0.32 0.32 0.22 0.27 0.31 0.34 0.33 0.36 0.34 0.42 0.54 0.88 0.98 0.97 0.60 0.26 0.18 0.35 0.47 0.17 0.05 0.03 0.01 0.08 0.15 0.25 0.36 0.46 0.42 0.34 0.20 0.07 0.05 0.16 0.19 0.03 0.01 0.00 0.00 0.01 0.01 0.01 0.00 0.00 0.00 0.00 0.00 0.00 0.00 0.00
0.32 0.40 0.43 0.45 0.36 0.21 0.26 0.37 0.40 0.36 0.41 0.42 0.53 0.77 0.98 1.04 1.11 0.62 0.18 0.09 0.29 0.39 0.24 0.15 0.06 0.13 0.11 0.19 0.21 0.24 0.34 0.43 0.43 0.36 0.22 0.07 0.09 0.15 0.14 0.00 0.00 0.00 0.00 0.00 0.00 0.00 0.00 0.00 0.00 0.00 0.00 0.00 0.00 0.00
0.45 0.49 0.48 0.35 0.26 0.38 0.46 0.40 0.34 0.55 0.61 0.75 1.06 1.41 1.17 0.92 0.78 0.41 0.29 0.27 0.36 0.42 0.37 0.11 0.03 0.13 0.10 0.17 0.18 0.20 0.24 0.28 0.24 0.19 0.06 0.10 0.18 0.12 0.01 0.00 0.00 0.00 0.00 0.00 0.00 0.00 0.00 0.00 0.00 0.00 0.00 0.00 0.00 0.00
0.33 0.33 0.32 0.33 0.36 0.36 0.25 0.20 0.45 0.68 0.60 0.81 0.91 0.98 0.95 0.49 0.31 0.39 0.63 0.86 0.86 0.54 0.18 0.07 0.03 0.09 0.12 0.25 0.32 0.24 0.21 0.18 0.12 0.05 0.04 0.09 0.03 0.00 0.00 0.00 0.00 0.00 0.01 0.01 0.02 0.01 0.01 0.00 0.00 0.00 0.00 0.00 0.00 0.00
0.17 0.20 0.21 0.23 0.22 0.23 0.16 0.29 0.50 0.66 0.61 0.55 0.52 0.57 0.57 0.50 0.55 0.49 0.52 0.44 0.39 0.24 0.05 0.01 0.00 0.05 0.11 0.13 0.19 0.28 0.31 0.24 0.17 0.09 0.07 0.07 0.01 0.00 0.00 0.00 0.00 0.02 0.01 0.01 0.01 0.01 0.00 0.01 0.03 0.06 0.03 0.00 0.00 0.00
0.04 0.07 0.14 0.20 0.24 0.31 0.26 0.32 0.40 0.35 0.31 0.25 0.45 0.49 0.67 0.55 0.33 0.21 0.21 0.12 0.08 0.05 0.01 0.01 0.01 0.03 0.10 0.08 0.14 0.15 0.29 0.46 0.36 0.24 0.14 0.04 0.00 0.00 0.00 0.01 0.02 0.02 0.02 0.01 0.00 0.00 0.00 0.00 0.00 0.00 0.00 0.00 0.00 0.00
0.08 0.10 0.17 0.15 0.17 0.17 0.14 0.22 0.19 0.22 0.30 0.41 0.35 0.27 0.27 0.18 0.19 0.08 0.08 0.04 0.06 0.05 0.04 0.06 0.04 0.06 0.08 0.08 0.09 0.09 0.15 0.11 0.16 0.35 0.16 0.01 0.00 0.00 0.00 0.00 0.00 0.00 0.01 0.02 0.00 0.00 0.00 0.00 0.00 0.00 0.00 0.00 0.00 0.00
0.15 0.18 0.17 0.09 0.08 0.12 0.16 0.23 0.21 0.29 0.26 0.21 0.11 0.13 0.14 0.10 0.02 0.02 0.05 0.05 0.06 0.07 0.09 0.11 0.11 0.07 0.05 0.04 0.04 0.07 0.07 0.06 0.03 0.01 0.00 0.00 0.00 0.00 0.00 0.00 0.00 0.00 0.00 0.00 0.00 0.00 0.00 0.00 0.00 0.00 0.00 0.00 0.00 0.00
0.16 0.16 0.07 0.05 0.11 0.17 0.20 0.21 0.18 0.16 0.11 0.10 0.06 0.11 0.02 0.03 0.01 0.01 0.00 0.01 0.02 0.06 0.12 0.24 0.33 0.28 0.27 0.06 0.02 0.02 0.01 0.00 0.00 0.00 0.00 0.00 0.00 0.00 0.00 0.00 0.00 0.00 0.00 0.00 0.00 0.00 0.00 0.00 0.00 0.00 0.00 0.00 0.00 0.00
0.12 0.06 0.07 0.12 0.14 0.12 0.17 0.12 0.05 0.05 0.04 0.04 0.03 0.04 0.03 0.03 0.03 0.02 0.02 0.01 0.01 0.11 0.31 0.50 0.51 0.33 0.32 0.04 0.03 0.01 0.00 0.00 0.00 0.00 0.00 0.00 0.00 0.00 0.00 0.00 0.00 0.00 0.00 0.00 0.00 0.00 0.00 0.00 0.00 0.00 0.00 0.00 0.00 0.00
0.02 0.07 0.19 0.17 0.14 0.15 0.12 0.03 0.05 0.08 0.05 0.04 0.05 0.03 0.02 0.05 0.06 0.05 0.03 0.01 0.01 0.13 0.45 0.55 0.30 0.15 0.05 0.03 0.00 0.00 0.00 0.01 0.01 0.01 0.01 0.00 0.00 0.00 0.00 0.00 0.00 0.00 0.00 0.00 0.00 0.00 0.00 0.00 0.00 0.00 0.00 0.00 0.00 0.00
0.04 0.06 0.10 0.09 0.05 0.03 0.01 0.01 0.04 0.05 0.06 0.07 0.05 0.06 0.04 0.05 0.05 0.05 0.03 0.01 0.07 0.19 0.22 0.32 0.11 0.04 0.00 0.01 0.02 0.01 0.01 0.02 0.03 0.03 0.03 0.01 0.00 0.00 0.00 0.00 0.00 0.00 0.00 0.00 0.00 0.00 0.00 0.00 0.00 0.00 0.00 0.00 0.00 0.00
0.05 0.03 0.02 0.00 0.01 0.03 0.02 0.01 0.02 0.05 0.02 0.04 0.03 0.02 0.03 0.08 0.06 0.06 0.02 0.01 0.05 0.17 0.41 0.09 0.01 0.01 0.01 0.00 0.01 0.01 0.01 0.01 0.02 0.03 0.03 0.01 0.00 0.00 0.01 0.03 0.02 0.00 0.00 0.00 0.00 0.00 0.00 0.00 0.00 0.00 0.00 0.00 0.00 0.00
0.00 0.00 0.00 0.00 0.00 0.05 0.03 0.01 0.01 0.02 0.00 0.01 0.00 0.02 0.04 0.07 0.05 0.07 0.07 0.02 0.02 0.07 0.22 0.09 0.01 0.01 0.02 0.02 0.02 0.01 0.01 0.01 0.01 0.02 0.03 0.03 0.02 0.01 0.02 0.04 0.04 0.01 0.00 0.00 0.00 0.00 0.00 0.00 0.00 0.00 0.00 0.00 0.01 0.01
0.00 0.00 0.00 0.00 0.00 0.00 0.01 0.00 0.01 0.00 0.00 0.01 0.02 0.03 0.04 0.02 0.03 0.03 0.10 0.01 0.01 0.03 0.03 0.01 0.02 0.03 0.02 0.01 0.00 0.00 0.00 0.00 0.00 0.00 0.01 0.03 0.03 0.03 0.04 0.03 0.04 0.05 0.02 0.00 0.00 0.00 0.00 0.00 0.00 0.00 0.01 0.02 0.03 0.03
0.00 0.00 0.00 0.00 0.00 0.00 0.00 0.00 0.00 0.00 0.01 0.02 0.02 0.02 0.05 0.05 0.02 0.01 0.03 0.03 0.04 0.02 0.02 0.01 0.03 0.04 0.02 0.01 0.00 0.00 0.00 0.00 0.00 0.00 0.00 0.01 0.02 0.04 0.06 0.07 0.07 0.08 0.05 0.01 0.00 0.01 0.00 0.00 0.00 0.01 0.02 0.02 0.02 0.03
0.00 0.00 0.00 0.00 0.00 0.00 0.00 0.00 0.00 0.00 0.02 0.02 0.01 0.01 0.02 0.02 0.03 0.01 0.01 0.02 0.02 0.03 0.03 0.03 0.04 0.02 0.01 0.00 0.00 0.00 0.00 0.00 0.00 0.00 0.01 0.01 0.01 0.02 0.04 0.08 0.10 0.13 0.13 0.09 0.02 0.02 0.01 0.01 0.01 0.01 0.02 0.01 0.02 0.04
0.00 0.00 0.00 0.00 0.00 0.00 0.00 0.00 0.00 0.00 0.00 0.00 0.01 0.01 0.01 0.02 0.02 0.01 0.01 0.01 0.02 0.03 0.03 0.04 0.04 0.03 0.03 0.00 0.00 0.00 0.00 0.00 0.00 0.01 0.01 0.01 0.02 0.03 0.02 0.03 0.04 0.03 0.02 0.02 0.03 0.04 0.05 0.04 0.02 0.03 0.02 0.02 0.02 0.03
0.00 0.00 0.00 0.00 0.00 0.00 0.00 0.00 0.00 0.00 0.00 0.00 0.01 0.02 0.01 0.00 0.02 0.02 0.01 0.01 0.02 0.03 0.04 0.05 0.05 0.02 0.02 0.03 0.01 0.01 0.00 0.00 0.00 0.00 0.01 0.01 0.00 0.01 0.01 0.01 0.01 0.01 0.01 0.01 0.03 0.05 0.06 0.05 0.06 0.06 0.05 0.04 0.04 0.04
0.00 0.00 0.00 0.00 0.00 0.00 0.00 0.00 0.00 0.00 0.00 0.00 0.01 0.01 0.00 0.01 0.02 0.01 0.02 0.03 0.03 0.04 0.05 0.07 0.07 0.09 0.09 0.04 0.03 0.03 0.02 0.00 0.00 0.00 0.00 0.00 0.00 0.00 0.00 0.00 0.00 0.01 0.01 0.01 0.02 0.03 0.04 0.05 0.06 0.05 0.07 0.08 0.06 0.04
0.00 0.00 0.00 0.00 0.00 0.00 0.00 0.00 0.00 0.00 0.00 0.00 0.01 0.01 0.01 0.02 0.01 0.02 0.02 0.03 0.03 0.04 0.04 0.05 0.07 0.09 0.06 0.04 0.05 0.07 0.07 0.03 0.01 0.02 0.01 0.01 0.01 0.01 0.01 0.01 0.01 0.01 0.01 0.01 0.01 0.03 0.03 0.03 0.04 0.06 0.06 0.09 0.09 0.06
0.00 0.00 0.00 0.00 0.00 0.00 0.00 0.00 0.01 0.01 0.01 0.01 0.00 0.01 0.01 0.01 0.02 0.01 0.01 0.02 0.02 0.01 0.01 0.02 0.04 0.05 0.04 0.05 0.10 0.15 0.16 0.11 0.08 0.09 0.09 0.07 0.06 0.05 0.05 0.04 0.04 0.04 0.03 0.02 0.01 0.01 0.02 0.02 0.03 0.03 0.04 0.06 0.10 0.09
0.00 0.00 0.00 0.00 0.00 0.00 0.00 0.00 0.01 0.01 0.01 0.01 0.01 0.01 0.01 0.01 0.01 0.01 0.01 0.01 0.02 0.02 0.02 0.02 0.03 0.04 0.06 0.09 0.12 0.14 0.14 0.12 0.10 0.09 0.07 0.07 0.08 0.08 0.07 0.05 0.04 0.04 0.03 0.02 0.03 0.02 0.02 0.01 0.01 0.01 0.02 0.03 0.06 0.08
0.01 0.00 0.00 0.01 0.00 0.00 0.01 0.01 0.01 0.02 0.01 0.01 0.01 0.01 0.01 0.01 0.01 0.01 0.01 0.01 0.02 0.02 0.03 0.03 0.02 0.02 0.03 0.04 0.06 0.08 0.09 0.10 0.09 0.08 0.08 0.08 0.08 0.05 0.03 0.03 0.04 0.04 0.03 0.02 0.02 0.04 0.03 0.01 0.01 0.01 0.02 0.03 0.04 0.05
0.01 0.01 0.01 0.01 0.01 0.01 0.01 0.01 0.01 0.01 0.02 0.02 0.02 0.02 0.02 0.03 0.02 0.01 0.01 0.01 0.03 0.04 0.04 0.06 0.04 0.04 0.04 0.03 0.03 0.03 0.04 0.04 0.03 0.03 0.04 0.05 0.06 0.03 0.03 0.03 0.02 0.02 0.02 0.01 0.01 0.01 0.01 0.01 0.01 0.01 0.02 0.02 0.03 0.03
0.03 0.02 0.03 0.03 0.03 0.04 0.02 0.02 0.03 0.03 0.04 0.04 0.04 0.05 0.06 0.04 0.04 0.06 0.04 0.03 0.03 0.05 0.06 0.09 0.09 0.06 0.06 0.07 0.05 0.04 0.03 0.02 0.02 0.03 0.04 0.05 0.06 0.06 0.04 0.02 0.01 0.01 0.01 0.01 0.01 0.02 0.01 0.01 0.02 0.01 0.01 0.02 0.02 0.02
0.02 0.02 0.03 0.04 0.03 0.04 0.07 0.04 0.03 0.03 0.03 0.03 0.04 0.04 0.08 0.10 0.08 0.06 0.02 0.04 0.06 0.07 0.09 0.10 0.13 0.13 0.09 0.07 0.07 0.09 0.09 0.07 0.07 0.07 0.07 0.05 0.05 0.05 0.04 0.04 0.02 0.02 0.02 0.02 0.03 0.02 0.01 0.01 0.01 0.01 0.01 0.01 0.00 0.00

GFSWCAN_prec_precacc24_168.txt.gz
Total_Precipitation_Accumulation
0.30 0.35 0.32 0.31 0.24 0.27 0.20 0.24 0.35 0.41 0.31 0.25 0.29 0.39 0.39 0.39 0.41 0.57 0.54 0.57 0.75 0.50 0.10 0.04 0.04 0.07 0.09 0.16 0.17 0.14 0.21 0.19 0.30 0.38 0.26 0.14 0.07 0.05 0.05 0.04 0.11 0.16 0.26 0.23 0.20 0.33 0.10 0.00 0.04 0.07 0.06 0.01 0.00 0.02
0.29 0.37 0.29 0.29 0.24 0.29 0.22 0.24 0.27 0.38 0.32 0.25 0.25 0.38 0.38 0.31 0.39 0.49 0.58 0.52 0.79 0.74 0.25 0.04 0.01 0.02 0.03 0.04 0.16 0.23 0.21 0.18 0.23 0.21 0.21 0.22 0.20 0.15 0.12 0.13 0.12 0.18 0.23 0.41 0.35 0.19 0.10 0.03 0.06 0.08 0.04 0.01 0.01 0.01
0.37 0.37 0.24 0.24 0.26 0.28 0.27 0.23 0.22 0.33 0.31 0.30 0.31 0.34 0.47 0.35 0.39 0.47 0.47 0.50 0.88 0.81 0.27 0.06 0.02 0.00 0.01 0.05 0.15 0.31 0.11 0.15 0.21 0.17 0.21 0.22 0.17 0.12 0.15 0.09 0.12 0.15 0.19 0.28 0.25 0.11 0.16 0.12 0.01 0.01 0.00 0.00 0.00 0.00
0.45 0.32 0.20 0.26 0.29 0.27 0.28 0.25 0.24 0.32 0.32 0.28 0.29 0.37 0.42 0.43 0.40 0.53 0.45 0.45 0.58 0.49 0.33 0.04 0.00 0.02 0.01 0.02 0.07 0.08 0.08 0.09 0.11 0.24 0.37 0.29 0.19 0.13 0.14 0.18 0.22 0.18 0.18 0.29 0.32 0.22 0.15 0.16 0.09 0.04 0.01 0.00 0.00 0.00
0.50 0.28 0.22 0.36 0.35 0.32 0.28 0.23 0.23 0.31 0.35 0.33 0.27 0.33 0.41 0.44 0.53 0.69 0.51 0.33 0.27 0.42 0.44 0.09 0.01 0.01 0.01 0.01 0.02 0.09 0.14 0.17 0.22 0.24 0.32 0.15 0.07 0.08 0.07 0.06 0.02 0.01 0.08 0.19 0.27 0.19 0.08 0.08 0.01 0.01 0.02 0.02 0.01 0.00
0.48 0.32 0.40 0.47 0.36 0.33 0.31 0.26 0.24 0.31 0.35 0.38 0.31 0.33 0.41 0.52 0.89 1.27 1.52 0.80 0.34 0.36 0.39 0.14 0.04 0.01 0.01 0.01 0.04 0.11 0.19 0.34 0.39 0.29 0.17 0.09 0.04 0.13 0.13 0.05 0.00 0.02 0.05 0.10 0.14 0.11 0.07 0.02 0.01 0.02 0.03 0.00 0.00 0.00
0.36 0.34 0.45 0.47 0.37 0.33 0.23 0.28 0.32 0.34 0.34 0.40 0.39 0.43 0.50 0.77 0.85 0.82 0.60 0.29 0.18 0.28 0.51 0.15 0.05 0.03 0.01 0.08 0.15 0.25 0.35 0.45 0.42 0.34 0.20 0.07 0.05 0.16 0.19 0.03 0.01 0.00 0.00 0.01 0.01 0.01 0.00 0.00 0.00 0.00 0.00 0.00 0.00 0.00
0.39 0.41 0.44 0.47 0.37 0.22 0.26 0.37 0.40 0.38 0.44 0.47 0.58 0.67 0.77 0.81 0.87 0.53 0.22 0.15 0.33 0.45 0.31 0.16 0.06 0.12 0.11 0.19 0.21 0.24 0.34 0.42 0.43 0.36 0.22 0.07 0.10 0.16 0.14 0.00 0.00 0.00 0.00 0.00 0.00 0.00 0.00 0.00 0.00 0.00 0.00 0.00 0.00 0.00
0.49 0.50 0.49 0.36 0.27 0.38 0.46 0.40 0.35 0.57 0.61 0.71 0.91 1.12 0.90 0.74 0.67 0.39 0.46 0.48 0.53 0.54 0.37 0.11 0.03 0.13 0.10 0.17 0.18 0.20 0.24 0.28 0.24 0.20 0.07 0.11 0.20 0.13 0.02 0.00 0.00 0.00 0.00 0.00 0.00 0.00 0.00 0.00 0.00 0.00 0.00 0.00 0.00 0.00
0.35 0.33 0.32 0.33 0.35 0.31 0.22 0.20 0.46 0.67 0.52 0.63 0.73 0.98 0.80 0.44 0.37 0.46 0.92 1.11 1.06 0.62 0.18 0.07 0.03 0.09 0.12 0.25 0.32 0.24 0.22 0.20 0.14 0.05 0.05 0.11 0.04 0.00 0.00 0.00 0.00 0.00 0.01 0.01 0.02 0.01 0.01 0.00 0.00 0.00 0.00 0.00 0.00 0.00
0.18 0.20 0.20 0.18 0.15 0.14 0.15 0.29 0.47 0.52 0.48 0.46 0.61 0.83 0.66 0.65 0.72 0.62 0.63 0.50 0.42 0.25 0.05 0.01 0.00 0.05 0.11 0.13 0.19 0.28 0.32 0.27 0.20 0.09 0.07 0.08 0.01 0.00 0.00 0.00 0.00 0.02 0.01 0.01 0.01 0.01 0.00 0.01 0.03 0.08 0.11 0.08 0.04 0.01
0.06 0.07 0.09 0.12 0.20 0.33 0.33 0.31 0.33 0.31 0.31 0.31 0.59 0.70 0.77 0.63 0.39 0.24 0.21 0.12 0.08 0.05 0.01 0.01 0.01 0.03 0.10 0.08 0.14 0.16 0.29 0.50 0.42 0.34 0.22 0.05 0.00 0.00 0.00 0.01 0.02 0.02 0.02 0.01 0.00 0.00 0.00 0.00 0.00 0.00 0.01 0.02 0.01 0.00
0.05 0.09 0.15 0.20 0.27 0.27 0.20 0.19 0.20 0.26 0.38 0.49 0.35 0.28 0.29 0.20 0.19 0.08 0.08 0.04 0.06 0.05 0.04 0.06 0.04 0.06 0.08 0.08 0.10 0.09 0.15 0.12 0.23 0.45 0.20 0.02 0.00 0.00 0.00 0.00 0.00 0.00 0.01 0.02 0.00 0.00 0.00 0.00 0.00 0.00 0.00 0.00 0.00 0.00
0.06 0.13 0.17 0.13 0.14 0.18 0.22 0.25 0.26 0.37 0.27 0.21 0.11 0.13 0.14 0.10 0.02 0.02 0.05 0.05 0.06 0.07 0.09 0.11 0.11 0.07 0.05 0.05 0.05 0.07 0.08 0.07 0.05 0.01 0.00 0.00 0.00 0.00 0.00 0.00 0.00 0.00 0.00 0.00 0.00 0.00 0.00 0.00 0.00 0.00 0.00 0.00 0.00 0.00
0.16 0.16 0.07 0.05 0.11 0.15 0.19 0.21 0.20 0.17 0.12 0.10 0.06 0.11 0.02 0.03 0.01 0.01 0.00 0.01 0.02 0.06 0.12 0.24 0.34 0.30 0.30 0.07 0.02 0.02 0.03 0.01 0.00 0.00 0.00 0.00 0.00 0.00 0.00 0.00 0.00 0.00 0.00 0.00 0.00 0.00 0.00 0.00 0.00 0.00 0.00 0.00 0.00 0.00
0.12 0.06 0.07 0.12 0.13 0.11 0.17 0.12 0.05 0.05 0.04 0.04 0.03 0.04 0.03 0.03 0.03 0.02 0.02 0.02 0.01 0.11 0.31 0.54 0.63 0.44 0.41 0.06 0.03 0.01 0.00 0.00 0.00 0.00 0.00 0.00 0.00 0.00 0.00 0.00 0.00 0.00 0.00 0.00 0.00 0.00 0.00 0.00 0.00 0.00 0.00 0.00 0.00 0.00
0.02 0.06 0.19 0.17 0.14 0.15 0.12 0.03 0.05 0.08 0.05 0.04 0.05 0.02 0.02 0.04 0.06 0.05 0.03 0.01 0.01 0.13 0.45 0.56 0.35 0.22 0.15 0.08 0.01 0.00 0.00 0.01 0.00 0.01 0.01 0.00 0.00 0.00 0.00 0.00 0.00 0.00 0.00 0.00 0.00 0.00 0.00 0.00 0.00 0.00 0.00 0.00 0.00 0.00
0.04 0.06 0.10 0.09 0.05 0.03 0.01 0.01 0.04 0.05 0.06 0.06 0.05 0.06 0.04 0.05 0.05 0.05 0.03 0.01 0.07 0.20 0.23 0.37 0.26 0.17 0.04 0.01 0.02 0.00 0.00 0.01 0.02 0.03 0.03 0.01 0.00 0.00 0.00 0.00 0.00 0.00 0.00 0.00 0.00 0.00 0.00 0.00 0.00 0.00 0.00 0.00 0.00 0.00
0.05 0.03 0.02 0.00 0.01 0.03 0.02 0.01 0.02 0.05 0.02 0.03 0.02 0.02 0.03 0.07 0.05 0.04 0.01 0.01 0.05 0.18 0.47 0.19 0.08 0.06 0.01 0.00 0.01 0.01 0.01 0.01 0.02 0.03 0.03 0.01 0.01 0.00 0.01 0.03 0.02 0.00 0.00 0.00 0.00 0.00 0.00 0.00 0.00 0.00 0.00 0.00 0.00 0.00
0.00 0.00 0.00 0.00 0.00 0.05 0.03 0.01 0.01 0.02 0.00 0.00 0.00 0.02 0.04 0.07 0.05 0.04 0.03 0.04 0.05 0.10 0.25 0.10 0.02 0.01 0.01 0.02 0.02 0.01 0.01 0.01 0.01 0.01 0.03 0.03 0.02 0.01 0.02 0.04 0.04 0.03 0.01 0.00 0.00 0.00 0.00 0.00 0.00 0.00 0.00 0.00 0.00 0.01
0.00 0.00 0.00 0.00 0.00 0.00 0.01 0.00 0.01 0.00 0.00 0.01 0.01 0.02 0.03 0.01 0.02 0.03 0.07 0.02 0.06 0.07 0.05 0.01 0.01 0.02 0.02 0.01 0.00 0.00 0.00 0.00 0.00 0.00 0.01 0.03 0.04 0.04 0.04 0.04 0.05 0.07 0.05 0.03 0.00 0.00 0.00 0.00 0.00 0.00 0.01 0.02 0.03 0.03
0.00 0.00 0.00 0.00 0.00 0.00 0.00 0.00 0.00 0.00 0.01 0.02 0.02 0.02 0.04 0.04 0.01 0.00 0.01 0.02 0.04 0.01 0.01 0.01 0.02 0.03 0.01 0.01 0.00 0.00 0.00 0.00 0.00 0.00 0.00 0.01 0.02 0.04 0.06 0.08 0.09 0.11 0.11 0.09 0.04 0.01 0.01 0.01 0.00 0.01 0.01 0.02 0.02 0.03
0.00 0.00 0.00 0.00 0.00 0.00 0.00 0.00 0.00 0.00 0.02 0.02 0.01 0.01 0.02 0.01 0.01 0.00 0.00 0.01 0.01 0.02 0.01 0.01 0.02 0.02 0.01 0.00 0.00 0.00 0.00 0.00 0.00 0.00 0.01 0.01 0.01 0.03 0.04 0.08 0.13 0.18 0.20 0.20 0.13 0.07 0.05 0.05 0.03 0.02 0.01 0.01 0.02 0.04
0.00 0.00 0.00 0.00 0.00 0.00 0.00 0.00 0.00 0.00 0.00 0.00 0.01 0.01 0.01 0.01 0.01 0.00 0.01 0.00 0.01 0.02 0.02 0.03 0.03 0.03 0.02 0.00 0.00 0.00 0.00 0.00 0.00 0.01 0.01 0.01 0.02 0.04 0.03 0.04 0.07 0.09 0.08 0.09 0.10 0.09 0.07 0.06 0.03 0.02 0.02 0.02 0.02 0.03
0.00 0.00 0.00 0.00 0.00 0.00 0.00 0.00 0.00 0.00 0.00 0.00 0.01 0.02 0.01 0.00 0.02 0.01 0.00 0.01 0.01 0.02 0.03 0.04 0.04 0.02 0.03 0.03 0.01 0.00 0.00 0.00 0.00 0.00 0.01 0.01 0.01 0.02 0.02 0.02 0.02 0.03 0.03 0.03 0.04 0.06 0.07 0.05 0.05 0.05 0.05 0.04 0.04 0.04
0.00 0.00 0.00 0.00 0.00 0.00 0.00 0.00 0.00 0.00 0.00 0.00 0.01 0.01 0.00 0.02 0.02 0.01 0.02 0.02 0.03 0.03 0.04 0.06 0.06 0.08 0.08 0.04 0.04 0.04 0.02 0.00 0.00 0.00 0.00 0.00 0.00 0.01 0.00 0.00 0.00 0.01 0.01 0.01 0.02 0.04 0.04 0.05 0.06 0.05 0.07 0.07 0.06 0.03
0.00 0.00 0.00 0.00 0.00 0.00 0.00 0.00 0.00 0.00 0.00 0.00 0.01 0.01 0.01 0.02 0.01 0.01 0.01 0.02 0.03 0.04 0.04 0.05 0.07 0.09 0.06 0.04 0.05 0.08 0.09 0.06 0.03 0.02 0.01 0.01 0.01 0.01 0.00 0.01 0.01 0.01 0.01 0.01 0.01 0.04 0.04 0.05 0.06 0.06 0.06 0.08 0.08 0.05
0.00 0.00 0.00 0.00 0.00 0.00 0.00 0.00 0.00 0.00 0.01 0.01 0.00 0.01 0.01 0.01 0.02 0.01 0.01 0.01 0.02 0.01 0.01 0.02 0.04 0.05 0.04 0.05 0.10 0.15 0.18 0.16 0.13 0.13 0.11 0.10 0.09 0.09 0.08 0.07 0.06 0.06 0.04 0.03 0.03 0.04 0.05 0.05 0.05 0.04 0.04 0.05 0.09 0.08
0.00 0.00 0.00 0.00 0.00 0.00 0.00 0.00 0.00 0.01 0.01 0.01 0.02 0.02 0.01 0.00 0.00 0.01 0.01 0.01 0.01 0.01 0.02 0.01 0.03 0.04 0.06 0.09 0.12 0.15 0.16 0.17 0.17 0.14 0.11 0.10 0.13 0.14 0.12 0.09 0.08 0.07 0.06 0.05 0.05 0.04 0.03 0.03 0.03 0.02 0.03 0.04 0.07 0.09
0.01 0.00 0.00 0.01 0.00 0.00 0.00 0.00 0.01 0.01 0.01 0.02 0.03 0.02 0.01 0.01 0.00 0.00 0.00 0.00 0.02 0.03 0.03 0.03 0.02 0.02 0.03 0.05 0.07 0.09 0.11 0.12 0.13 0.13 0.12 0.11 0.12 0.09 0.06 0.05 0.07 0.07 0.07 0.05 0.05 0.05 0.04 0.02 0.02 0.02 0.02 0.04 0.05 0.06
0.01 0.01 0.01 0.01 0.01 0.01 0.01 0.01 0.01 0.01 0.02 0.02 0.02 0.02 0.02 0.03 0.02 0.01 0.01 0.02 0.04 0.05 0.05 0.06 0.04 0.03 0.05 0.04 0.04 0.03 0.04 0.04 0.04 0.04 0.05 0.06 0.08 0.06 0.05 0.04 0.04 0.04 0.04 0.03 0.03 0.02 0.02 0.02 0.02 0.02 0.02 0.02 0.03 0.03
0.02 0.02 0.03 0.03 0.03 0.03 0.01 0.02 0.03 0.03 0.03 0.04 0.04 0.05 0.06 0.05 0.05 0.07 0.05 0.04 0.04 0.05 0.07 0.10 0.09 0.06 0.07 0.08 0.07 0.05 0.03 0.02 0.02 0.03 0.04 0.05 0.06 0.07 0.06 0.03 0.03 0.03 0.02 0.02 0.02 0.02 0.02 0.02 0.02 0.02 0.02 0.02 0.02 0.03
0.02 0.02 0.03 0.04 0.03 0.04 0.07 0.04 0.03 0.02 0.03 0.02 0.04 0.05 0.09 0.10 0.09 0.08 0.03 0.04 0.06 0.08 0.10 0.10 0.13 0.13 0.10 0.10 0.09 0.09 0.10 0.09 0.07 0.07 0.07 0.06 0.07 0.07 0.06 0.05 0.03 0.03 0.02 0.02 0.03 0.03 0.02 0.01 0.02 0.02 0.01 0.01 0.01 0.01

GFSWCAN_prec_precacc24_171.txt.gz
Total_Precipitation_Accumulation
0.16 0.21 0.29 0.29 0.22 0.27 0.19 0.24 0.35 0.42 0.32 0.26 0.28 0.37 0.38 0.38 0.37 0.55 0.51 0.56 0.75 0.45 0.09 0.04 0.05 0.09 0.14 0.17 0.16 0.15 0.19 0.16 0.22 0.28 0.22 0.14 0.10 0.08 0.06 0.04 0.11 0.16 0.23 0.19 0.18 0.30 0.10 0.00 0.04 0.07 0.06 0.01 0.00 0.03
0.16 0.21 0.24 0.28 0.24 0.29 0.22 0.24 0.27 0.39 0.32 0.26 0.24 0.30 0.34 0.30 0.37 0.48 0.57 0.50 0.78 0.73 0.24 0.03 0.00 0.01 0.05 0.10 0.26 0.30 0.20 0.17 0.22 0.19 0.20 0.22 0.20 0.15 0.12 0.13 0.12 0.17 0.23 0.41 0.35 0.19 0.10 0.03 0.06 0.08 0.04 0.01 0.01 0.01
0.22 0.25 0.22 0.24 0.26 0.29 0.28 0.23 0.22 0.32 0.30 0.28 0.26 0.28 0.36 0.31 0.34 0.46 0.46 0.48 0.84 0.74 0.26 0.06 0.02 0.00 0.01 0.02 0.13 0.32 0.10 0.12 0.21 0.17 0.21 0.22 0.17 0.12 0.15 0.09 0.12 0.15 0.22 0.31 0.27 0.12 0.16 0.12 0.01 0.01 0.01 0.03 0.01 0.00
0.35 0.25 0.19 0.27 0.31 0.29 0.29 0.26 0.24 0.33 0.33 0.28 0.28 0.36 0.41 0.42 0.37 0.52 0.44 0.42 0.55 0.43 0.29 0.04 0.00 0.02 0.02 0.02 0.05 0.08 0.07 0.09 0.10 0.22 0.37 0.31 0.20 0.13 0.14 0.18 0.22 0.19 0.21 0.31 0.37 0.23 0.16 0.16 0.09 0.04 0.01 0.00 0.00 0.00
0.48 0.28 0.23 0.38 0.38 0.36 0.31 0.25 0.24 0.32 0.35 0.34 0.28 0.32 0.42 0.46 0.53 0.70 0.52 0.32 0.25 0.42 0.47 0.14 0.02 0.01 0.03 0.05 0.06 0.09 0.12 0.14 0.16 0.19 0.27 0.15 0.07 0.08 0.07 0.06 0.02 0.01 0.08 0.19 0.27 0.19 0.08 0.08 0.01 0.01 0.02 0.02 0.01 0.01
0.51 0.39 0.48 0.58 0.47 0.42 0.35 0.29 0.25 0.31 0.33 0.37 0.31 0.34 0.42 0.52 0.90 1.28 1.42 0.78 0.35 0.38 0.35 0.17 0.09 0.05 0.08 0.12 0.10 0.11 0.13 0.26 0.30 0.21 0.13 0.09 0.04 0.13 0.13 0.05 0.00 0.02 0.05 0.10 0.14 0.11 0.07 0.02 0.01 0.02 0.03 0.00 0.01 0.05
0.60 0.66 0.80 0.78 0.60 0.50 0.35 0.32 0.33 0.32 0.32 0.39 0.41 0.46 0.52 0.72 0.86 0.79 0.58 0.31 0.18 0.27 0.43 0.17 0.04 0.02 0.03 0.16 0.11 0.17 0.28 0.35 0.33 0.28 0.17 0.07 0.05 0.16 0.19 0.03 0.01 0.00 0.00 0.01 0.01 0.01 0.00 0.00 0.00 0.00 0.00 0.00 0.00 0.00
0.45 0.47 0.47 0.50 0.42 0.30 0.35 0.40 0.40 0.35 0.43 0.49 0.65 0.71 0.79 0.79 0.84 0.51 0.23 0.19 0.38 0.35 0.25 0.16 0.03 0.10 0.07 0.15 0.17 0.20 0.29 0.34 0.40 0.36 0.22 0.07 0.10 0.16 0.15 0.00 0.00 0.00 0.00 0.00 0.00 0.00 0.00 0.00 0.00 0.00 0.00 0.00 0.00 0.00
0.49 0.50 0.49 0.37 0.28 0.40 0.47 0.40 0.33 0.53 0.61 0.79 0.97 1.16 0.90 0.71 0.63 0.38 0.42 0.45 0.50 0.47 0.36 0.11 0.02 0.11 0.09 0.16 0.18 0.20 0.23 0.28 0.24 0.20 0.07 0.12 0.20 0.13 0.02 0.00 0.00 0.00 0.00 0.00 0.00 0.00 0.00 0.00 0.00 0.00 0.00 0.00 0.00 0.00
0.36 0.34 0.33 0.34 0.36 0.31 0.22 0.19 0.42 0.63 0.57 0.67 0.66 0.86 0.68 0.40 0.33 0.36 0.79 1.05 1.04 0.68 0.22 0.09 0.03 0.09 0.12 0.25 0.32 0.24 0.22 0.20 0.14 0.06 0.05 0.13 0.04 0.00 0.00 0.00 0.00 0.00 0.01 0.01 0.02 0.01 0.01 0.00 0.00 0.00 0.00 0.00 0.00 0.00
0.18 0.20 0.20 0.18 0.16 0.13 0.13 0.25 0.45 0.53 0.48 0.35 0.45 0.67 0.51 0.49 0.67 0.74 0.76 0.61 0.51 0.34 0.07 0.01 0.00 0.05 0.11 0.13 0.19 0.28 0.32 0.27 0.21 0.09 0.08 0.09 0.01 0.00 0.00 0.00 0.00 0.02 0.01 0.01 0.01 0.01 0.00 0.01 0.03 0.08 0.11 0.08 0.05 0.02
0.07 0.08 0.09 0.12 0.17 0.23 0.28 0.30 0.33 0.29 0.21 0.15 0.42 0.69 0.62 0.65 0.60 0.38 0.25 0.14 0.09 0.05 0.01 0.01 0.01 0.02 0.10 0.08 0.14 0.16 0.29 0.51 0.43 0.38 0.28 0.06 0.00 0.00 0.00 0.01 0.02 0.02 0.02 0.01 0.00 0.00 0.00 0.00 0.00 0.00 0.01 0.03 0.04 0.07
0.10 0.16 0.17 0.16 0.16 0.17 0.18 0.20 0.20 0.16 0.21 0.38 0.58 0.41 0.28 0.24 0.24 0.09 0.09 0.04 0.06 0.05 0.04 0.06 0.04 0.06 0.08 0.08 0.10 0.09 0.15 0.12 0.24 0.49 0.22 0.02 0.00 0.01 0.03 0.01 0.00 0.00 0.01 0.02 0.00 0.00 0.00 0.00 0.00 0.00 0.00 0.00 0.00 0.00
0.02 0.03 0.07 0.10 0.14 0.19 0.21 0.22 0.19 0.37 0.37 0.31 0.20 0.15 0.16 0.10 0.02 0.02 0.05 0.05 0.06 0.07 0.09 0.11 0.11 0.07 0.05 0.05 0.05 0.07 0.08 0.07 0.07 0.02 0.00 0.00 0.00 0.00 0.00 0.00 0.00 0.00 0.00 0.00 0.00 0.00 0.00 0.00 0.00 0.00 0.00 0.00 0.00 0.00
0.05 0.08 0.05 0.07 0.12 0.13 0.18 0.20 0.21 0.27 0.17 0.12 0.06 0.11 0.03 0.03 0.01 0.01 0.00 0.01 0.02 0.06 0.12 0.24 0.34 0.30 0.31 0.07 0.02 0.02 0.03 0.03 0.00 0.00 0.00 0.00 0.00 0.00 0.00 0.00 0.00 0.00 0.00 0.00 0.00 0.00 0.00 0.00 0.00 0.00 0.00 0.00 0.00 0.00
0.11 0.05 0.05 0.08 0.09 0.11 0.17 0.12 0.07 0.06 0.04 0.04 0.02 0.04 0.03 0.03 0.02 0.02 0.02 0.01 0.01 0.11 0.32 0.54 0.65 0.51 0.46 0.07 0.04 0.02 0.00 0.00 0.00 0.00 0.00 0.00 0.00 0.00 0.00 0.00 0.00 0.00 0.00 0.00 0.00 0.00 0.00 0.00 0.00 0.00 0.00 0.00 0.00 0.00
0.02 0.06 0.18 0.16 0.13 0.15 0.12 0.03 0.05 0.08 0.05 0.04 0.05 0.02 0.02 0.04 0.05 0.03 0.02 0.01 0.01 0.14 0.45 0.57 0.36 0.24 0.19 0.12 0.01 0.00 0.00 0.00 0.00 0.01 0.01 0.00 0.00 0.00 0.00 0.00 0.00 0.00 0.00 0.00 0.00 0.00 0.00 0.00 0.00 0.00 0.00 0.00 0.00 0.00
0.04 0.06 0.10 0.09 0.05 0.03 0.01 0.01 0.04 0.05 0.06 0.05 0.05 0.06 0.04 0.05 0.04 0.04 0.02 0.01 0.07 0.20 0.24 0.38 0.26 0.21 0.13 0.09 0.04 0.00 0.00 0.00 0.01 0.03 0.03 0.01 0.00 0.00 0.00 0.00 0.00 0.00 0.00 0.00 0.00 0.00 0.00 0.00 0.00 0.00 0.00 0.00 0.00 0.00
0.05 0.03 0.02 0.00 0.01 0.03 0.02 0.01 0.02 0.05 0.01 0.03 0.02 0.02 0.03 0.06 0.03 0.04 0.01 0.01 0.06 0.18 0.49 0.22 0.12 0.09 0.05 0.04 0.02 0.00 0.00 0.01 0.01 0.03 0.03 0.01 0.01 0.00 0.01 0.03 0.02 0.00 0.00 0.00 0.00 0.00 0.00 0.00 0.00 0.00 0.00 0.00 0.00 0.00
0.00 0.00 0.00 0.00 0.00 0.05 0.03 0.01 0.01 0.02 0.00 0.00 0.00 0.02 0.04 0.05 0.03 0.05 0.03 0.06 0.08 0.15 0.29 0.12 0.02 0.00 0.01 0.01 0.00 0.01 0.01 0.01 0.01 0.01 0.03 0.03 0.02 0.01 0.02 0.04 0.04 0.03 0.02 0.00 0.00 0.00 0.00 0.00 0.00 0.00 0.00 0.00 0.00 0.01
0.00 0.00 0.00 0.00 0.00 0.00 0.01 0.00 0.01 0.00 0.00 0.01 0.01 0.02 0.03 0.01 0.02 0.02 0.03 0.04 0.12 0.13 0.07 0.01 0.01 0.03 0.02 0.01 0.00 0.00 0.00 0.00 0.00 0.00 0.01 0.02 0.03 0.04 0.04 0.04 0.06 0.08 0.07 0.04 0.01 0.00 0.00 0.00 0.00 0.00 0.01 0.02 0.03 0.03
0.00 0.00 0.00 0.00 0.00 0.00 0.00 0.00 0.00 0.00 0.01 0.02 0.02 0.02 0.04 0.03 0.01 0.00 0.01 0.02 0.03 0.01 0.02 0.04 0.06 0.06 0.05 0.04 0.02 0.01 0.00 0.00 0.00 0.00 0.01 0.01 0.02 0.04 0.06 0.08 0.10 0.13 0.13 0.11 0.08 0.05 0.02 0.01 0.00 0.01 0.01 0.02 0.02 0.03
0.00 0.00 0.00 0.00 0.00 0.00 0.00 0.00 0.00 0.00 0.02 0.02 0.01 0.01 0.01 0.01 0.00 0.00 0.00 0.01 0.01 0.01 0.01 0.01 0.01 0.00 0.00 0.00 0.00 0.00 0.00 0.00 0.00 0.00 0.01 0.01 0.02 0.03 0.05 0.09 0.13 0.19 0.21 0.22 0.18 0.14 0.11 0.09 0.07 0.04 0.02 0.01 0.02 0.04
0.00 0.00 0.00 0.00 0.00 0.00 0.00 0.00 0.00 0.00 0.00 0.00 0.01 0.01 0.01 0.01 0.00 0.00 0.01 0.00 0.00 0.01 0.01 0.01 0.01 0.01 0.01 0.00 0.00 0.00 0.00 0.00 0.00 0.01 0.01 0.01 0.03 0.04 0.03 0.05 0.08 0.10 0.10 0.12 0.15 0.17 0.16 0.12 0.08 0.05 0.03 0.02 0.02 0.03
0.00 0.00 0.00 0.00 0.00 0.00 0.00 0.00 0.00 0.00 0.00 0.00 0.01 0.02 0.01 0.00 0.02 0.01 0.00 0.01 0.00 0.01 0.01 0.02 0.03 0.02 0.02 0.02 0.01 0.00 0.01 0.01 0.00 0.00 0.01 0.01 0.01 0.02 0.03 0.03 0.03 0.04 0.05 0.04 0.06 0.09 0.11 0.10 0.10 0.06 0.04 0.03 0.03 0.03
0.00 0.00 0.00 0.00 0.00 0.00 0.00 0.00 0.00 0.00 0.00 0.00 0.01 0.01 0.00 0.02 0.02 0.01 0.02 0.02 0.02 0.03 0.03 0.05 0.05 0.07 0.07 0.03 0.03 0.03 0.02 0.02 0.03 0.01 0.00 0.00 0.01 0.01 0.01 0.01 0.01 0.02 0.02 0.02 0.03 0.06 0.06 0.06 0.06 0.04 0.06 0.06 0.05 0.04
0.00 0.00 0.00 0.00 0.00 0.00 0.00 0.00 0.00 0.00 0.00 0.00 0.01 0.01 0.01 0.02 0.01 0.01 0.02 0.01 0.02 0.03 0.04 0.05 0.06 0.08 0.05 0.04 0.05 0.08 0.08 0.07 0.07 0.04 0.02 0.02 0.01 0.01 0.01 0.01 0.01 0.01 0.00 0.01 0.01 0.04 0.05 0.05 0.06 0.07 0.07 0.08 0.07 0.04
0.00 0.00 0.00 0.00 0.00 0.00 0.00 0.00 0.00 0.00 0.00 0.01 0.01 0.01 0.01 0.01 0.03 0.03 0.01 0.00 0.01 0.00 0.01 0.02 0.03 0.05 0.04 0.05 0.10 0.15 0.18 0.17 0.16 0.17 0.15 0.12 0.11 0.12 0.11 0.09 0.07 0.06 0.04 0.04 0.04 0.05 0.06 0.07 0.07 0.06 0.05 0.06 0.08 0.06
0.00 0.00 0.00 0.00 0.00 0.00 0.01 0.00 0.00 0.00 0.00 0.02 0.04 0.03 0.02 0.00 0.01 0.01 0.00 0.00 0.00 0.01 0.02 0.02 0.03 0.04 0.06 0.09 0.12 0.15 0.17 0.18 0.19 0.18 0.15 0.14 0.17 0.17 0.16 0.13 0.11 0.10 0.09 0.08 0.07 0.06 0.06 0.06 0.06 0.05 0.05 0.06 0.08 0.09
0.01 0.00 0.00 0.01 0.00 0.00 0.00 0.00 0.01 0.01 0.01 0.01 0.04 0.02 0.00 0.01 0.01 0.01 0.00 0.00 0.02 0.03 0.05 0.04 0.03 0.03 0.04 0.05 0.07 0.09 0.11 0.12 0.14 0.15 0.15 0.15 0.15 0.11 0.08 0.08 0.10 0.11 0.11 0.09 0.08 0.09 0.07 0.06 0.05 0.05 0.04 0.05 0.07 0.08
0.01 0.01 0.01 0.01 0.01 0.01 0.01 0.01 0.01 0.01 0.02 0.02 0.02 0.02 0.02 0.04 0.03 0.02 0.02 0.03 0.06 0.07 0.06 0.06 0.04 0.04 0.05 0.05 0.05 0.04 0.05 0.04 0.04 0.04 0.06 0.07 0.10 0.08 0.08 0.08 0.07 0.08 0.09 0.08 0.07 0.05 0.04 0.04 0.03 0.03 0.03 0.03 0.05 0.05
0.02 0.02 0.03 0.03 0.03 0.03 0.01 0.01 0.03 0.03 0.03 0.04 0.04 0.05 0.06 0.06 0.07 0.10 0.08 0.05 0.05 0.06 0.07 0.09 0.08 0.05 0.06 0.08 0.08 0.08 0.05 0.03 0.03 0.03 0.04 0.05 0.07 0.09 0.07 0.05 0.05 0.06 0.05 0.05 0.05 0.05 0.03 0.03 0.03 0.02 0.02 0.03 0.03 0.03
0.01 0.01 0.02 0.04 0.03 0.04 0.06 0.03 0.03 0.02 0.02 0.02 0.04 0.05 0.09 0.11 0.12 0.10 0.03 0.04 0.06 0.08 0.10 0.10 0.12 0.12 0.09 0.11 0.11 0.13 0.13 0.11 0.08 0.08 0.07 0.07 0.08 0.09 0.09 0.07 0.05 0.04 0.04 0.04 0.05 0.04 0.03 0.02 0.02 0.02 0.01 0.01 0.01 0.02

GFSWCAN_prec_precacc24_174.txt.gz
Total_Precipitation_Accumulation
0.14 0.14 0.14 0.13 0.16 0.17 0.12 0.16 0.30 0.40 0.32 0.27 0.29 0.38 0.38 0.36 0.34 0.53 0.51 0.56 0.76 0.46 0.09 0.04 0.05 0.09 0.15 0.22 0.25 0.22 0.24 0.19 0.21 0.28 0.20 0.11 0.10 0.09 0.08 0.04 0.10 0.17 0.23 0.18 0.15 0.25 0.08 0.00 0.04 0.07 0.07 0.02 0.00 0.03
0.07 0.08 0.10 0.15 0.17 0.20 0.18 0.21 0.27 0.39 0.33 0.26 0.25 0.31 0.34 0.29 0.33 0.48 0.58 0.49 0.74 0.68 0.24 0.04 0.00 0.01 0.05 0.10 0.25 0.37 0.36 0.31 0.27 0.18 0.19 0.23 0.21 0.17 0.13 0.13 0.11 0.16 0.22 0.39 0.34 0.18 0.11 0.04 0.06 0.08 0.04 0.01 0.01 0.01
0.05 0.07 0.10 0.15 0.19 0.22 0.26 0.23 0.22 0.33 0.30 0.28 0.26 0.27 0.34 0.26 0.30 0.47 0.48 0.49 0.84 0.65 0.22 0.06 0.02 0.00 0.01 0.02 0.10 0.29 0.21 0.30 0.31 0.18 0.22 0.22 0.17 0.13 0.15 0.10 0.12 0.14 0.22 0.31 0.28 0.12 0.17 0.13 0.02 0.01 0.01 0.03 0.03 0.02
0.06 0.05 0.12 0.18 0.26 0.28 0.30 0.26 0.25 0.33 0.33 0.27 0.27 0.35 0.36 0.37 0.31 0.52 0.45 0.43 0.58 0.41 0.28 0.03 0.00 0.02 0.02 0.02 0.04 0.06 0.06 0.13 0.19 0.21 0.38 0.32 0.21 0.14 0.15 0.19 0.22 0.19 0.22 0.32 0.37 0.25 0.19 0.16 0.09 0.04 0.01 0.01 0.01 0.02
0.13 0.12 0.19 0.35 0.38 0.36 0.32 0.26 0.25 0.33 0.35 0.33 0.26 0.30 0.38 0.45 0.48 0.69 0.55 0.35 0.29 0.44 0.46 0.15 0.02 0.01 0.03 0.05 0.06 0.09 0.08 0.09 0.18 0.24 0.25 0.13 0.08 0.10 0.07 0.07 0.02 0.01 0.08 0.18 0.24 0.18 0.09 0.08 0.01 0.01 0.02 0.02 0.02 0.02
0.31 0.44 0.63 0.74 0.57 0.46 0.37 0.31 0.27 0.32 0.33 0.35 0.30 0.35 0.42 0.50 0.87 1.28 1.35 0.76 0.37 0.41 0.34 0.16 0.10 0.06 0.10 0.13 0.15 0.23 0.19 0.25 0.32 0.22 0.11 0.06 0.03 0.12 0.12 0.05 0.00 0.02 0.05 0.10 0.14 0.11 0.07 0.02 0.01 0.02 0.03 0.00 0.01 0.06
0.57 0.74 0.93 1.04 1.04 0.84 0.48 0.37 0.34 0.33 0.32 0.38 0.39 0.46 0.52 0.72 0.87 0.79 0.57 0.32 0.18 0.28 0.42 0.17 0.05 0.03 0.04 0.18 0.29 0.29 0.31 0.31 0.28 0.21 0.11 0.04 0.04 0.15 0.17 0.03 0.01 0.00 0.00 0.01 0.01 0.01 0.00 0.00 0.00 0.00 0.00 0.00 0.00 0.00
0.45 0.47 0.47 0.52 0.66 0.73 0.56 0.54 0.42 0.35 0.41 0.46 0.64 0.72 0.81 0.79 0.86 0.53 0.29 0.29 0.35 0.27 0.21 0.15 0.04 0.08 0.05 0.08 0.24 0.22 0.20 0.22 0.30 0.30 0.21 0.04 0.08 0.14 0.13 0.00 0.00 0.00 0.00 0.00 0.00 0.00 0.00 0.00 0.00 0.00 0.00 0.00 0.00 0.00
0.50 0.51 0.50 0.38 0.35 0.51 0.55 0.46 0.35 0.48 0.58 0.79 1.01 1.21 0.95 0.74 0.64 0.38 0.43 0.51 0.60 0.49 0.30 0.09 0.03 0.12 0.06 0.12 0.16 0.20 0.19 0.24 0.23 0.19 0.06 0.11 0.16 0.12 0.01 0.00 0.00 0.00 0.00 0.00 0.00 0.00 0.00 0.00 0.00 0.00 0.00 0.00 0.00 0.00
0.36 0.35 0.33 0.34 0.36 0.32 0.23 0.19 0.38 0.47 0.56 0.70 0.70 0.89 0.68 0.40 0.34 0.36 0.76 0.95 0.91 0.58 0.20 0.13 0.04 0.10 0.09 0.22 0.31 0.24 0.22 0.20 0.15 0.06 0.06 0.14 0.04 0.00 0.00 0.00 0.00 0.00 0.01 0.01 0.02 0.01 0.01 0.00 0.00 0.00 0.00 0.00 0.00 0.00
0.19 0.20 0.21 0.18 0.16 0.13 0.13 0.23 0.37 0.45 0.51 0.38 0.45 0.67 0.49 0.45 0.62 0.68 0.73 0.57 0.46 0.31 0.06 0.01 0.02 0.07 0.10 0.11 0.19 0.28 0.32 0.28 0.21 0.09 0.08 0.09 0.02 0.00 0.00 0.00 0.00 0.02 0.01 0.01 0.01 0.01 0.00 0.01 0.03 0.08 0.11 0.08 0.05 0.02
0.08 0.07 0.09 0.12 0.17 0.23 0.28 0.25 0.32 0.30 0.22 0.14 0.34 0.61 0.50 0.51 0.56 0.49 0.36 0.22 0.12 0.07 0.02 0.01 0.01 0.01 0.07 0.08 0.14 0.16 0.29 0.51 0.43 0.39 0.30 0.06 0.00 0.00 0.02 0.03 0.05 0.04 0.03 0.02 0.00 0.00 0.00 0.00 0.00 0.00 0.01 0.03 0.05 0.08
0.11 0.16 0.17 0.16 0.16 0.16 0.16 0.17 0.20 0.12 0.13 0.26 0.46 0.46 0.24 0.26 0.34 0.16 0.10 0.05 0.06 0.05 0.04 0.06 0.02 0.02 0.07 0.08 0.10 0.09 0.15 0.13 0.25 0.51 0.23 0.02 0.00 0.01 0.13 0.26 0.04 0.00 0.01 0.02 0.00 0.00 0.00 0.00 0.00 0.00 0.00 0.00 0.00 0.01
0.02 0.04 0.07 0.09 0.11 0.14 0.18 0.22 0.16 0.25 0.24 0.25 0.24 0.15 0.16 0.15 0.04 0.02 0.05 0.05 0.06 0.07 0.09 0.11 0.09 0.07 0.05 0.05 0.05 0.07 0.08 0.08 0.08 0.03 0.00 0.00 0.00 0.00 0.00 0.03 0.00 0.00 0.00 0.00 0.00 0.00 0.00 0.00 0.00 0.00 0.00 0.00 0.00 0.00
0.01 0.01 0.02 0.05 0.08 0.10 0.14 0.14 0.15 0.23 0.26 0.18 0.08 0.11 0.04 0.03 0.01 0.01 0.00 0.01 0.02 0.06 0.12 0.24 0.34 0.30 0.31 0.07 0.02 0.03 0.04 0.03 0.00 0.01 0.02 0.00 0.00 0.00 0.00 0.00 0.00 0.00 0.00 0.00 0.00 0.00 0.00 0.00 0.00 0.00 0.01 0.00 0.00 0.00
0.03 0.02 0.04 0.06 0.06 0.08 0.13 0.11 0.09 0.10 0.08 0.04 0.02 0.04 0.03 0.02 0.02 0.01 0.01 0.01 0.01 0.11 0.32 0.55 0.66 0.52 0.46 0.07 0.05 0.02 0.00 0.00 0.00 0.00 0.00 0.00 0.00 0.00 0.00 0.00 0.00 0.00 0.00 0.00 0.00 0.00 0.00 0.00 0.00 0.00 0.00 0.00 0.00 0.00
0.02 0.04 0.13 0.14 0.12 0.12 0.09 0.04 0.06 0.09 0.05 0.04 0.04 0.02 0.02 0.03 0.04 0.02 0.01 0.01 0.01 0.14 0.46 0.58 0.37 0.25 0.22 0.16 0.02 0.00 0.00 0.00 0.00 0.00 0.00 0.00 0.00 0.00 0.00 0.00 0.00 0.00 0.00 0.00 0.00 0.00 0.00 0.00 0.00 0.00 0.00 0.00 0.00 0.00
0.04 0.06 0.10 0.09 0.04 0.03 0.01 0.01 0.04 0.05 0.06 0.05 0.04 0.05 0.03 0.04 0.02 0.02 0.01 0.01 0.07 0.21 0.25 0.39 0.27 0.22 0.14 0.11 0.07 0.03 0.02 0.01 0.00 0.01 0.01 0.00 0.00 0.00 0.00 0.00 0.00 0.00 0.00 0.00 0.00 0.00 0.00 0.00 0.00 0.00 0.00 0.00 0.00 0.00
0.05 0.03 0.02 0.00 0.01 0.03 0.02 0.01 0.02 0.05 0.01 0.03 0.02 0.01 0.02 0.05 0.03 0.02 0.01 0.01 0.06 0.19 0.50 0.23 0.12 0.09 0.06 0.07 0.11 0.11 0.05 0.01 0.00 0.01 0.02 0.01 0.01 0.00 0.01 0.03 0.02 0.00 0.00 0.00 0.00 0.00 0.00 0.00 0.00 0.00 0.00 0.00 0.00 0.00
0.00 0.00 0.00 0.00 0.00 0.05 0.03 0.01 0.01 0.02 0.00 0.00 0.00 0.02 0.01 0.02 0.03 0.06 0.05 0.08 0.10 0.20 0.33 0.14 0.03 0.00 0.01 0.01 0.01 0.01 0.02 0.02 0.00 0.01 0.02 0.03 0.02 0.01 0.02 0.04 0.04 0.03 0.02 0.00 0.00 0.00 0.00 0.00 0.00 0.00 0.00 0.00 0.00 0.00
0.00 0.00 0.00 0.00 0.00 0.00 0.01 0.00 0.01 0.00 0.00 0.01 0.01 0.02 0.03 0.01 0.02 0.03 0.04 0.09 0.21 0.20 0.11 0.04 0.05 0.08 0.09 0.06 0.02 0.01 0.00 0.00 0.00 0.01 0.01 0.02 0.03 0.04 0.04 0.04 0.06 0.08 0.07 0.04 0.01 0.00 0.00 0.00 0.00 0.00 0.00 0.02 0.02 0.03
0.00 0.00 0.00 0.00 0.00 0.00 0.00 0.00 0.00 0.00 0.01 0.02 0.02 0.02 0.04 0.03 0.01 0.00 0.00 0.03 0.05 0.02 0.06 0.10 0.11 0.10 0.08 0.06 0.04 0.04 0.03 0.03 0.02 0.01 0.01 0.01 0.02 0.04 0.06 0.08 0.10 0.13 0.14 0.12 0.09 0.05 0.03 0.01 0.00 0.01 0.01 0.02 0.02 0.03
0.00 0.00 0.00 0.00 0.00 0.00 0.00 0.00 0.00 0.00 0.02 0.02 0.01 0.01 0.01 0.01 0.00 0.00 0.00 0.01 0.02 0.01 0.01 0.01 0.00 0.00 0.00 0.00 0.01 0.01 0.01 0.01 0.01 0.01 0.02 0.01 0.02 0.03 0.05 0.09 0.14 0.19 0.22 0.22 0.19 0.16 0.13 0.11 0.07 0.04 0.02 0.02 0.02 0.05
0.00 0.00 0.00 0.00 0.00 0.00 0.00 0.00 0.00 0.00 0.00 0.00 0.01 0.01 0.01 0.01 0.00 0.00 0.01 0.01 0.01 0.00 0.00 0.00 0.00 0.00 0.01 0.00 0.00 0.00 0.01 0.00 0.00 0.01 0.01 0.02 0.03 0.04 0.04 0.05 0.08 0.10 0.10 0.12 0.15 0.18 0.18 0.16 0.13 0.10 0.06 0.04 0.04 0.05
0.00 0.00 0.00 0.00 0.00 0.00 0.00 0.00 0.00 0.00 0.00 0.00 0.01 0.02 0.01 0.00 0.02 0.01 0.01 0.02 0.01 0.01 0.01 0.01 0.01 0.01 0.01 0.01 0.00 0.00 0.01 0.01 0.01 0.01 0.01 0.01 0.02 0.03 0.03 0.03 0.03 0.05 0.06 0.05 0.07 0.09 0.12 0.12 0.13 0.12 0.10 0.08 0.06 0.06
0.00 0.00 0.00 0.00 0.00 0.00 0.00 0.00 0.00 0.00 0.00 0.00 0.01 0.01 0.01 0.02 0.03 0.02 0.02 0.04 0.03 0.03 0.03 0.04 0.04 0.06 0.06 0.02 0.02 0.02 0.01 0.02 0.03 0.02 0.01 0.01 0.01 0.01 0.02 0.02 0.01 0.02 0.02 0.04 0.05 0.07 0.08 0.09 0.09 0.07 0.08 0.08 0.07 0.06
0.00 0.00 0.00 0.00 0.00 0.00 0.00 0.00 0.00 0.00 0.00 0.00 0.02 0.01 0.02 0.02 0.02 0.02 0.09 0.05 0.03 0.03 0.03 0.04 0.06 0.08 0.05 0.03 0.04 0.08 0.08 0.07 0.07 0.05 0.03 0.02 0.02 0.02 0.02 0.02 0.02 0.01 0.00 0.01 0.02 0.06 0.07 0.08 0.09 0.08 0.08 0.09 0.07 0.04
0.00 0.00 0.00 0.00 0.00 0.00 0.00 0.00 0.00 0.00 0.01 0.01 0.02 0.02 0.02 0.02 0.05 0.08 0.05 0.01 0.01 0.00 0.01 0.02 0.04 0.05 0.04 0.05 0.10 0.15 0.18 0.17 0.16 0.17 0.16 0.13 0.13 0.14 0.13 0.11 0.08 0.06 0.04 0.05 0.05 0.07 0.09 0.10 0.10 0.09 0.07 0.07 0.08 0.07
0.00 0.00 0.00 0.00 0.00 0.00 0.00 0.00 0.00 0.01 0.01 0.02 0.05 0.04 0.02 0.01 0.03 0.01 0.01 0.00 0.00 0.01 0.02 0.02 0.03 0.04 0.06 0.09 0.12 0.15 0.17 0.19 0.20 0.18 0.16 0.16 0.19 0.19 0.18 0.15 0.13 0.11 0.11 0.11 0.12 0.11 0.11 0.11 0.11 0.09 0.09 0.08 0.08 0.10
0.01 0.00 0.00 0.01 0.00 0.00 0.00 0.00 0.01 0.01 0.00 0.01 0.04 0.03 0.01 0.01 0.02 0.02 0.01 0.01 0.02 0.03 0.05 0.05 0.03 0.03 0.04 0.05 0.07 0.08 0.11 0.12 0.15 0.16 0.16 0.16 0.16 0.13 0.11 0.11 0.13 0.15 0.15 0.13 0.13 0.14 0.13 0.12 0.12 0.11 0.10 0.10 0.10 0.10
0.00 0.01 0.02 0.01 0.01 0.01 0.01 0.00 0.00 0.01 0.02 0.02 0.02 0.03 0.03 0.05 0.05 0.04 0.04 0.05 0.06 0.06 0.05 0.05 0.04 0.04 0.06 0.05 0.05 0.05 0.05 0.04 0.05 0.05 0.07 0.08 0.11 0.09 0.10 0.10 0.10 0.12 0.13 0.12 0.11 0.10 0.09 0.09 0.09 0.09 0.08 0.08 0.08 0.08
0.01 0.02 0.05 0.05 0.03 0.03 0.00 0.01 0.02 0.03 0.03 0.04 0.04 0.06 0.07 0.09 0.11 0.13 0.09 0.05 0.04 0.05 0.06 0.09 0.08 0.05 0.06 0.08 0.08 0.09 0.08 0.06 0.05 0.05 0.06 0.06 0.08 0.10 0.09 0.07 0.07 0.08 0.09 0.09 0.09 0.09 0.08 0.07 0.07 0.07 0.06 0.05 0.05 0.06
0.01 0.01 0.02 0.03 0.02 0.04 0.06 0.03 0.02 0.02 0.02 0.02 0.06 0.06 0.10 0.13 0.13 0.10 0.03 0.04 0.06 0.08 0.10 0.10 0.11 0.11 0.09 0.10 0.11 0.13 0.15 0.14 0.11 0.09 0.08 0.08 0.10 0.11 0.11 0.09 0.07 0.06 0.06 0.06 0.08 0.07 0.06 0.05 0.04 0.04 0.03 0.03 0.02 0.03

GFSWCAN_prec_precacc24_177.txt.gz
Total_Precipitation_Accumulation
0.12 0.13 0.12 0.12 0.10 0.08 0.06 0.05 0.05 0.13 0.20 0.25 0.28 0.37 0.37 0.35 0.31 0.52 0.47 0.55 0.79 0.49 0.10 0.05 0.07 0.10 0.16 0.22 0.27 0.26 0.26 0.23 0.31 0.37 0.25 0.12 0.09 0.08 0.07 0.04 0.08 0.17 0.27 0.24 0.20 0.29 0.08 0.00 0.04 0.07 0.07 0.02 0.00 0.03
0.07 0.08 0.09 0.09 0.10 0.10 0.11 0.10 0.10 0.17 0.22 0.25 0.24 0.30 0.33 0.28 0.31 0.47 0.57 0.46 0.72 0.71 0.24 0.05 0.02 0.02 0.06 0.10 0.26 0.38 0.38 0.32 0.41 0.37 0.30 0.27 0.20 0.16 0.14 0.13 0.11 0.14 0.21 0.37 0.33 0.17 0.08 0.03 0.06 0.08 0.04 0.01 0.01 0.01
0.06 0.07 0.08 0.08 0.08 0.11 0.17 0.12 0.10 0.20 0.22 0.27 0.26 0.27 0.33 0.26 0.28 0.47 0.50 0.50 0.87 0.67 0.23 0.06 0.02 0.00 0.01 0.02 0.10 0.30 0.21 0.30 0.35 0.40 0.44 0.34 0.18 0.12 0.15 0.09 0.12 0.14 0.22 0.29 0.26 0.12 0.17 0.13 0.02 0.01 0.01 0.03 0.03 0.02
0.09 0.08 0.10 0.11 0.11 0.14 0.21 0.17 0.15 0.27 0.31 0.27 0.27 0.34 0.36 0.37 0.30 0.54 0.51 0.48 0.64 0.47 0.32 0.04 0.00 0.02 0.02 0.02 0.05 0.06 0.05 0.12 0.19 0.23 0.38 0.36 0.24 0.13 0.13 0.17 0.21 0.19 0.21 0.31 0.38 0.24 0.19 0.16 0.09 0.04 0.01 0.01 0.02 0.03
0.12 0.13 0.14 0.23 0.30 0.32 0.30 0.21 0.22 0.32 0.35 0.32 0.25 0.29 0.37 0.44 0.48 0.69 0.57 0.39 0.34 0.49 0.48 0.16 0.02 0.01 0.03 0.05 0.06 0.09 0.08 0.07 0.12 0.18 0.22 0.14 0.09 0.10 0.06 0.06 0.03 0.01 0.08 0.16 0.22 0.16 0.08 0.06 0.01 0.01 0.02 0.02 0.02 0.02
0.21 0.31 0.43 0.61 0.63 0.62 0.53 0.36 0.29 0.33 0.34 0.36 0.30 0.34 0.42 0.50 0.78 1.11 1.19 0.64 0.35 0.44 0.41 0.17 0.10 0.06 0.11 0.14 0.15 0.22 0.19 0.21 0.22 0.18 0.14 0.11 0.07 0.12 0.08 0.03 0.00 0.02 0.05 0.10 0.13 0.11 0.07 0.02 0.01 0.02 0.03 0.00 0.01 0.06
0.38 0.55 0.77 0.99 1.08 1.06 0.85 0.54 0.37 0.34 0.33 0.39 0.39 0.45 0.51 0.69 0.77 0.59 0.52 0.34 0.19 0.32 0.46 0.19 0.05 0.05 0.05 0.18 0.29 0.31 0.36 0.34 0.24 0.23 0.15 0.07 0.06 0.12 0.12 0.01 0.00 0.00 0.00 0.01 0.01 0.01 0.00 0.00 0.00 0.00 0.00 0.00 0.00 0.00
0.34 0.44 0.47 0.53 0.66 0.85 0.89 0.66 0.45 0.36 0.42 0.47 0.63 0.69 0.80 0.70 0.79 0.51 0.31 0.33 0.41 0.31 0.23 0.17 0.03 0.08 0.06 0.07 0.25 0.36 0.39 0.31 0.30 0.30 0.19 0.05 0.08 0.12 0.10 0.00 0.00 0.00 0.00 0.00 0.00 0.00 0.00 0.00 0.00 0.00 0.00 0.00 0.00 0.00
0.50 0.51 0.51 0.40 0.42 0.63 0.63 0.49 0.36 0.49 0.57 0.75 0.96 1.16 0.90 0.70 0.67 0.42 0.44 0.59 0.63 0.53 0.29 0.09 0.03 0.12 0.08 0.12 0.12 0.23 0.27 0.23 0.21 0.17 0.05 0.11 0.12 0.10 0.01 0.00 0.00 0.00 0.00 0.00 0.00 0.00 0.00 0.00 0.00 0.00 0.00 0.00 0.00 0.00
0.36 0.35 0.34 0.35 0.37 0.33 0.24 0.20 0.38 0.46 0.52 0.68 0.72 0.97 0.72 0.45 0.36 0.37 0.77 0.94 0.87 0.50 0.19 0.12 0.03 0.09 0.13 0.24 0.30 0.24 0.22 0.19 0.14 0.04 0.06 0.13 0.04 0.00 0.00 0.00 0.00 0.02 0.03 0.01 0.02 0.01 0.01 0.00 0.00 0.00 0.00 0.00 0.00 0.00
0.19 0.20 0.21 0.18 0.16 0.13 0.13 0.22 0.28 0.35 0.52 0.42 0.49 0.72 0.55 0.45 0.61 0.68 0.70 0.56 0.45 0.29 0.06 0.01 0.02 0.12 0.15 0.14 0.18 0.27 0.31 0.28 0.21 0.09 0.09 0.09 0.01 0.00 0.00 0.00 0.01 0.04 0.04 0.03 0.02 0.01 0.01 0.01 0.03 0.08 0.11 0.08 0.05 0.02
0.08 0.07 0.09 0.12 0.17 0.23 0.27 0.22 0.20 0.25 0.24 0.16 0.36 0.62 0.45 0.41 0.47 0.47 0.34 0.22 0.12 0.07 0.03 0.00 0.01 0.02 0.08 0.08 0.15 0.16 0.29 0.51 0.44 0.42 0.31 0.06 0.01 0.00 0.02 0.04 0.11 0.08 0.06 0.03 0.01 0.02 0.02 0.01 0.00 0.00 0.01 0.03 0.05 0.08
0.11 0.16 0.17 0.16 0.16 0.16 0.14 0.13 0.16 0.13 0.15 0.26 0.41 0.42 0.24 0.27 0.34 0.19 0.17 0.12 0.10 0.05 0.04 0.05 0.03 0.03 0.04 0.05 0.11 0.09 0.15 0.13 0.27 0.52 0.23 0.03 0.03 0.01 0.13 0.47 0.33 0.04 0.01 0.02 0.00 0.00 0.00 0.00 0.00 0.00 0.00 0.00 0.00 0.01
0.02 0.04 0.07 0.09 0.11 0.13 0.14 0.13 0.14 0.24 0.23 0.23 0.23 0.17 0.22 0.26 0.11 0.07 0.07 0.07 0.07 0.07 0.09 0.11 0.07 0.04 0.03 0.05 0.05 0.07 0.08 0.09 0.09 0.04 0.02 0.06 0.02 0.00 0.00 0.05 0.01 0.00 0.00 0.00 0.00 0.00 0.00 0.00 0.00 0.00 0.00 0.00 0.00 0.00
0.01 0.01 0.02 0.04 0.06 0.06 0.08 0.11 0.10 0.21 0.25 0.20 0.12 0.13 0.10 0.03 0.01 0.01 0.00 0.02 0.02 0.06 0.11 0.23 0.32 0.29 0.30 0.07 0.02 0.03 0.05 0.04 0.01 0.01 0.07 0.02 0.00 0.00 0.00 0.00 0.00 0.00 0.00 0.00 0.00 0.00 0.00 0.00 0.00 0.01 0.05 0.01 0.00 0.00
0.01 0.01 0.03 0.03 0.02 0.02 0.07 0.08 0.08 0.12 0.09 0.06 0.03 0.02 0.02 0.02 0.02 0.01 0.02 0.02 0.02 0.12 0.33 0.57 0.68 0.52 0.47 0.08 0.05 0.02 0.01 0.00 0.02 0.04 0.01 0.00 0.00 0.00 0.00 0.00 0.00 0.00 0.00 0.00 0.00 0.00 0.00 0.00 0.00 0.00 0.06 0.02 0.00 0.00
0.01 0.04 0.11 0.08 0.04 0.04 0.05 0.04 0.05 0.06 0.02 0.01 0.02 0.01 0.01 0.02 0.04 0.03 0.01 0.01 0.02 0.15 0.48 0.62 0.40 0.27 0.26 0.20 0.04 0.02 0.02 0.02 0.01 0.00 0.00 0.00 0.00 0.00 0.00 0.00 0.00 0.00 0.00 0.00 0.00 0.00 0.00 0.00 0.00 0.00 0.00 0.00 0.00 0.00
0.04 0.05 0.08 0.05 0.02 0.01 0.01 0.01 0.03 0.04 0.05 0.03 0.03 0.04 0.02 0.03 0.02 0.01 0.01 0.01 0.07 0.22 0.27 0.43 0.29 0.23 0.16 0.14 0.12 0.09 0.03 0.01 0.00 0.01 0.01 0.00 0.00 0.00 0.00 0.00 0.00 0.00 0.00 0.00 0.00 0.00 0.00 0.00 0.00 0.00 0.00 0.00 0.00 0.00
0.04 0.02 0.02 0.00 0.01 0.03 0.02 0.01 0.03 0.06 0.01 0.03 0.01 0.01 0.01 0.03 0.01 0.02 0.01 0.01 0.06 0.21 0.52 0.25 0.13 0.09 0.07 0.12 0.14 0.15 0.13 0.09 0.05 0.02 0.01 0.00 0.00 0.00 0.01 0.03 0.02 0.00 0.00 0.00 0.00 0.00 0.00 0.00 0.00 0.00 0.00 0.00 0.00 0.00
0.00 0.00 0.00 0.00 0.00 0.05 0.03 0.01 0.01 0.03 0.00 0.00 0.00 0.01 0.00 0.02 0.03 0.06 0.05 0.09 0.12 0.25 0.36 0.15 0.03 0.03 0.06 0.04 0.01 0.02 0.02 0.02 0.02 0.02 0.02 0.02 0.02 0.01 0.02 0.04 0.04 0.03 0.02 0.00 0.00 0.00 0.00 0.00 0.00 0.00 0.00 0.00 0.00 0.00
0.00 0.00 0.00 0.00 0.00 0.00 0.01 0.00 0.01 0.00 0.00 0.00 0.00 0.01 0.02 0.01 0.01 0.03 0.04 0.10 0.28 0.26 0.13 0.08 0.10 0.13 0.12 0.09 0.04 0.02 0.01 0.01 0.01 0.02 0.01 0.02 0.03 0.03 0.04 0.04 0.06 0.08 0.07 0.04 0.01 0.00 0.00 0.00 0.00 0.00 0.00 0.01 0.01 0.02
0.00 0.00 0.00 0.00 0.00 0.00 0.00 0.00 0.00 0.00 0.00 0.01 0.01 0.01 0.03 0.03 0.02 0.01 0.01 0.04 0.07 0.04 0.10 0.15 0.15 0.12 0.09 0.06 0.05 0.04 0.04 0.03 0.02 0.02 0.02 0.02 0.02 0.04 0.06 0.08 0.10 0.13 0.14 0.12 0.09 0.06 0.04 0.01 0.00 0.01 0.01 0.02 0.02 0.02
0.00 0.00 0.00 0.00 0.00 0.00 0.00 0.00 0.00 0.00 0.01 0.01 0.01 0.01 0.01 0.01 0.01 0.00 0.01 0.01 0.03 0.01 0.01 0.01 0.01 0.00 0.01 0.01 0.01 0.02 0.01 0.01 0.01 0.02 0.02 0.02 0.02 0.03 0.05 0.09 0.14 0.19 0.21 0.22 0.19 0.16 0.14 0.11 0.08 0.04 0.02 0.02 0.02 0.04
0.00 0.00 0.00 0.00 0.00 0.00 0.00 0.00 0.00 0.00 0.00 0.00 0.01 0.01 0.01 0.01 0.01 0.01 0.01 0.02 0.02 0.00 0.00 0.00 0.00 0.00 0.01 0.01 0.01 0.01 0.01 0.01 0.01 0.01 0.02 0.03 0.04 0.05 0.04 0.06 0.09 0.10 0.10 0.12 0.15 0.18 0.18 0.17 0.15 0.13 0.09 0.07 0.06 0.06
0.00 0.00 0.00 0.00 0.00 0.00 0.00 0.00 0.00 0.00 0.00 0.00 0.01 0.01 0.02 0.01 0.02 0.01 0.01 0.04 0.04 0.03 0.01 0.01 0.01 0.01 0.01 0.01 0.00 0.00 0.01 0.01 0.01 0.01 0.01 0.02 0.03 0.04 0.04 0.03 0.04 0.05 0.06 0.05 0.07 0.09 0.12 0.13 0.15 0.15 0.14 0.13 0.11 0.11
0.00 0.00 0.00 0.00 0.00 0.00 0.00 0.00 0.00 0.00 0.00 0.00 0.01 0.01 0.01 0.03 0.03 0.02 0.05 0.12 0.11 0.06 0.03 0.03 0.03 0.06 0.05 0.02 0.02 0.01 0.01 0.02 0.03 0.02 0.01 0.01 0.02 0.03 0.04 0.03 0.02 0.02 0.02 0.04 0.06 0.08 0.09 0.10 0.10 0.09 0.10 0.10 0.11 0.10
0.00 0.00 0.00 0.00 0.00 0.00 0.00 0.00 0.00 0.00 0.01 0.01 0.03 0.02 0.03 0.04 0.03 0.06 0.15 0.08 0.04 0.03 0.03 0.04 0.06 0.08 0.06 0.03 0.04 0.07 0.08 0.07 0.07 0.05 0.03 0.02 0.03 0.03 0.03 0.05 0.04 0.03 0.00 0.01 0.03 0.07 0.09 0.11 0.12 0.12 0.11 0.11 0.10 0.08
0.00 0.00 0.00 0.00 0.00 0.00 0.00 0.01 0.01 0.01 0.02 0.03 0.03 0.04 0.04 0.04 0.10 0.14 0.07 0.02 0.01 0.00 0.01 0.03 0.05 0.06 0.04 0.05 0.10 0.16 0.18 0.17 0.16 0.17 0.16 0.13 0.13 0.14 0.15 0.13 0.09 0.07 0.05 0.05 0.07 0.10 0.13 0.15 0.15 0.13 0.11 0.10 0.12 0.11
0.00 0.00 0.00 0.00 0.00 0.00 0.01 0.01 0.01 0.03 0.05 0.05 0.08 0.06 0.05 0.04 0.05 0.02 0.01 0.00 0.00 0.01 0.02 0.02 0.02 0.04 0.06 0.09 0.12 0.15 0.18 0.20 0.21 0.19 0.16 0.16 0.20 0.23 0.20 0.16 0.15 0.13 0.12 0.13 0.14 0.15 0.15 0.16 0.16 0.14 0.14 0.11 0.10 0.12
0.01 0.00 0.01 0.02 0.01 0.01 0.02 0.02 0.02 0.02 0.01 0.02 0.06 0.04 0.02 0.06 0.05 0.03 0.02 0.01 0.01 0.03 0.05 0.05 0.03 0.04 0.04 0.06 0.06 0.08 0.10 0.13 0.18 0.21 0.19 0.17 0.18 0.15 0.12 0.12 0.15 0.17 0.17 0.16 0.16 0.17 0.17 0.18 0.19 0.19 0.16 0.14 0.13 0.14
0.00 0.01 0.02 0.03 0.03 0.02 0.01 0.00 0.00 0.01 0.02 0.01 0.02 0.03 0.05 0.08 0.07 0.06 0.05 0.05 0.06 0.06 0.05 0.05 0.04 0.04 0.06 0.06 0.06 0.06 0.05 0.05 0.07 0.07 0.10 0.11 0.12 0.11 0.12 0.12 0.12 0.15 0.16 0.15 0.15 0.14 0.14 0.15 0.15 0.14 0.14 0.13 0.13 0.12
0.02 0.02 0.05 0.05 0.03 0.03 0.01 0.01 0.02 0.02 0.03 0.04 0.06 0.07 0.10 0.12 0.14 0.13 0.09 0.05 0.04 0.05 0.06 0.08 0.07 0.04 0.06 0.08 0.09 0.11 0.10 0.07 0.07 0.08 0.08 0.08 0.09 0.11 0.10 0.08 0.09 0.10 0.11 0.11 0.12 0.13 0.12 0.12 0.13 0.12 0.11 0.11 0.10 0.10
0.01 0.01 0.03 0.04 0.03 0.04 0.07 0.04 0.02 0.02 0.02 0.04 0.09 0.08 0.12 0.15 0.14 0.10 0.03 0.04 0.06 0.08 0.09 0.09 0.10 0.10 0.09 0.11 0.12 0.14 0.16 0.16 0.14 0.11 0.09 0.09 0.11 0.13 0.14 0.12 0.10 0.08 0.08 0.08 0.10 0.10 0.09 0.08 0.08 0.08 0.07 0.06 0.05 0.05

GFSWCAN_prec_precacc24_180.txt.gz
Total_Precipitation_Accumulation
0.07 0.08 0.09 0.09 0.08 0.06 0.05 0.04 0.04 0.05 0.04 0.04 0.06 0.09 0.17 0.27 0.30 0.51 0.43 0.50 0.81 0.54 0.09 0.06 0.09 0.12 0.18 0.24 0.28 0.28 0.28 0.26 0.34 0.41 0.32 0.18 0.14 0.10 0.07 0.03 0.04 0.16 0.30 0.29 0.26 0.36 0.16 0.05 0.04 0.08 0.06 0.02 0.01 0.03
0.04 0.05 0.07 0.07 0.07 0.08 0.08 0.09 0.08 0.07 0.07 0.06 0.09 0.16 0.22 0.24 0.30 0.48 0.54 0.41 0.70 0.75 0.24 0.04 0.02 0.03 0.07 0.12 0.27 0.40 0.40 0.36 0.51 0.47 0.46 0.38 0.29 0.22 0.19 0.16 0.12 0.12 0.21 0.38 0.34 0.19 0.09 0.05 0.05 0.08 0.04 0.01 0.01 0.01
0.06 0.06 0.07 0.08 0.07 0.08 0.10 0.09 0.07 0.06 0.08 0.11 0.17 0.17 0.24 0.23 0.27 0.47 0.50 0.48 0.90 0.74 0.26 0.06 0.02 0.00 0.01 0.02 0.10 0.30 0.21 0.30 0.36 0.43 0.46 0.39 0.28 0.17 0.20 0.10 0.12 0.16 0.24 0.26 0.21 0.10 0.11 0.09 0.02 0.01 0.01 0.03 0.03 0.02
0.08 0.09 0.11 0.13 0.13 0.12 0.13 0.14 0.12 0.10 0.10 0.12 0.21 0.31 0.32 0.35 0.28 0.54 0.49 0.46 0.69 0.56 0.37 0.04 0.00 0.02 0.02 0.01 0.05 0.06 0.05 0.12 0.19 0.22 0.38 0.37 0.24 0.15 0.21 0.19 0.26 0.27 0.18 0.23 0.34 0.22 0.18 0.15 0.09 0.04 0.01 0.01 0.02 0.03
0.12 0.12 0.14 0.18 0.24 0.26 0.26 0.21 0.16 0.12 0.13 0.18 0.20 0.27 0.36 0.43 0.46 0.69 0.54 0.34 0.35 0.59 0.55 0.17 0.03 0.01 0.03 0.05 0.06 0.10 0.09 0.09 0.12 0.15 0.17 0.13 0.08 0.10 0.05 0.04 0.02 0.01 0.04 0.12 0.18 0.12 0.07 0.04 0.01 0.01 0.02 0.02 0.02 0.02
0.21 0.31 0.41 0.46 0.47 0.49 0.47 0.33 0.26 0.25 0.19 0.27 0.27 0.33 0.41 0.50 0.78 1.10 1.13 0.62 0.34 0.46 0.50 0.19 0.10 0.06 0.11 0.15 0.16 0.22 0.20 0.25 0.25 0.19 0.13 0.10 0.06 0.19 0.18 0.06 0.00 0.02 0.05 0.09 0.11 0.11 0.07 0.02 0.01 0.02 0.03 0.00 0.01 0.06
0.37 0.47 0.57 0.72 0.88 0.95 0.78 0.56 0.48 0.40 0.29 0.37 0.40 0.46 0.52 0.70 0.74 0.57 0.51 0.40 0.26 0.34 0.50 0.20 0.05 0.06 0.07 0.19 0.29 0.30 0.34 0.32 0.22 0.20 0.13 0.07 0.08 0.24 0.21 0.03 0.00 0.00 0.00 0.01 0.00 0.01 0.00 0.00 0.00 0.00 0.00 0.00 0.00 0.00
0.17 0.18 0.24 0.37 0.56 0.81 0.90 0.85 0.63 0.41 0.43 0.48 0.65 0.71 0.81 0.69 0.73 0.40 0.24 0.34 0.45 0.37 0.27 0.20 0.03 0.04 0.11 0.13 0.26 0.36 0.42 0.34 0.34 0.26 0.18 0.07 0.09 0.14 0.13 0.00 0.00 0.00 0.00 0.00 0.00 0.00 0.00 0.00 0.00 0.00 0.00 0.00 0.00 0.00
0.35 0.44 0.49 0.39 0.42 0.66 0.69 0.54 0.38 0.49 0.58 0.77 0.96 1.08 0.79 0.62 0.59 0.33 0.39 0.59 0.65 0.59 0.39 0.10 0.03 0.09 0.13 0.19 0.21 0.27 0.42 0.35 0.30 0.19 0.11 0.18 0.16 0.08 0.01 0.00 0.00 0.00 0.00 0.00 0.00 0.00 0.00 0.00 0.00 0.00 0.00 0.00 0.00 0.00
0.36 0.35 0.34 0.35 0.38 0.33 0.25 0.20 0.38 0.47 0.53 0.67 0.63 0.82 0.62 0.40 0.31 0.34 0.72 0.88 0.83 0.45 0.18 0.11 0.03 0.06 0.15 0.32 0.44 0.32 0.22 0.25 0.13 0.04 0.05 0.12 0.03 0.00 0.00 0.00 0.01 0.02 0.04 0.04 0.06 0.03 0.01 0.00 0.00 0.00 0.00 0.00 0.00 0.00
0.19 0.20 0.21 0.19 0.16 0.13 0.13 0.22 0.28 0.32 0.46 0.39 0.47 0.74 0.61 0.43 0.59 0.68 0.71 0.56 0.42 0.28 0.06 0.00 0.02 0.11 0.15 0.23 0.34 0.26 0.23 0.22 0.18 0.07 0.08 0.08 0.01 0.00 0.01 0.01 0.02 0.04 0.05 0.07 0.08 0.07 0.04 0.02 0.04 0.09 0.11 0.08 0.05 0.02
0.08 0.07 0.09 0.12 0.17 0.23 0.27 0.22 0.18 0.23 0.22 0.19 0.41 0.66 0.46 0.42 0.48 0.48 0.32 0.21 0.12 0.07 0.03 0.01 0.01 0.02 0.09 0.13 0.21 0.16 0.26 0.50 0.43 0.43 0.34 0.07 0.03 0.05 0.03 0.04 0.13 0.13 0.07 0.05 0.04 0.08 0.09 0.07 0.06 0.04 0.02 0.03 0.05 0.08
0.11 0.16 0.17 0.16 0.16 0.16 0.14 0.11 0.11 0.15 0.17 0.28 0.44 0.42 0.24 0.26 0.29 0.18 0.19 0.20 0.16 0.10 0.08 0.07 0.05 0.05 0.08 0.08 0.09 0.07 0.14 0.12 0.27 0.53 0.24 0.06 0.11 0.04 0.13 0.48 0.41 0.16 0.03 0.02 0.00 0.00 0.00 0.01 0.01 0.00 0.00 0.00 0.00 0.01
0.02 0.04 0.07 0.09 0.11 0.12 0.13 0.11 0.12 0.24 0.26 0.27 0.23 0.18 0.26 0.36 0.22 0.19 0.16 0.26 0.15 0.08 0.07 0.10 0.10 0.06 0.03 0.05 0.04 0.06 0.08 0.09 0.10 0.04 0.07 0.12 0.03 0.00 0.00 0.05 0.02 0.00 0.00 0.00 0.00 0.00 0.00 0.00 0.01 0.00 0.00 0.00 0.00 0.00
0.02 0.01 0.02 0.05 0.05 0.05 0.05 0.04 0.10 0.23 0.28 0.20 0.17 0.20 0.20 0.10 0.05 0.01 0.01 0.03 0.02 0.05 0.10 0.21 0.27 0.26 0.24 0.06 0.02 0.03 0.06 0.05 0.01 0.04 0.14 0.03 0.00 0.00 0.00 0.00 0.00 0.00 0.00 0.00 0.00 0.00 0.00 0.00 0.01 0.04 0.08 0.01 0.00 0.00
0.01 0.01 0.02 0.01 0.01 0.01 0.02 0.06 0.11 0.17 0.10 0.07 0.04 0.02 0.02 0.01 0.02 0.02 0.02 0.04 0.04 0.12 0.30 0.57 0.70 0.51 0.47 0.08 0.06 0.02 0.01 0.02 0.08 0.11 0.03 0.00 0.00 0.00 0.00 0.00 0.00 0.00 0.00 0.00 0.00 0.00 0.00 0.00 0.00 0.01 0.10 0.09 0.00 0.00
0.01 0.05 0.04 0.02 0.00 0.01 0.02 0.05 0.11 0.09 0.02 0.01 0.01 0.01 0.01 0.01 0.03 0.04 0.02 0.02 0.03 0.15 0.44 0.65 0.44 0.29 0.30 0.25 0.08 0.07 0.08 0.09 0.04 0.01 0.01 0.00 0.01 0.01 0.00 0.00 0.00 0.00 0.00 0.00 0.00 0.00 0.00 0.00 0.00 0.00 0.00 0.00 0.00 0.00
0.03 0.05 0.04 0.01 0.00 0.01 0.02 0.01 0.03 0.04 0.02 0.01 0.01 0.03 0.01 0.02 0.01 0.01 0.02 0.01 0.06 0.19 0.26 0.46 0.32 0.26 0.18 0.16 0.16 0.18 0.09 0.02 0.01 0.01 0.01 0.01 0.01 0.00 0.00 0.00 0.00 0.00 0.00 0.00 0.00 0.00 0.00 0.00 0.00 0.00 0.00 0.00 0.00 0.00
0.02 0.01 0.02 0.00 0.00 0.03 0.03 0.02 0.02 0.06 0.01 0.01 0.01 0.01 0.00 0.02 0.01 0.00 0.01 0.01 0.03 0.18 0.50 0.25 0.16 0.10 0.08 0.17 0.19 0.16 0.13 0.09 0.06 0.03 0.01 0.01 0.01 0.00 0.01 0.03 0.02 0.00 0.00 0.00 0.00 0.00 0.00 0.00 0.00 0.00 0.00 0.00 0.00 0.00
0.00 0.00 0.00 0.00 0.00 0.06 0.06 0.04 0.03 0.04 0.02 0.03 0.00 0.01 0.01 0.01 0.02 0.04 0.05 0.10 0.14 0.28 0.39 0.16 0.05 0.06 0.10 0.08 0.02 0.02 0.03 0.03 0.02 0.02 0.03 0.04 0.03 0.01 0.02 0.04 0.05 0.03 0.03 0.00 0.00 0.00 0.00 0.00 0.00 0.00 0.00 0.00 0.00 0.00
0.00 0.00 0.00 0.00 0.00 0.00 0.01 0.01 0.02 0.02 0.01 0.00 0.01 0.01 0.01 0.01 0.01 0.02 0.04 0.10 0.30 0.29 0.16 0.12 0.13 0.14 0.13 0.09 0.04 0.02 0.01 0.01 0.02 0.02 0.02 0.02 0.03 0.04 0.04 0.04 0.06 0.08 0.07 0.05 0.02 0.01 0.00 0.00 0.00 0.00 0.00 0.01 0.01 0.01
0.00 0.00 0.00 0.00 0.00 0.00 0.00 0.00 0.00 0.01 0.00 0.01 0.01 0.01 0.02 0.02 0.02 0.02 0.01 0.04 0.07 0.06 0.11 0.16 0.17 0.13 0.10 0.08 0.05 0.05 0.04 0.03 0.02 0.03 0.02 0.02 0.03 0.05 0.07 0.09 0.11 0.14 0.14 0.12 0.09 0.06 0.04 0.02 0.01 0.01 0.01 0.02 0.01 0.02
0.00 0.00 0.00 0.00 0.00 0.00 0.00 0.00 0.00 0.00 0.00 0.01 0.00 0.00 0.00 0.01 0.03 0.03 0.01 0.02 0.04 0.02 0.01 0.02 0.01 0.01 0.01 0.01 0.02 0.02 0.02 0.02 0.02 0.02 0.03 0.03 0.03 0.04 0.06 0.10 0.15 0.20 0.22 0.23 0.20 0.16 0.14 0.13 0.09 0.04 0.02 0.02 0.02 0.04
0.00 0.00 0.00 0.00 0.00 0.00 0.00 0.00 0.00 0.00 0.00 0.00 0.00 0.00 0.00 0.01 0.01 0.01 0.02 0.06 0.06 0.02 0.02 0.01 0.01 0.00 0.01 0.01 0.01 0.01 0.01 0.01 0.01 0.01 0.02 0.03 0.04 0.05 0.05 0.07 0.09 0.11 0.10 0.12 0.15 0.17 0.18 0.18 0.17 0.16 0.12 0.09 0.09 0.08
0.00 0.00 0.00 0.00 0.00 0.00 0.00 0.00 0.00 0.00 0.00 0.00 0.00 0.01 0.01 0.01 0.02 0.02 0.02 0.09 0.15 0.14 0.05 0.01 0.02 0.01 0.02 0.01 0.01 0.00 0.01 0.01 0.01 0.01 0.01 0.02 0.04 0.05 0.04 0.04 0.04 0.05 0.06 0.06 0.07 0.09 0.12 0.14 0.16 0.17 0.17 0.16 0.15 0.15
0.00 0.00 0.00 0.00 0.00 0.00 0.00 0.00 0.01 0.01 0.01 0.01 0.01 0.01 0.02 0.04 0.03 0.03 0.09 0.16 0.14 0.07 0.03 0.03 0.03 0.06 0.05 0.02 0.02 0.02 0.01 0.02 0.04 0.03 0.01 0.01 0.02 0.04 0.05 0.04 0.03 0.03 0.04 0.05 0.06 0.08 0.10 0.11 0.12 0.12 0.13 0.13 0.14 0.14
0.00 0.00 0.00 0.00 0.00 0.00 0.01 0.01 0.01 0.01 0.03 0.03 0.04 0.04 0.05 0.05 0.05 0.15 0.20 0.09 0.04 0.03 0.03 0.04 0.06 0.08 0.06 0.03 0.04 0.08 0.08 0.08 0.07 0.06 0.03 0.03 0.03 0.03 0.05 0.07 0.06 0.05 0.03 0.03 0.04 0.08 0.11 0.14 0.16 0.16 0.16 0.16 0.15 0.13
0.00 0.00 0.00 0.00 0.00 0.00 0.01 0.01 0.02 0.02 0.05 0.06 0.04 0.06 0.07 0.09 0.16 0.19 0.09 0.03 0.01 0.01 0.01 0.03 0.05 0.06 0.04 0.05 0.11 0.16 0.19 0.18 0.16 0.17 0.16 0.13 0.14 0.17 0.19 0.17 0.12 0.09 0.06 0.07 0.08 0.11 0.16 0.19 0.20 0.19 0.17 0.17 0.18 0.17
0.00 0.00 0.00 0.00 0.00 0.01 0.01 0.02 0.03 0.07 0.10 0.07 0.11 0.10 0.10 0.09 0.08 0.04 0.03 0.01 0.01 0.01 0.01 0.01 0.02 0.04 0.05 0.08 0.11 0.15 0.17 0.20 0.23 0.21 0.17 0.16 0.21 0.27 0.21 0.16 0.15 0.13 0.13 0.15 0.16 0.16 0.17 0.20 0.21 0.20 0.21 0.17 0.16 0.17
0.01 0.00 0.01 0.02 0.02 0.02 0.05 0.06 0.05 0.03 0.01 0.02 0.06 0.05 0.06 0.16 0.09 0.05 0.02 0.01 0.01 0.03 0.04 0.04 0.03 0.03 0.04 0.05 0.06 0.07 0.10 0.13 0.21 0.26 0.23 0.18 0.18 0.16 0.13 0.14 0.16 0.18 0.18 0.18 0.18 0.18 0.19 0.21 0.23 0.24 0.21 0.18 0.17 0.18
0.01 0.02 0.03 0.03 0.03 0.03 0.04 0.01 0.00 0.01 0.03 0.03 0.02 0.04 0.10 0.13 0.11 0.06 0.05 0.05 0.05 0.06 0.05 0.04 0.03 0.03 0.06 0.06 0.07 0.07 0.05 0.05 0.07 0.08 0.13 0.14 0.15 0.14 0.14 0.13 0.13 0.16 0.17 0.17 0.16 0.15 0.16 0.17 0.19 0.18 0.17 0.17 0.17 0.16
0.02 0.03 0.06 0.06 0.02 0.02 0.01 0.03 0.02 0.03 0.03 0.04 0.09 0.10 0.13 0.19 0.18 0.13 0.09 0.05 0.04 0.05 0.06 0.07 0.06 0.04 0.06 0.08 0.09 0.12 0.12 0.08 0.08 0.09 0.10 0.09 0.10 0.12 0.11 0.09 0.10 0.12 0.14 0.13 0.14 0.14 0.14 0.15 0.16 0.16 0.16 0.15 0.15 0.15
0.01 0.02 0.03 0.04 0.03 0.04 0.07 0.04 0.02 0.03 0.03 0.07 0.13 0.09 0.16 0.23 0.15 0.12 0.05 0.04 0.06 0.07 0.07 0.07 0.08 0.09 0.09 0.10 0.13 0.15 0.16 0.16 0.14 0.13 0.11 0.10 0.11 0.13 0.14 0.14 0.13 0.12 0.12 0.12 0.12 0.11 0.11 0.10 0.11 0.11 0.11 0.10 0.10 0.10

GFSWCAN_prec_precacc24_183.txt.gz
Total_Precipitation_Accumulation
0.04 0.05 0.06 0.06 0.06 0.05 0.04 0.04 0.04 0.04 0.04 0.04 0.04 0.03 0.01 0.01 0.04 0.31 0.33 0.44 0.79 0.56 0.10 0.06 0.09 0.12 0.18 0.27 0.35 0.33 0.27 0.26 0.42 0.62 0.42 0.30 0.21 0.14 0.10 0.04 0.03 0.10 0.22 0.30 0.39 0.53 0.31 0.12 0.10 0.13 0.08 0.14 0.14 0.05
0.03 0.04 0.04 0.04 0.05 0.05 0.06 0.08 0.07 0.06 0.06 0.05 0.05 0.03 0.02 0.03 0.07 0.34 0.42 0.33 0.68 0.76 0.24 0.04 0.02 0.03 0.07 0.12 0.27 0.41 0.40 0.36 0.54 0.53 0.57 0.43 0.27 0.20 0.20 0.18 0.14 0.13 0.20 0.37 0.36 0.22 0.11 0.07 0.03 0.05 0.02 0.02 0.02 0.02
0.05 0.05 0.06 0.06 0.06 0.06 0.07 0.07 0.06 0.06 0.07 0.09 0.08 0.06 0.03 0.02 0.16 0.38 0.43 0.44 0.87 0.72 0.27 0.06 0.02 0.00 0.01 0.02 0.10 0.30 0.21 0.29 0.36 0.47 0.50 0.40 0.31 0.18 0.20 0.13 0.16 0.17 0.23 0.35 0.32 0.15 0.08 0.04 0.01 0.00 0.01 0.03 0.03 0.02
0.07 0.08 0.10 0.11 0.11 0.10 0.12 0.13 0.14 0.12 0.10 0.07 0.10 0.13 0.11 0.10 0.13 0.48 0.47 0.46 0.69 0.56 0.39 0.04 0.00 0.02 0.02 0.01 0.05 0.06 0.05 0.12 0.19 0.22 0.38 0.36 0.24 0.15 0.22 0.19 0.20 0.30 0.37 0.25 0.24 0.17 0.15 0.07 0.07 0.04 0.01 0.01 0.02 0.03
0.11 0.12 0.14 0.18 0.22 0.23 0.20 0.19 0.19 0.16 0.14 0.12 0.09 0.07 0.15 0.24 0.31 0.62 0.51 0.30 0.35 0.60 0.55 0.17 0.03 0.01 0.03 0.05 0.06 0.10 0.09 0.09 0.13 0.17 0.18 0.12 0.08 0.10 0.05 0.04 0.02 0.02 0.04 0.11 0.08 0.09 0.06 0.03 0.01 0.01 0.02 0.02 0.02 0.02
0.20 0.31 0.41 0.46 0.47 0.45 0.40 0.31 0.25 0.17 0.15 0.14 0.12 0.14 0.21 0.33 0.63 1.02 0.99 0.51 0.28 0.47 0.61 0.24 0.10 0.06 0.11 0.15 0.16 0.22 0.20 0.25 0.27 0.22 0.15 0.09 0.06 0.20 0.19 0.07 0.01 0.01 0.03 0.04 0.05 0.07 0.07 0.02 0.01 0.02 0.03 0.00 0.01 0.06
0.37 0.47 0.56 0.68 0.82 0.81 0.73 0.49 0.34 0.24 0.18 0.17 0.22 0.29 0.37 0.55 0.69 0.55 0.49 0.41 0.27 0.37 0.65 0.27 0.05 0.07 0.07 0.19 0.28 0.31 0.35 0.32 0.23 0.23 0.15 0.07 0.08 0.30 0.26 0.03 0.00 0.00 0.00 0.01 0.00 0.01 0.00 0.00 0.00 0.00 0.00 0.00 0.00 0.00
0.15 0.11 0.14 0.23 0.43 0.71 0.79 0.64 0.37 0.27 0.23 0.30 0.50 0.63 0.75 0.68 0.74 0.41 0.24 0.34 0.46 0.43 0.32 0.20 0.03 0.03 0.10 0.16 0.34 0.37 0.39 0.33 0.33 0.26 0.14 0.05 0.09 0.14 0.13 0.00 0.00 0.00 0.00 0.00 0.00 0.00 0.00 0.00 0.00 0.00 0.00 0.00 0.00 0.00
0.14 0.23 0.30 0.23 0.30 0.52 0.53 0.38 0.26 0.37 0.47 0.69 0.93 1.09 0.81 0.63 0.58 0.32 0.38 0.58 0.67 0.61 0.39 0.11 0.03 0.07 0.11 0.22 0.30 0.37 0.48 0.39 0.29 0.19 0.12 0.21 0.23 0.15 0.03 0.01 0.00 0.00 0.00 0.00 0.00 0.00 0.00 0.00 0.01 0.00 0.00 0.00 0.00 0.00
0.25 0.26 0.27 0.30 0.33 0.30 0.22 0.18 0.36 0.46 0.53 0.68 0.64 0.81 0.61 0.39 0.30 0.32 0.62 0.81 0.79 0.44 0.20 0.11 0.03 0.05 0.11 0.31 0.49 0.59 0.43 0.45 0.20 0.07 0.08 0.15 0.05 0.01 0.01 0.02 0.03 0.02 0.03 0.04 0.06 0.06 0.04 0.01 0.01 0.01 0.01 0.00 0.00 0.00
0.19 0.20 0.21 0.19 0.16 0.14 0.13 0.22 0.29 0.33 0.47 0.38 0.43 0.69 0.65 0.38 0.49 0.62 0.64 0.50 0.37 0.26 0.06 0.00 0.02 0.09 0.10 0.20 0.33 0.35 0.23 0.17 0.12 0.06 0.07 0.06 0.03 0.06 0.06 0.04 0.02 0.02 0.04 0.07 0.10 0.16 0.13 0.07 0.07 0.12 0.13 0.09 0.05 0.02
0.08 0.07 0.09 0.12 0.17 0.23 0.27 0.22 0.18 0.23 0.21 0.18 0.43 0.67 0.39 0.35 0.45 0.46 0.32 0.22 0.13 0.08 0.04 0.01 0.01 0.03 0.09 0.11 0.31 0.22 0.20 0.32 0.35 0.42 0.33 0.07 0.10 0.13 0.04 0.04 0.12 0.12 0.09 0.05 0.04 0.08 0.11 0.09 0.07 0.06 0.03 0.03 0.05 0.08
0.11 0.16 0.17 0.16 0.16 0.16 0.13 0.10 0.10 0.16 0.19 0.31 0.46 0.42 0.23 0.26 0.29 0.20 0.21 0.22 0.21 0.16 0.15 0.09 0.11 0.11 0.14 0.12 0.12 0.03 0.09 0.12 0.27 0.53 0.24 0.11 0.14 0.04 0.13 0.48 0.41 0.16 0.02 0.02 0.00 0.00 0.00 0.01 0.01 0.00 0.00 0.00 0.00 0.01
0.02 0.03 0.06 0.09 0.10 0.12 0.12 0.10 0.12 0.24 0.27 0.31 0.25 0.19 0.27 0.42 0.30 0.27 0.21 0.31 0.32 0.15 0.03 0.06 0.11 0.08 0.05 0.07 0.04 0.02 0.06 0.10 0.10 0.04 0.17 0.26 0.03 0.00 0.00 0.05 0.02 0.00 0.00 0.00 0.00 0.00 0.00 0.00 0.02 0.02 0.00 0.00 0.00 0.00
0.02 0.01 0.02 0.04 0.05 0.05 0.05 0.04 0.10 0.24 0.32 0.24 0.19 0.23 0.27 0.19 0.13 0.09 0.02 0.05 0.04 0.02 0.04 0.17 0.24 0.25 0.15 0.03 0.01 0.02 0.06 0.05 0.02 0.11 0.27 0.06 0.00 0.00 0.00 0.00 0.00 0.00 0.00 0.00 0.00 0.00 0.00 0.00 0.01 0.04 0.11 0.04 0.00 0.00
0.01 0.01 0.02 0.01 0.01 0.01 0.02 0.06 0.12 0.19 0.12 0.07 0.05 0.02 0.02 0.02 0.03 0.02 0.02 0.05 0.06 0.09 0.27 0.50 0.62 0.45 0.39 0.07 0.06 0.02 0.02 0.04 0.16 0.25 0.07 0.00 0.00 0.00 0.00 0.00 0.00 0.00 0.00 0.00 0.00 0.00 0.00 0.00 0.00 0.01 0.11 0.12 0.00 0.00
0.01 0.05 0.02 0.01 0.00 0.00 0.01 0.05 0.13 0.12 0.03 0.02 0.01 0.01 0.01 0.01 0.01 0.03 0.02 0.02 0.04 0.11 0.33 0.48 0.46 0.31 0.32 0.28 0.12 0.11 0.22 0.31 0.13 0.02 0.01 0.01 0.02 0.01 0.00 0.00 0.00 0.00 0.00 0.00 0.00 0.00 0.00 0.00 0.00 0.00 0.00 0.00 0.00 0.00
0.03 0.04 0.01 0.00 0.00 0.01 0.03 0.03 0.06 0.04 0.02 0.00 0.00 0.01 0.01 0.01 0.01 0.01 0.01 0.02 0.06 0.16 0.24 0.42 0.33 0.27 0.19 0.17 0.20 0.24 0.15 0.05 0.01 0.01 0.01 0.01 0.01 0.01 0.00 0.00 0.00 0.00 0.00 0.00 0.00 0.00 0.00 0.00 0.00 0.00 0.00 0.00 0.00 0.00
0.01 0.00 0.01 0.00 0.00 0.03 0.04 0.04 0.03 0.05 0.01 0.01 0.00 0.00 0.00 0.01 0.00 0.00 0.01 0.02 0.02 0.14 0.37 0.24 0.16 0.11 0.10 0.21 0.21 0.18 0.14 0.10 0.06 0.03 0.01 0.01 0.04 0.01 0.01 0.02 0.02 0.00 0.00 0.00 0.00 0.00 0.00 0.00 0.00 0.00 0.00 0.00 0.00 0.00
0.00 0.00 0.00 0.00 0.00 0.03 0.05 0.06 0.05 0.05 0.02 0.04 0.01 0.01 0.01 0.01 0.02 0.03 0.04 0.10 0.14 0.27 0.37 0.17 0.05 0.07 0.12 0.12 0.05 0.04 0.04 0.03 0.03 0.02 0.02 0.04 0.03 0.01 0.02 0.04 0.05 0.03 0.03 0.00 0.00 0.00 0.00 0.00 0.00 0.00 0.00 0.00 0.00 0.00
0.00 0.00 0.00 0.00 0.00 0.00 0.01 0.02 0.03 0.02 0.01 0.00 0.01 0.02 0.01 0.03 0.01 0.01 0.03 0.10 0.31 0.30 0.16 0.13 0.14 0.17 0.16 0.13 0.07 0.02 0.01 0.01 0.02 0.03 0.02 0.02 0.02 0.03 0.04 0.05 0.06 0.08 0.08 0.05 0.02 0.01 0.00 0.00 0.01 0.02 0.01 0.00 0.00 0.00
0.00 0.00 0.00 0.00 0.00 0.00 0.00 0.00 0.00 0.01 0.00 0.00 0.00 0.00 0.01 0.02 0.02 0.04 0.04 0.04 0.05 0.07 0.11 0.17 0.18 0.13 0.10 0.09 0.06 0.06 0.04 0.03 0.02 0.03 0.02 0.03 0.03 0.04 0.06 0.09 0.11 0.14 0.14 0.12 0.09 0.06 0.04 0.02 0.01 0.02 0.02 0.01 0.01 0.01
0.00 0.00 0.00 0.00 0.00 0.00 0.00 0.00 0.00 0.00 0.00 0.00 0.00 0.00 0.00 0.01 0.04 0.05 0.03 0.04 0.09 0.08 0.08 0.05 0.01 0.01 0.01 0.02 0.03 0.03 0.02 0.02 0.02 0.02 0.03 0.03 0.03 0.04 0.06 0.11 0.16 0.21 0.23 0.23 0.20 0.17 0.15 0.13 0.10 0.06 0.03 0.04 0.04 0.05
0.00 0.00 0.00 0.00 0.00 0.00 0.00 0.00 0.00 0.00 0.00 0.00 0.00 0.00 0.00 0.01 0.01 0.02 0.02 0.11 0.19 0.12 0.08 0.03 0.01 0.00 0.01 0.01 0.02 0.02 0.01 0.01 0.01 0.01 0.02 0.03 0.04 0.05 0.05 0.07 0.10 0.12 0.11 0.13 0.15 0.17 0.18 0.19 0.18 0.18 0.14 0.13 0.13 0.09
0.00 0.00 0.00 0.00 0.00 0.00 0.00 0.00 0.00 0.00 0.00 0.01 0.00 0.00 0.01 0.02 0.03 0.02 0.05 0.20 0.18 0.15 0.06 0.02 0.01 0.01 0.02 0.02 0.01 0.00 0.01 0.01 0.01 0.01 0.01 0.03 0.04 0.05 0.04 0.04 0.04 0.05 0.07 0.08 0.08 0.10 0.11 0.14 0.16 0.18 0.20 0.19 0.19 0.17
0.00 0.00 0.00 0.00 0.00 0.00 0.00 0.00 0.01 0.02 0.02 0.01 0.01 0.02 0.04 0.05 0.05 0.05 0.15 0.20 0.16 0.08 0.05 0.03 0.02 0.04 0.04 0.02 0.02 0.02 0.02 0.02 0.04 0.03 0.01 0.02 0.02 0.05 0.06 0.04 0.03 0.04 0.05 0.08 0.12 0.11 0.10 0.11 0.12 0.13 0.15 0.15 0.17 0.19
0.00 0.00 0.00 0.00 0.00 0.00 0.01 0.01 0.01 0.02 0.04 0.04 0.06 0.05 0.05 0.06 0.11 0.24 0.25 0.12 0.08 0.06 0.03 0.03 0.04 0.05 0.04 0.03 0.04 0.07 0.08 0.08 0.08 0.07 0.04 0.03 0.03 0.06 0.14 0.15 0.14 0.09 0.04 0.04 0.06 0.10 0.14 0.15 0.16 0.17 0.17 0.18 0.17 0.19
0.00 0.00 0.00 0.00 0.00 0.00 0.01 0.01 0.02 0.03 0.08 0.10 0.05 0.07 0.09 0.14 0.22 0.25 0.12 0.05 0.02 0.01 0.01 0.02 0.03 0.03 0.03 0.05 0.09 0.14 0.17 0.15 0.15 0.16 0.16 0.12 0.13 0.24 0.23 0.19 0.13 0.10 0.07 0.07 0.09 0.13 0.19 0.21 0.21 0.20 0.19 0.19 0.20 0.22
0.00 0.00 0.00 0.00 0.00 0.01 0.02 0.03 0.05 0.10 0.13 0.08 0.12 0.11 0.14 0.14 0.12 0.08 0.05 0.02 0.01 0.01 0.01 0.01 0.01 0.02 0.04 0.06 0.09 0.12 0.15 0.18 0.22 0.20 0.16 0.15 0.20 0.27 0.21 0.16 0.15 0.14 0.13 0.14 0.16 0.16 0.19 0.21 0.22 0.21 0.22 0.19 0.18 0.22
0.00 0.00 0.01 0.02 0.02 0.02 0.08 0.11 0.07 0.03 0.01 0.02 0.07 0.06 0.12 0.24 0.14 0.06 0.03 0.02 0.02 0.03 0.04 0.03 0.03 0.03 0.03 0.04 0.05 0.05 0.06 0.10 0.19 0.26 0.26 0.20 0.20 0.16 0.13 0.15 0.17 0.18 0.18 0.18 0.18 0.18 0.19 0.21 0.25 0.27 0.23 0.20 0.20 0.22
0.01 0.02 0.04 0.03 0.03 0.03 0.05 0.01 0.01 0.02 0.04 0.04 0.04 0.05 0.17 0.17 0.15 0.06 0.05 0.05 0.05 0.05 0.04 0.03 0.03 0.03 0.05 0.06 0.07 0.07 0.05 0.04 0.06 0.08 0.14 0.16 0.16 0.14 0.15 0.13 0.13 0.16 0.18 0.18 0.17 0.17 0.17 0.19 0.23 0.23 0.19 0.19 0.18 0.18
0.02 0.03 0.06 0.06 0.02 0.01 0.02 0.03 0.02 0.02 0.03 0.05 0.12 0.17 0.22 0.29 0.23 0.14 0.09 0.04 0.04 0.04 0.05 0.07 0.07 0.04 0.05 0.08 0.09 0.12 0.14 0.09 0.09 0.10 0.11 0.10 0.11 0.12 0.11 0.09 0.10 0.13 0.14 0.15 0.16 0.16 0.16 0.16 0.19 0.20 0.18 0.18 0.18 0.17
0.01 0.02 0.03 0.04 0.03 0.02 0.05 0.04 0.02 0.03 0.04 0.08 0.19 0.12 0.17 0.26 0.20 0.16 0.06 0.04 0.05 0.05 0.05 0.05 0.07 0.07 0.08 0.10 0.12 0.15 0.16 0.16 0.14 0.12 0.11 0.11 0.12 0.13 0.14 0.14 0.12 0.13 0.14 0.15 0.15 0.13 0.12 0.13 0.13 0.15 0.14 0.14 0.14 0.14